<?xml version='1.0' encoding='UTF-8'?>
<gpx version="1.1" creator="https://www.komoot.de" xmlns="http://www.topografix.com/GPX/1/1" xmlns:xsi="http://www.w3.org/2001/XMLSchema-instance" xsi:schemaLocation="http://www.topografix.com/GPX/1/1 http://www.topografix.com/GPX/1/1/gpx.xsd">
  <metadata>
    <name>63_1060SulzchopfSeewen</name>
    <author>
      <link href="https://www.komoot.de">
        <text>komoot</text>
        <type>text/html</type>
      </link>
    </author>
  </metadata>
  <trk>
    <name>63_1060SulzchopfSeewen</name>
    <trkseg>
      <trkpt lat="47.541373" lon="7.870822">
        <ele>339.187345</ele>
        <time>2021-11-17T22:39:37.042Z</time>
      </trkpt>
      <trkpt lat="47.541410" lon="7.870791">
        <ele>339.187345</ele>
        <time>2021-11-17T22:39:37.672Z</time>
      </trkpt>
      <trkpt lat="47.541576" lon="7.870664">
        <ele>339.187345</ele>
        <time>2021-11-17T22:39:40.111Z</time>
      </trkpt>
      <trkpt lat="47.541550" lon="7.870601">
        <ele>339.187345</ele>
        <time>2021-11-17T22:39:40.922Z</time>
      </trkpt>
      <trkpt lat="47.541521" lon="7.870517">
        <ele>339.187345</ele>
        <time>2021-11-17T22:39:41.979Z</time>
      </trkpt>
      <trkpt lat="47.541606" lon="7.870424">
        <ele>339.187345</ele>
        <time>2021-11-17T22:39:43.606Z</time>
      </trkpt>
      <trkpt lat="47.541910" lon="7.870106">
        <ele>339.187345</ele>
        <time>2021-11-17T22:39:49.269Z</time>
      </trkpt>
      <trkpt lat="47.542014" lon="7.870126">
        <ele>339.161371</ele>
        <time>2021-11-17T22:39:50.740Z</time>
      </trkpt>
      <trkpt lat="47.542118" lon="7.870135">
        <ele>339.058295</ele>
        <time>2021-11-17T22:39:52.482Z</time>
      </trkpt>
      <trkpt lat="47.542181" lon="7.870131">
        <ele>338.995903</ele>
        <time>2021-11-17T22:39:53.357Z</time>
      </trkpt>
      <trkpt lat="47.542317" lon="7.870012">
        <ele>338.839620</ele>
        <time>2021-11-17T22:39:55.461Z</time>
      </trkpt>
      <trkpt lat="47.542348" lon="7.869983">
        <ele>338.803344</ele>
        <time>2021-11-17T22:39:55.900Z</time>
      </trkpt>
      <trkpt lat="47.542329" lon="7.869820">
        <ele>338.692863</ele>
        <time>2021-11-17T22:39:57.685Z</time>
      </trkpt>
      <trkpt lat="47.542372" lon="7.869746">
        <ele>338.627648</ele>
        <time>2021-11-17T22:39:58.495Z</time>
      </trkpt>
      <trkpt lat="47.542657" lon="7.869354">
        <ele>338.242852</ele>
        <time>2021-11-17T22:40:03.289Z</time>
      </trkpt>
      <trkpt lat="47.542696" lon="7.869257">
        <ele>338.167444</ele>
        <time>2021-11-17T22:40:04.225Z</time>
      </trkpt>
      <trkpt lat="47.542722" lon="7.869201">
        <ele>338.122049</ele>
        <time>2021-11-17T22:40:04.816Z</time>
      </trkpt>
      <trkpt lat="47.543049" lon="7.868759">
        <ele>337.684062</ele>
        <time>2021-11-17T22:40:09.728Z</time>
      </trkpt>
      <trkpt lat="47.543105" lon="7.868711">
        <ele>337.620047</ele>
        <time>2021-11-17T22:40:10.467Z</time>
      </trkpt>
      <trkpt lat="47.543201" lon="7.868657">
        <ele>337.518445</ele>
        <time>2021-11-17T22:40:11.546Z</time>
      </trkpt>
      <trkpt lat="47.543657" lon="7.868359">
        <ele>336.908119</ele>
        <time>2021-11-17T22:40:17.341Z</time>
      </trkpt>
      <trkpt lat="47.543801" lon="7.868269">
        <ele>336.706087</ele>
        <time>2021-11-17T22:40:19.820Z</time>
      </trkpt>
      <trkpt lat="47.544214" lon="7.867988">
        <ele>336.118602</ele>
        <time>2021-11-17T22:40:27.437Z</time>
      </trkpt>
      <trkpt lat="47.544246" lon="7.867967">
        <ele>336.073359</ele>
        <time>2021-11-17T22:40:28.034Z</time>
      </trkpt>
      <trkpt lat="47.544410" lon="7.867825">
        <ele>335.827808</ele>
        <time>2021-11-17T22:40:31.287Z</time>
      </trkpt>
      <trkpt lat="47.544469" lon="7.867776">
        <ele>335.740373</ele>
        <time>2021-11-17T22:40:32.309Z</time>
      </trkpt>
      <trkpt lat="47.544568" lon="7.867693">
        <ele>335.593327</ele>
        <time>2021-11-17T22:40:34.236Z</time>
      </trkpt>
      <trkpt lat="47.545003" lon="7.867278">
        <ele>335.159752</ele>
        <time>2021-11-17T22:40:43.084Z</time>
      </trkpt>
      <trkpt lat="47.545160" lon="7.866985">
        <ele>335.318861</ele>
        <time>2021-11-17T22:40:47.734Z</time>
      </trkpt>
      <trkpt lat="47.545240" lon="7.866887">
        <ele>335.384269</ele>
        <time>2021-11-17T22:40:50.008Z</time>
      </trkpt>
      <trkpt lat="47.546096" lon="7.866147">
        <ele>336.008741</ele>
        <time>2021-11-17T22:41:15.078Z</time>
      </trkpt>
      <trkpt lat="47.546327" lon="7.865959">
        <ele>336.174808</ele>
        <time>2021-11-17T22:41:21.499Z</time>
      </trkpt>
      <trkpt lat="47.546510" lon="7.865766">
        <ele>336.234176</ele>
        <time>2021-11-17T22:41:27.885Z</time>
      </trkpt>
      <trkpt lat="47.546819" lon="7.865489">
        <ele>336.275447</ele>
        <time>2021-11-17T22:41:36.038Z</time>
      </trkpt>
      <trkpt lat="47.546889" lon="7.865225">
        <ele>336.297324</ele>
        <time>2021-11-17T22:41:39.825Z</time>
      </trkpt>
      <trkpt lat="47.546894" lon="7.864837">
        <ele>336.327256</ele>
        <time>2021-11-17T22:41:45.002Z</time>
      </trkpt>
      <trkpt lat="47.546885" lon="7.864500">
        <ele>336.353270</ele>
        <time>2021-11-17T22:41:50.641Z</time>
      </trkpt>
      <trkpt lat="47.546974" lon="7.864423">
        <ele>336.365047</ele>
        <time>2021-11-17T22:41:52.229Z</time>
      </trkpt>
      <trkpt lat="47.547320" lon="7.863864">
        <ele>336.393274</ele>
        <time>2021-11-17T22:42:02.154Z</time>
      </trkpt>
      <trkpt lat="47.547568" lon="7.863151">
        <ele>335.538078</ele>
        <time>2021-11-17T22:42:11.167Z</time>
      </trkpt>
      <trkpt lat="47.547930" lon="7.861711">
        <ele>333.899739</ele>
        <time>2021-11-17T22:42:27.541Z</time>
      </trkpt>
      <trkpt lat="47.548049" lon="7.860929">
        <ele>333.166968</ele>
        <time>2021-11-17T22:42:36.240Z</time>
      </trkpt>
      <trkpt lat="47.548334" lon="7.859801">
        <ele>332.175271</ele>
        <time>2021-11-17T22:42:49.722Z</time>
      </trkpt>
      <trkpt lat="47.548611" lon="7.858381">
        <ele>331.328565</ele>
        <time>2021-11-17T22:43:07.678Z</time>
      </trkpt>
      <trkpt lat="47.548686" lon="7.857973">
        <ele>331.281621</ele>
        <time>2021-11-17T22:43:13.067Z</time>
      </trkpt>
      <trkpt lat="47.548701" lon="7.857893">
        <ele>331.272403</ele>
        <time>2021-11-17T22:43:14.188Z</time>
      </trkpt>
      <trkpt lat="47.548743" lon="7.857692">
        <ele>331.249044</ele>
        <time>2021-11-17T22:43:16.962Z</time>
      </trkpt>
      <trkpt lat="47.548887" lon="7.857308">
        <ele>331.200276</ele>
        <time>2021-11-17T22:43:22.995Z</time>
      </trkpt>
      <trkpt lat="47.549362" lon="7.855774">
        <ele>331.326877</ele>
        <time>2021-11-17T22:43:47.040Z</time>
      </trkpt>
      <trkpt lat="47.549566" lon="7.855225">
        <ele>331.539048</ele>
        <time>2021-11-17T22:43:56.333Z</time>
      </trkpt>
      <trkpt lat="47.549883" lon="7.854434">
        <ele>331.850491</ele>
        <time>2021-11-17T22:44:10.674Z</time>
      </trkpt>
      <trkpt lat="47.550221" lon="7.853833">
        <ele>332.084793</ele>
        <time>2021-11-17T22:44:20.154Z</time>
      </trkpt>
      <trkpt lat="47.549708" lon="7.853279">
        <ele>332.323954</ele>
        <time>2021-11-17T22:44:34.061Z</time>
      </trkpt>
      <trkpt lat="47.549285" lon="7.852784">
        <ele>332.527029</ele>
        <time>2021-11-17T22:44:45.486Z</time>
      </trkpt>
      <trkpt lat="47.549535" lon="7.852225">
        <ele>332.625577</ele>
        <time>2021-11-17T22:44:55.190Z</time>
      </trkpt>
      <trkpt lat="47.549652" lon="7.851969">
        <ele>332.496859</ele>
        <time>2021-11-17T22:44:59.590Z</time>
      </trkpt>
      <trkpt lat="47.550009" lon="7.851173">
        <ele>332.098962</ele>
        <time>2021-11-17T22:45:11.954Z</time>
      </trkpt>
      <trkpt lat="47.550333" lon="7.850434">
        <ele>331.732078</ele>
        <time>2021-11-17T22:45:22.217Z</time>
      </trkpt>
      <trkpt lat="47.550488" lon="7.850081">
        <ele>331.551309</ele>
        <time>2021-11-17T22:45:26.915Z</time>
      </trkpt>
      <trkpt lat="47.550728" lon="7.849532">
        <ele>330.911393</ele>
        <time>2021-11-17T22:45:34.206Z</time>
      </trkpt>
      <trkpt lat="47.550810" lon="7.849346">
        <ele>330.694047</ele>
        <time>2021-11-17T22:45:36.646Z</time>
      </trkpt>
      <trkpt lat="47.550975" lon="7.849066">
        <ele>330.330403</ele>
        <time>2021-11-17T22:45:40.902Z</time>
      </trkpt>
      <trkpt lat="47.551242" lon="7.848702">
        <ele>329.804484</ele>
        <time>2021-11-17T22:45:45.146Z</time>
      </trkpt>
      <trkpt lat="47.551669" lon="7.848083">
        <ele>328.937802</ele>
        <time>2021-11-17T22:45:51.980Z</time>
      </trkpt>
      <trkpt lat="47.551196" lon="7.847517">
        <ele>328.011176</ele>
        <time>2021-11-17T22:45:58.841Z</time>
      </trkpt>
      <trkpt lat="47.551184" lon="7.847206">
        <ele>327.690747</ele>
        <time>2021-11-17T22:46:01.211Z</time>
      </trkpt>
      <trkpt lat="47.551205" lon="7.846694">
        <ele>327.163113</ele>
        <time>2021-11-17T22:46:05.139Z</time>
      </trkpt>
      <trkpt lat="47.551344" lon="7.844621">
        <ele>325.406350</ele>
        <time>2021-11-17T22:46:21.753Z</time>
      </trkpt>
      <trkpt lat="47.551454" lon="7.842815">
        <ele>324.184397</ele>
        <time>2021-11-17T22:46:36.940Z</time>
      </trkpt>
      <trkpt lat="47.551663" lon="7.842771">
        <ele>324.006771</ele>
        <time>2021-11-17T22:46:40.914Z</time>
      </trkpt>
      <trkpt lat="47.551668" lon="7.842770">
        <ele>324.002526</ele>
        <time>2021-11-17T22:46:41.018Z</time>
      </trkpt>
      <trkpt lat="47.551922" lon="7.842704">
        <ele>323.785540</ele>
        <time>2021-11-17T22:46:45.657Z</time>
      </trkpt>
      <trkpt lat="47.552380" lon="7.842592">
        <ele>323.394950</ele>
        <time>2021-11-17T22:46:54.096Z</time>
      </trkpt>
      <trkpt lat="47.552833" lon="7.842495">
        <ele>323.009820</ele>
        <time>2021-11-17T22:47:02.073Z</time>
      </trkpt>
      <trkpt lat="47.553133" lon="7.842431">
        <ele>322.680100</ele>
        <time>2021-11-17T22:47:07.323Z</time>
      </trkpt>
      <trkpt lat="47.553123" lon="7.842222">
        <ele>322.463167</ele>
        <time>2021-11-17T22:47:08.904Z</time>
      </trkpt>
      <trkpt lat="47.553216" lon="7.841849">
        <ele>322.051467</ele>
        <time>2021-11-17T22:47:12.115Z</time>
      </trkpt>
      <trkpt lat="47.553231" lon="7.841529">
        <ele>321.719355</ele>
        <time>2021-11-17T22:47:14.606Z</time>
      </trkpt>
      <trkpt lat="47.552939" lon="7.839526">
        <ele>319.601876</ele>
        <time>2021-11-17T22:47:30.144Z</time>
      </trkpt>
      <trkpt lat="47.552802" lon="7.839009">
        <ele>319.031726</ele>
        <time>2021-11-17T22:47:34.467Z</time>
      </trkpt>
      <trkpt lat="47.552736" lon="7.838578">
        <ele>318.578051</ele>
        <time>2021-11-17T22:47:37.903Z</time>
      </trkpt>
      <trkpt lat="47.552698" lon="7.838068">
        <ele>318.051345</ele>
        <time>2021-11-17T22:47:41.938Z</time>
      </trkpt>
      <trkpt lat="47.552697" lon="7.838068">
        <ele>318.049824</ele>
        <time>2021-11-17T22:47:41.941Z</time>
      </trkpt>
      <trkpt lat="47.552719" lon="7.836790">
        <ele>316.648306</ele>
        <time>2021-11-17T22:47:51.978Z</time>
      </trkpt>
      <trkpt lat="47.552714" lon="7.835010">
        <ele>314.555232</ele>
        <time>2021-11-17T22:48:05.720Z</time>
      </trkpt>
      <trkpt lat="47.552700" lon="7.833938">
        <ele>312.727131</ele>
        <time>2021-11-17T22:48:13.286Z</time>
      </trkpt>
      <trkpt lat="47.552696" lon="7.833789">
        <ele>312.443942</ele>
        <time>2021-11-17T22:48:14.283Z</time>
      </trkpt>
      <trkpt lat="47.552452" lon="7.833284">
        <ele>311.264468</ele>
        <time>2021-11-17T22:48:18.609Z</time>
      </trkpt>
      <trkpt lat="47.552467" lon="7.833198">
        <ele>311.095779</ele>
        <time>2021-11-17T22:48:19.221Z</time>
      </trkpt>
      <trkpt lat="47.552511" lon="7.833072">
        <ele>310.826359</ele>
        <time>2021-11-17T22:48:20.226Z</time>
      </trkpt>
      <trkpt lat="47.552556" lon="7.832977">
        <ele>310.605944</ele>
        <time>2021-11-17T22:48:21.043Z</time>
      </trkpt>
      <trkpt lat="47.552616" lon="7.832891">
        <ele>310.371044</ele>
        <time>2021-11-17T22:48:21.849Z</time>
      </trkpt>
      <trkpt lat="47.552690" lon="7.832598">
        <ele>309.776924</ele>
        <time>2021-11-17T22:48:24.050Z</time>
      </trkpt>
      <trkpt lat="47.552645" lon="7.830686">
        <ele>306.174059</ele>
        <time>2021-11-17T22:48:37.173Z</time>
      </trkpt>
      <trkpt lat="47.552554" lon="7.829266">
        <ele>303.792460</ele>
        <time>2021-11-17T22:48:47.459Z</time>
      </trkpt>
      <trkpt lat="47.552416" lon="7.828822">
        <ele>303.295418</ele>
        <time>2021-11-17T22:48:51.123Z</time>
      </trkpt>
      <trkpt lat="47.552404" lon="7.828582">
        <ele>303.050712</ele>
        <time>2021-11-17T22:48:53.038Z</time>
      </trkpt>
      <trkpt lat="47.552421" lon="7.828481">
        <ele>302.944867</ele>
        <time>2021-11-17T22:48:53.793Z</time>
      </trkpt>
      <trkpt lat="47.552477" lon="7.828294">
        <ele>302.736844</ele>
        <time>2021-11-17T22:48:55.369Z</time>
      </trkpt>
      <trkpt lat="47.552515" lon="7.828094">
        <ele>302.525575</ele>
        <time>2021-11-17T22:48:57.087Z</time>
      </trkpt>
      <trkpt lat="47.552491" lon="7.827227">
        <ele>301.643249</ele>
        <time>2021-11-17T22:49:03.995Z</time>
      </trkpt>
      <trkpt lat="47.552567" lon="7.824508">
        <ele>300.261269</ele>
        <time>2021-11-17T22:49:27.843Z</time>
      </trkpt>
      <trkpt lat="47.552896" lon="7.820699">
        <ele>298.366882</ele>
        <time>2021-11-17T22:50:00.581Z</time>
      </trkpt>
      <trkpt lat="47.552948" lon="7.819358">
        <ele>297.754760</ele>
        <time>2021-11-17T22:50:12.121Z</time>
      </trkpt>
      <trkpt lat="47.552844" lon="7.816432">
        <ele>297.307688</ele>
        <time>2021-11-17T22:50:39.754Z</time>
      </trkpt>
      <trkpt lat="47.552711" lon="7.812955">
        <ele>298.599750</ele>
        <time>2021-11-17T22:51:20.409Z</time>
      </trkpt>
      <trkpt lat="47.552566" lon="7.810386">
        <ele>299.724452</ele>
        <time>2021-11-17T22:51:50.441Z</time>
      </trkpt>
      <trkpt lat="47.552398" lon="7.808880">
        <ele>300.413172</ele>
        <time>2021-11-17T22:52:08.922Z</time>
      </trkpt>
      <trkpt lat="47.552068" lon="7.806445">
        <ele>300.842538</ele>
        <time>2021-11-17T22:52:37.262Z</time>
      </trkpt>
      <trkpt lat="47.552015" lon="7.806307">
        <ele>300.860545</ele>
        <time>2021-11-17T22:52:38.985Z</time>
      </trkpt>
      <trkpt lat="47.551895" lon="7.806278">
        <ele>300.880975</ele>
        <time>2021-11-17T22:52:40.294Z</time>
      </trkpt>
      <trkpt lat="47.551651" lon="7.806246">
        <ele>300.862876</ele>
        <time>2021-11-17T22:52:44.056Z</time>
      </trkpt>
      <trkpt lat="47.551671" lon="7.806117">
        <ele>300.783639</ele>
        <time>2021-11-17T22:52:45.370Z</time>
      </trkpt>
      <trkpt lat="47.551681" lon="7.805477">
        <ele>300.400404</ele>
        <time>2021-11-17T22:52:53.069Z</time>
      </trkpt>
      <trkpt lat="47.551709" lon="7.805000">
        <ele>300.113773</ele>
        <time>2021-11-17T22:52:58.708Z</time>
      </trkpt>
      <trkpt lat="47.551731" lon="7.804667">
        <ele>299.913472</ele>
        <time>2021-11-17T22:53:03.293Z</time>
      </trkpt>
      <trkpt lat="47.551744" lon="7.804473">
        <ele>299.796764</ele>
        <time>2021-11-17T22:53:05.269Z</time>
      </trkpt>
      <trkpt lat="47.551741" lon="7.804294">
        <ele>299.689574</ele>
        <time>2021-11-17T22:53:07.320Z</time>
      </trkpt>
      <trkpt lat="47.551692" lon="7.803510">
        <ele>299.212868</ele>
        <time>2021-11-17T22:53:16.687Z</time>
      </trkpt>
      <trkpt lat="47.551751" lon="7.803369">
        <ele>299.108182</ele>
        <time>2021-11-17T22:53:18.340Z</time>
      </trkpt>
      <trkpt lat="47.551744" lon="7.803277">
        <ele>299.049760</ele>
        <time>2021-11-17T22:53:18.983Z</time>
      </trkpt>
      <trkpt lat="47.551732" lon="7.803125">
        <ele>298.953191</ele>
        <time>2021-11-17T22:53:21.055Z</time>
      </trkpt>
      <trkpt lat="47.551700" lon="7.802648">
        <ele>298.650710</ele>
        <time>2021-11-17T22:53:24.995Z</time>
      </trkpt>
      <trkpt lat="47.551688" lon="7.802394">
        <ele>298.490039</ele>
        <time>2021-11-17T22:53:27.876Z</time>
      </trkpt>
      <trkpt lat="47.551679" lon="7.802228">
        <ele>298.384951</ele>
        <time>2021-11-17T22:53:29.035Z</time>
      </trkpt>
      <trkpt lat="47.551671" lon="7.802077">
        <ele>298.289374</ele>
        <time>2021-11-17T22:53:31.383Z</time>
      </trkpt>
      <trkpt lat="47.551669" lon="7.801853">
        <ele>298.148013</ele>
        <time>2021-11-17T22:53:33.549Z</time>
      </trkpt>
      <trkpt lat="47.551666" lon="7.801632">
        <ele>298.008528</ele>
        <time>2021-11-17T22:53:35.222Z</time>
      </trkpt>
      <trkpt lat="47.551669" lon="7.801438">
        <ele>297.886078</ele>
        <time>2021-11-17T22:53:37.113Z</time>
      </trkpt>
      <trkpt lat="47.551672" lon="7.801147">
        <ele>297.702429</ele>
        <time>2021-11-17T22:53:39.244Z</time>
      </trkpt>
      <trkpt lat="47.551704" lon="7.800451">
        <ele>296.510141</ele>
        <time>2021-11-17T22:53:44.943Z</time>
      </trkpt>
      <trkpt lat="47.551712" lon="7.800249">
        <ele>296.125329</ele>
        <time>2021-11-17T22:53:46.422Z</time>
      </trkpt>
      <trkpt lat="47.551754" lon="7.799766">
        <ele>295.199199</ele>
        <time>2021-11-17T22:53:49.772Z</time>
      </trkpt>
      <trkpt lat="47.551793" lon="7.799434">
        <ele>294.558331</ele>
        <time>2021-11-17T22:53:52.073Z</time>
      </trkpt>
      <trkpt lat="47.551805" lon="7.799326">
        <ele>294.350179</ele>
        <time>2021-11-17T22:53:52.795Z</time>
      </trkpt>
      <trkpt lat="47.551948" lon="7.798607">
        <ele>292.924703</ele>
        <time>2021-11-17T22:53:57.939Z</time>
      </trkpt>
      <trkpt lat="47.552084" lon="7.798083">
        <ele>291.612411</ele>
        <time>2021-11-17T22:54:01.617Z</time>
      </trkpt>
      <trkpt lat="47.552152" lon="7.797876">
        <ele>291.023871</ele>
        <time>2021-11-17T22:54:03.080Z</time>
      </trkpt>
      <trkpt lat="47.552493" lon="7.797048">
        <ele>288.544179</ele>
        <time>2021-11-17T22:54:09.307Z</time>
      </trkpt>
      <trkpt lat="47.552762" lon="7.796425">
        <ele>286.653483</ele>
        <time>2021-11-17T22:54:14.265Z</time>
      </trkpt>
      <trkpt lat="47.552817" lon="7.796239">
        <ele>286.134354</ele>
        <time>2021-11-17T22:54:15.689Z</time>
      </trkpt>
      <trkpt lat="47.552847" lon="7.796126">
        <ele>285.823933</ele>
        <time>2021-11-17T22:54:16.527Z</time>
      </trkpt>
      <trkpt lat="47.552886" lon="7.795976">
        <ele>285.610723</ele>
        <time>2021-11-17T22:54:17.669Z</time>
      </trkpt>
      <trkpt lat="47.552930" lon="7.795600">
        <ele>285.199543</ele>
        <time>2021-11-17T22:54:20.579Z</time>
      </trkpt>
      <trkpt lat="47.552917" lon="7.795354">
        <ele>284.933669</ele>
        <time>2021-11-17T22:54:22.463Z</time>
      </trkpt>
      <trkpt lat="47.552909" lon="7.795229">
        <ele>284.798379</ele>
        <time>2021-11-17T22:54:23.528Z</time>
      </trkpt>
      <trkpt lat="47.552909" lon="7.795229">
        <ele>284.798379</ele>
        <time>2021-11-17T22:54:23.530Z</time>
      </trkpt>
      <trkpt lat="47.552892" lon="7.795106">
        <ele>284.663097</ele>
        <time>2021-11-17T22:54:24.442Z</time>
      </trkpt>
      <trkpt lat="47.552861" lon="7.794992">
        <ele>284.530668</ele>
        <time>2021-11-17T22:54:25.319Z</time>
      </trkpt>
      <trkpt lat="47.552837" lon="7.794925">
        <ele>284.448938</ele>
        <time>2021-11-17T22:54:25.890Z</time>
      </trkpt>
      <trkpt lat="47.552826" lon="7.794894">
        <ele>284.411201</ele>
        <time>2021-11-17T22:54:26.155Z</time>
      </trkpt>
      <trkpt lat="47.552786" lon="7.794796">
        <ele>284.287798</ele>
        <time>2021-11-17T22:54:27.005Z</time>
      </trkpt>
      <trkpt lat="47.552763" lon="7.794750">
        <ele>284.226114</ele>
        <time>2021-11-17T22:54:27.692Z</time>
      </trkpt>
      <trkpt lat="47.552644" lon="7.794507">
        <ele>283.902619</ele>
        <time>2021-11-17T22:54:29.908Z</time>
      </trkpt>
      <trkpt lat="47.552532" lon="7.794285">
        <ele>283.603971</ele>
        <time>2021-11-17T22:54:32.123Z</time>
      </trkpt>
      <trkpt lat="47.552494" lon="7.794200">
        <ele>283.494114</ele>
        <time>2021-11-17T22:54:32.917Z</time>
      </trkpt>
      <trkpt lat="47.552384" lon="7.793915">
        <ele>283.140358</ele>
        <time>2021-11-17T22:54:35.645Z</time>
      </trkpt>
      <trkpt lat="47.552369" lon="7.793872">
        <ele>283.088203</ele>
        <time>2021-11-17T22:54:36.431Z</time>
      </trkpt>
      <trkpt lat="47.552292" lon="7.793607">
        <ele>282.847415</ele>
        <time>2021-11-17T22:54:38.758Z</time>
      </trkpt>
      <trkpt lat="47.552233" lon="7.793294">
        <ele>282.728946</ele>
        <time>2021-11-17T22:54:42.272Z</time>
      </trkpt>
      <trkpt lat="47.552216" lon="7.793160">
        <ele>282.679241</ele>
        <time>2021-11-17T22:54:43.402Z</time>
      </trkpt>
      <trkpt lat="47.552198" lon="7.792976">
        <ele>282.611464</ele>
        <time>2021-11-17T22:54:45.104Z</time>
      </trkpt>
      <trkpt lat="47.552184" lon="7.792540">
        <ele>282.452342</ele>
        <time>2021-11-17T22:54:49.514Z</time>
      </trkpt>
      <trkpt lat="47.552180" lon="7.792294">
        <ele>282.362638</ele>
        <time>2021-11-17T22:54:52.031Z</time>
      </trkpt>
      <trkpt lat="47.552182" lon="7.792040">
        <ele>282.270037</ele>
        <time>2021-11-17T22:54:54.196Z</time>
      </trkpt>
      <trkpt lat="47.552201" lon="7.791031">
        <ele>281.899875</ele>
        <time>2021-11-17T22:55:02.695Z</time>
      </trkpt>
      <trkpt lat="47.552135" lon="7.790302">
        <ele>281.570983</ele>
        <time>2021-11-17T22:55:09.123Z</time>
      </trkpt>
      <trkpt lat="47.552036" lon="7.789826">
        <ele>281.348262</ele>
        <time>2021-11-17T22:55:13.516Z</time>
      </trkpt>
      <trkpt lat="47.551858" lon="7.788906">
        <ele>280.920314</ele>
        <time>2021-11-17T22:55:21.927Z</time>
      </trkpt>
      <trkpt lat="47.551712" lon="7.788013">
        <ele>280.389070</ele>
        <time>2021-11-17T22:55:29.888Z</time>
      </trkpt>
      <trkpt lat="47.551694" lon="7.787879">
        <ele>280.293060</ele>
        <time>2021-11-17T22:55:31.023Z</time>
      </trkpt>
      <trkpt lat="47.551690" lon="7.787827">
        <ele>280.256282</ele>
        <time>2021-11-17T22:55:31.458Z</time>
      </trkpt>
      <trkpt lat="47.551672" lon="7.787603">
        <ele>280.097764</ele>
        <time>2021-11-17T22:55:33.392Z</time>
      </trkpt>
      <trkpt lat="47.551514" lon="7.785311">
        <ele>278.528186</ele>
        <time>2021-11-17T22:55:51.885Z</time>
      </trkpt>
      <trkpt lat="47.551498" lon="7.785081">
        <ele>278.387486</ele>
        <time>2021-11-17T22:55:53.764Z</time>
      </trkpt>
      <trkpt lat="47.551479" lon="7.784929">
        <ele>278.293418</ele>
        <time>2021-11-17T22:55:54.955Z</time>
      </trkpt>
      <trkpt lat="47.551510" lon="7.784910">
        <ele>278.263172</ele>
        <time>2021-11-17T22:55:55.442Z</time>
      </trkpt>
      <trkpt lat="47.551531" lon="7.784884">
        <ele>278.238498</ele>
        <time>2021-11-17T22:55:55.803Z</time>
      </trkpt>
      <trkpt lat="47.551548" lon="7.784841">
        <ele>278.208173</ele>
        <time>2021-11-17T22:55:56.281Z</time>
      </trkpt>
      <trkpt lat="47.551554" lon="7.784788">
        <ele>278.175471</ele>
        <time>2021-11-17T22:55:56.725Z</time>
      </trkpt>
      <trkpt lat="47.551547" lon="7.784737">
        <ele>278.143802</ele>
        <time>2021-11-17T22:55:57.144Z</time>
      </trkpt>
      <trkpt lat="47.551525" lon="7.784691">
        <ele>278.109495</ele>
        <time>2021-11-17T22:55:57.616Z</time>
      </trkpt>
      <trkpt lat="47.551500" lon="7.784666">
        <ele>278.082301</ele>
        <time>2021-11-17T22:55:57.974Z</time>
      </trkpt>
      <trkpt lat="47.551472" lon="7.784654">
        <ele>278.056021</ele>
        <time>2021-11-17T22:55:58.317Z</time>
      </trkpt>
      <trkpt lat="47.551437" lon="7.784657">
        <ele>278.024413</ele>
        <time>2021-11-17T22:55:58.723Z</time>
      </trkpt>
      <trkpt lat="47.551439" lon="7.784323">
        <ele>277.821160</ele>
        <time>2021-11-17T22:56:01.552Z</time>
      </trkpt>
      <trkpt lat="47.551302" lon="7.782671">
        <ele>277.084562</ele>
        <time>2021-11-17T22:56:16.119Z</time>
      </trkpt>
      <trkpt lat="47.551250" lon="7.782058">
        <ele>276.957398</ele>
        <time>2021-11-17T22:56:22.104Z</time>
      </trkpt>
      <trkpt lat="47.551230" lon="7.781831">
        <ele>276.910278</ele>
        <time>2021-11-17T22:56:24.292Z</time>
      </trkpt>
      <trkpt lat="47.551198" lon="7.781475">
        <ele>276.836357</ele>
        <time>2021-11-17T22:56:27.809Z</time>
      </trkpt>
      <trkpt lat="47.551270" lon="7.781390">
        <ele>276.808282</ele>
        <time>2021-11-17T22:56:29.572Z</time>
      </trkpt>
      <trkpt lat="47.551208" lon="7.780694">
        <ele>276.658062</ele>
        <time>2021-11-17T22:56:36.300Z</time>
      </trkpt>
      <trkpt lat="47.551085" lon="7.779125">
        <ele>276.194682</ele>
        <time>2021-11-17T22:56:50.779Z</time>
      </trkpt>
      <trkpt lat="47.550982" lon="7.777915">
        <ele>275.892415</ele>
        <time>2021-11-17T22:57:01.342Z</time>
      </trkpt>
      <trkpt lat="47.550963" lon="7.777797">
        <ele>275.890571</ele>
        <time>2021-11-17T22:57:02.352Z</time>
      </trkpt>
      <trkpt lat="47.550819" lon="7.776918">
        <ele>275.876821</ele>
        <time>2021-11-17T22:57:10.888Z</time>
      </trkpt>
      <trkpt lat="47.550782" lon="7.776690">
        <ele>275.873256</ele>
        <time>2021-11-17T22:57:13.124Z</time>
      </trkpt>
      <trkpt lat="47.550607" lon="7.775871">
        <ele>275.860197</ele>
        <time>2021-11-17T22:57:22.468Z</time>
      </trkpt>
      <trkpt lat="47.550598" lon="7.775828">
        <ele>275.859512</ele>
        <time>2021-11-17T22:57:22.951Z</time>
      </trkpt>
      <trkpt lat="47.550505" lon="7.775364">
        <ele>275.918193</ele>
        <time>2021-11-17T22:57:28.468Z</time>
      </trkpt>
      <trkpt lat="47.550320" lon="7.774602">
        <ele>276.197940</ele>
        <time>2021-11-17T22:57:37.932Z</time>
      </trkpt>
      <trkpt lat="47.550090" lon="7.773646">
        <ele>276.548549</ele>
        <time>2021-11-17T22:57:49.806Z</time>
      </trkpt>
      <trkpt lat="47.550061" lon="7.773283">
        <ele>276.674825</ele>
        <time>2021-11-17T22:57:53.943Z</time>
      </trkpt>
      <trkpt lat="47.550203" lon="7.772543">
        <ele>276.905283</ele>
        <time>2021-11-17T22:58:02.153Z</time>
      </trkpt>
      <trkpt lat="47.550199" lon="7.772076">
        <ele>277.032111</ele>
        <time>2021-11-17T22:58:07.141Z</time>
      </trkpt>
      <trkpt lat="47.550069" lon="7.771373">
        <ele>277.230050</ele>
        <time>2021-11-17T22:58:14.955Z</time>
      </trkpt>
      <trkpt lat="47.549845" lon="7.770734">
        <ele>277.425584</ele>
        <time>2021-11-17T22:58:23.125Z</time>
      </trkpt>
      <trkpt lat="47.549714" lon="7.770276">
        <ele>277.663361</ele>
        <time>2021-11-17T22:58:28.902Z</time>
      </trkpt>
      <trkpt lat="47.549678" lon="7.770148">
        <ele>277.763931</ele>
        <time>2021-11-17T22:58:30.702Z</time>
      </trkpt>
      <trkpt lat="47.549363" lon="7.768846">
        <ele>278.767058</ele>
        <time>2021-11-17T22:58:47.869Z</time>
      </trkpt>
      <trkpt lat="47.549321" lon="7.768653">
        <ele>278.914130</ele>
        <time>2021-11-17T22:58:50.730Z</time>
      </trkpt>
      <trkpt lat="47.549184" lon="7.768021">
        <ele>279.395559</ele>
        <time>2021-11-17T22:59:00.318Z</time>
      </trkpt>
      <trkpt lat="47.548990" lon="7.767248">
        <ele>279.663343</ele>
        <time>2021-11-17T22:59:11.992Z</time>
      </trkpt>
      <trkpt lat="47.548565" lon="7.765680">
        <ele>280.168193</ele>
        <time>2021-11-17T22:59:30.783Z</time>
      </trkpt>
      <trkpt lat="47.547909" lon="7.763208">
        <ele>278.049903</ele>
        <time>2021-11-17T22:59:51.656Z</time>
      </trkpt>
      <trkpt lat="47.547848" lon="7.762928">
        <ele>277.781647</ele>
        <time>2021-11-17T22:59:53.801Z</time>
      </trkpt>
      <trkpt lat="47.547778" lon="7.762713">
        <ele>277.549509</ele>
        <time>2021-11-17T22:59:55.616Z</time>
      </trkpt>
      <trkpt lat="47.547577" lon="7.762307">
        <ele>277.059859</ele>
        <time>2021-11-17T22:59:59.386Z</time>
      </trkpt>
      <trkpt lat="47.547194" lon="7.761352">
        <ele>275.979560</ele>
        <time>2021-11-17T23:00:07.894Z</time>
      </trkpt>
      <trkpt lat="47.547078" lon="7.760933">
        <ele>275.539139</ele>
        <time>2021-11-17T23:00:11.456Z</time>
      </trkpt>
      <trkpt lat="47.546989" lon="7.760612">
        <ele>275.314658</ele>
        <time>2021-11-17T23:00:14.386Z</time>
      </trkpt>
      <trkpt lat="47.546948" lon="7.760482">
        <ele>275.396196</ele>
        <time>2021-11-17T23:00:15.635Z</time>
      </trkpt>
      <trkpt lat="47.546870" lon="7.760301">
        <ele>275.518222</ele>
        <time>2021-11-17T23:00:17.535Z</time>
      </trkpt>
      <trkpt lat="47.546804" lon="7.760164">
        <ele>275.613866</ele>
        <time>2021-11-17T23:00:18.987Z</time>
      </trkpt>
      <trkpt lat="47.546552" lon="7.759727">
        <ele>275.940472</ele>
        <time>2021-11-17T23:00:24.972Z</time>
      </trkpt>
      <trkpt lat="47.546312" lon="7.759326">
        <ele>276.245015</ele>
        <time>2021-11-17T23:00:31.336Z</time>
      </trkpt>
      <trkpt lat="47.546264" lon="7.759224">
        <ele>276.315672</ele>
        <time>2021-11-17T23:00:32.973Z</time>
      </trkpt>
      <trkpt lat="47.545911" lon="7.758393">
        <ele>277.122958</ele>
        <time>2021-11-17T23:00:49.364Z</time>
      </trkpt>
      <trkpt lat="47.545677" lon="7.757815">
        <ele>278.610842</ele>
        <time>2021-11-17T23:01:01.777Z</time>
      </trkpt>
      <trkpt lat="47.545429" lon="7.757231">
        <ele>280.133987</ele>
        <time>2021-11-17T23:01:14.919Z</time>
      </trkpt>
      <trkpt lat="47.545360" lon="7.757065">
        <ele>280.564356</ele>
        <time>2021-11-17T23:01:19.507Z</time>
      </trkpt>
      <trkpt lat="47.545326" lon="7.756949">
        <ele>280.843537</ele>
        <time>2021-11-17T23:01:22.202Z</time>
      </trkpt>
      <trkpt lat="47.545304" lon="7.756852">
        <ele>281.069439</ele>
        <time>2021-11-17T23:01:24.358Z</time>
      </trkpt>
      <trkpt lat="47.545260" lon="7.756637">
        <ele>281.565408</ele>
        <time>2021-11-17T23:01:29.315Z</time>
      </trkpt>
      <trkpt lat="47.545021" lon="7.756243">
        <ele>282.721107</ele>
        <time>2021-11-17T23:01:40.117Z</time>
      </trkpt>
      <trkpt lat="47.544314" lon="7.754448">
        <ele>286.344356</ele>
        <time>2021-11-17T23:02:16.580Z</time>
      </trkpt>
      <trkpt lat="47.544022" lon="7.753705">
        <ele>287.558085</ele>
        <time>2021-11-17T23:02:28.564Z</time>
      </trkpt>
      <trkpt lat="47.543798" lon="7.753068">
        <ele>288.134087</ele>
        <time>2021-11-17T23:02:38.435Z</time>
      </trkpt>
      <trkpt lat="47.543319" lon="7.751355">
        <ele>289.509010</ele>
        <time>2021-11-17T23:03:02.222Z</time>
      </trkpt>
      <trkpt lat="47.543222" lon="7.751091">
        <ele>289.590309</ele>
        <time>2021-11-17T23:03:05.495Z</time>
      </trkpt>
      <trkpt lat="47.543115" lon="7.750826">
        <ele>289.673829</ele>
        <time>2021-11-17T23:03:10.245Z</time>
      </trkpt>
      <trkpt lat="47.543033" lon="7.750614">
        <ele>289.739917</ele>
        <time>2021-11-17T23:03:12.828Z</time>
      </trkpt>
      <trkpt lat="47.542614" lon="7.749755">
        <ele>290.026568</ele>
        <time>2021-11-17T23:03:24.369Z</time>
      </trkpt>
      <trkpt lat="47.542390" lon="7.749307">
        <ele>290.172952</ele>
        <time>2021-11-17T23:03:30.180Z</time>
      </trkpt>
      <trkpt lat="47.542347" lon="7.749227">
        <ele>290.174495</ele>
        <time>2021-11-17T23:03:31.721Z</time>
      </trkpt>
      <trkpt lat="47.542132" lon="7.748742">
        <ele>290.183252</ele>
        <time>2021-11-17T23:03:39.286Z</time>
      </trkpt>
      <trkpt lat="47.541758" lon="7.747784">
        <ele>290.199955</ele>
        <time>2021-11-17T23:03:54.020Z</time>
      </trkpt>
      <trkpt lat="47.541583" lon="7.747186">
        <ele>290.209792</ele>
        <time>2021-11-17T23:04:03.199Z</time>
      </trkpt>
      <trkpt lat="47.541511" lon="7.746885">
        <ele>290.215971</ele>
        <time>2021-11-17T23:04:07.669Z</time>
      </trkpt>
      <trkpt lat="47.541432" lon="7.746552">
        <ele>290.225543</ele>
        <time>2021-11-17T23:04:12.781Z</time>
      </trkpt>
      <trkpt lat="47.541167" lon="7.745463">
        <ele>290.256936</ele>
        <time>2021-11-17T23:04:28.592Z</time>
      </trkpt>
      <trkpt lat="47.541160" lon="7.745250">
        <ele>290.262719</ele>
        <time>2021-11-17T23:04:31.445Z</time>
      </trkpt>
      <trkpt lat="47.541148" lon="7.745144">
        <ele>290.265634</ele>
        <time>2021-11-17T23:04:32.974Z</time>
      </trkpt>
      <trkpt lat="47.541130" lon="7.745083">
        <ele>290.267439</ele>
        <time>2021-11-17T23:04:33.896Z</time>
      </trkpt>
      <trkpt lat="47.541038" lon="7.744940">
        <ele>290.272797</ele>
        <time>2021-11-17T23:04:36.279Z</time>
      </trkpt>
      <trkpt lat="47.541019" lon="7.744859">
        <ele>290.275122</ele>
        <time>2021-11-17T23:04:37.516Z</time>
      </trkpt>
      <trkpt lat="47.540913" lon="7.744421">
        <ele>290.281042</ele>
        <time>2021-11-17T23:04:44.066Z</time>
      </trkpt>
      <trkpt lat="47.540738" lon="7.743641">
        <ele>290.245452</ele>
        <time>2021-11-17T23:04:55.893Z</time>
      </trkpt>
      <trkpt lat="47.540617" lon="7.742875">
        <ele>290.211389</ele>
        <time>2021-11-17T23:05:06.844Z</time>
      </trkpt>
      <trkpt lat="47.540589" lon="7.742558">
        <ele>290.197546</ele>
        <time>2021-11-17T23:05:11.218Z</time>
      </trkpt>
      <trkpt lat="47.540552" lon="7.742240">
        <ele>290.183573</ele>
        <time>2021-11-17T23:05:15.476Z</time>
      </trkpt>
      <trkpt lat="47.540542" lon="7.742085">
        <ele>290.176831</ele>
        <time>2021-11-17T23:05:17.524Z</time>
      </trkpt>
      <trkpt lat="47.540438" lon="7.740453">
        <ele>289.206211</ele>
        <time>2021-11-17T23:05:37.269Z</time>
      </trkpt>
      <trkpt lat="47.540374" lon="7.739620">
        <ele>288.659155</ele>
        <time>2021-11-17T23:05:46.699Z</time>
      </trkpt>
      <trkpt lat="47.540372" lon="7.739490">
        <ele>288.574306</ele>
        <time>2021-11-17T23:05:48.242Z</time>
      </trkpt>
      <trkpt lat="47.540387" lon="7.739372">
        <ele>288.495956</ele>
        <time>2021-11-17T23:05:49.733Z</time>
      </trkpt>
      <trkpt lat="47.540394" lon="7.739259">
        <ele>288.422852</ele>
        <time>2021-11-17T23:05:51.067Z</time>
      </trkpt>
      <trkpt lat="47.540388" lon="7.739213">
        <ele>288.395365</ele>
        <time>2021-11-17T23:05:51.460Z</time>
      </trkpt>
      <trkpt lat="47.540261" lon="7.738473">
        <ele>287.947391</ele>
        <time>2021-11-17T23:06:00.358Z</time>
      </trkpt>
      <trkpt lat="47.540032" lon="7.737141">
        <ele>287.140951</ele>
        <time>2021-11-17T23:06:16.181Z</time>
      </trkpt>
      <trkpt lat="47.539838" lon="7.736344">
        <ele>286.973554</ele>
        <time>2021-11-17T23:06:27.889Z</time>
      </trkpt>
      <trkpt lat="47.539305" lon="7.734151">
        <ele>287.630010</ele>
        <time>2021-11-17T23:07:03.084Z</time>
      </trkpt>
      <trkpt lat="47.539263" lon="7.733885">
        <ele>287.776993</ele>
        <time>2021-11-17T23:07:07.411Z</time>
      </trkpt>
      <trkpt lat="47.539178" lon="7.733656">
        <ele>287.917602</ele>
        <time>2021-11-17T23:07:11.491Z</time>
      </trkpt>
      <trkpt lat="47.538887" lon="7.732454">
        <ele>288.604666</ele>
        <time>2021-11-17T23:07:31.985Z</time>
      </trkpt>
      <trkpt lat="47.538512" lon="7.730958">
        <ele>289.177543</ele>
        <time>2021-11-17T23:07:57.467Z</time>
      </trkpt>
      <trkpt lat="47.538339" lon="7.730082">
        <ele>289.339114</ele>
        <time>2021-11-17T23:08:10.854Z</time>
      </trkpt>
      <trkpt lat="47.538275" lon="7.729744">
        <ele>289.401256</ele>
        <time>2021-11-17T23:08:15.717Z</time>
      </trkpt>
      <trkpt lat="47.538248" lon="7.729713">
        <ele>289.410214</ele>
        <time>2021-11-17T23:08:16.332Z</time>
      </trkpt>
      <trkpt lat="47.538168" lon="7.729263">
        <ele>289.492590</ele>
        <time>2021-11-17T23:08:22.415Z</time>
      </trkpt>
      <trkpt lat="47.538148" lon="7.729131">
        <ele>289.461977</ele>
        <time>2021-11-17T23:08:24.085Z</time>
      </trkpt>
      <trkpt lat="47.538123" lon="7.729100">
        <ele>289.408051</ele>
        <time>2021-11-17T23:08:24.679Z</time>
      </trkpt>
      <trkpt lat="47.538083" lon="7.728919">
        <ele>289.195390</ele>
        <time>2021-11-17T23:08:27.007Z</time>
      </trkpt>
      <trkpt lat="47.538020" lon="7.728505">
        <ele>288.721510</ele>
        <time>2021-11-17T23:08:32.139Z</time>
      </trkpt>
      <trkpt lat="47.537932" lon="7.727936">
        <ele>288.069694</ele>
        <time>2021-11-17T23:08:38.822Z</time>
      </trkpt>
      <trkpt lat="47.537861" lon="7.727909">
        <ele>287.948451</ele>
        <time>2021-11-17T23:08:40.010Z</time>
      </trkpt>
      <trkpt lat="47.537824" lon="7.727674">
        <ele>287.679002</ele>
        <time>2021-11-17T23:08:41.865Z</time>
      </trkpt>
      <trkpt lat="47.537675" lon="7.726458">
        <ele>286.009186</ele>
        <time>2021-11-17T23:08:50.805Z</time>
      </trkpt>
      <trkpt lat="47.537323" lon="7.724748">
        <ele>281.552200</ele>
        <time>2021-11-17T23:09:02.547Z</time>
      </trkpt>
      <trkpt lat="47.537127" lon="7.723974">
        <ele>279.580777</ele>
        <time>2021-11-17T23:09:07.983Z</time>
      </trkpt>
      <trkpt lat="47.537106" lon="7.723875">
        <ele>279.379877</ele>
        <time>2021-11-17T23:09:08.667Z</time>
      </trkpt>
      <trkpt lat="47.537075" lon="7.723694">
        <ele>279.018364</ele>
        <time>2021-11-17T23:09:09.896Z</time>
      </trkpt>
      <trkpt lat="47.536854" lon="7.722329">
        <ele>276.300815</ele>
        <time>2021-11-17T23:09:19.809Z</time>
      </trkpt>
      <trkpt lat="47.536667" lon="7.721718">
        <ele>275.002049</ele>
        <time>2021-11-17T23:09:24.932Z</time>
      </trkpt>
      <trkpt lat="47.536590" lon="7.721558">
        <ele>274.626048</ele>
        <time>2021-11-17T23:09:26.392Z</time>
      </trkpt>
      <trkpt lat="47.536471" lon="7.721389">
        <ele>274.171815</ele>
        <time>2021-11-17T23:09:27.912Z</time>
      </trkpt>
      <trkpt lat="47.536092" lon="7.720862">
        <ele>272.739529</ele>
        <time>2021-11-17T23:09:33.772Z</time>
      </trkpt>
      <trkpt lat="47.535988" lon="7.720671">
        <ele>272.283085</ele>
        <time>2021-11-17T23:09:35.257Z</time>
      </trkpt>
      <trkpt lat="47.535897" lon="7.720461">
        <ele>271.818908</ele>
        <time>2021-11-17T23:09:37.613Z</time>
      </trkpt>
      <trkpt lat="47.535876" lon="7.720409">
        <ele>271.706195</ele>
        <time>2021-11-17T23:09:38.265Z</time>
      </trkpt>
      <trkpt lat="47.535806" lon="7.720212">
        <ele>271.292086</ele>
        <time>2021-11-17T23:09:39.605Z</time>
      </trkpt>
      <trkpt lat="47.535746" lon="7.719899">
        <ele>270.686839</ele>
        <time>2021-11-17T23:09:43.305Z</time>
      </trkpt>
      <trkpt lat="47.535713" lon="7.719682">
        <ele>270.273069</ele>
        <time>2021-11-17T23:09:44.633Z</time>
      </trkpt>
      <trkpt lat="47.535661" lon="7.719317">
        <ele>269.688167</ele>
        <time>2021-11-17T23:09:48.732Z</time>
      </trkpt>
      <trkpt lat="47.535608" lon="7.718948">
        <ele>269.370597</ele>
        <time>2021-11-17T23:09:51.407Z</time>
      </trkpt>
      <trkpt lat="47.535572" lon="7.718705">
        <ele>269.161176</ele>
        <time>2021-11-17T23:09:53.005Z</time>
      </trkpt>
      <trkpt lat="47.535558" lon="7.718578">
        <ele>269.052853</ele>
        <time>2021-11-17T23:09:53.942Z</time>
      </trkpt>
      <trkpt lat="47.535516" lon="7.718273">
        <ele>268.790822</ele>
        <time>2021-11-17T23:09:57.004Z</time>
      </trkpt>
      <trkpt lat="47.535494" lon="7.718111">
        <ele>268.651721</ele>
        <time>2021-11-17T23:09:57.982Z</time>
      </trkpt>
      <trkpt lat="47.535490" lon="7.718086">
        <ele>268.630094</ele>
        <time>2021-11-17T23:09:58.758Z</time>
      </trkpt>
      <trkpt lat="47.535419" lon="7.717562">
        <ele>268.180201</ele>
        <time>2021-11-17T23:10:02.783Z</time>
      </trkpt>
      <trkpt lat="47.535384" lon="7.717243">
        <ele>267.908148</ele>
        <time>2021-11-17T23:10:08.160Z</time>
      </trkpt>
      <trkpt lat="47.535370" lon="7.716931">
        <ele>267.644930</ele>
        <time>2021-11-17T23:10:11.597Z</time>
      </trkpt>
      <trkpt lat="47.535347" lon="7.716584">
        <ele>267.754895</ele>
        <time>2021-11-17T23:10:15.217Z</time>
      </trkpt>
      <trkpt lat="47.535313" lon="7.716133">
        <ele>268.209543</ele>
        <time>2021-11-17T23:10:22.367Z</time>
      </trkpt>
      <trkpt lat="47.535254" lon="7.715336">
        <ele>269.012813</ele>
        <time>2021-11-17T23:10:34.916Z</time>
      </trkpt>
      <trkpt lat="47.535269" lon="7.714924">
        <ele>269.426181</ele>
        <time>2021-11-17T23:10:41.048Z</time>
      </trkpt>
      <trkpt lat="47.535269" lon="7.714705">
        <ele>269.645589</ele>
        <time>2021-11-17T23:10:44.258Z</time>
      </trkpt>
      <trkpt lat="47.535269" lon="7.714432">
        <ele>269.919097</ele>
        <time>2021-11-17T23:10:47.858Z</time>
      </trkpt>
      <trkpt lat="47.535222" lon="7.713738">
        <ele>270.400592</ele>
        <time>2021-11-17T23:10:56.895Z</time>
      </trkpt>
      <trkpt lat="47.535202" lon="7.713540">
        <ele>270.495680</ele>
        <time>2021-11-17T23:10:59.313Z</time>
      </trkpt>
      <trkpt lat="47.535174" lon="7.713262">
        <ele>270.629180</ele>
        <time>2021-11-17T23:11:02.732Z</time>
      </trkpt>
      <trkpt lat="47.535128" lon="7.712889">
        <ele>270.809271</ele>
        <time>2021-11-17T23:11:07.390Z</time>
      </trkpt>
      <trkpt lat="47.535110" lon="7.712748">
        <ele>270.877427</ele>
        <time>2021-11-17T23:11:09.016Z</time>
      </trkpt>
      <trkpt lat="47.535110" lon="7.712748">
        <ele>270.877427</ele>
        <time>2021-11-17T23:11:09.038Z</time>
      </trkpt>
      <trkpt lat="47.534950" lon="7.712810">
        <ele>270.993775</ele>
        <time>2021-11-17T23:11:11.911Z</time>
      </trkpt>
      <trkpt lat="47.534760" lon="7.712896">
        <ele>271.133542</ele>
        <time>2021-11-17T23:11:15.196Z</time>
      </trkpt>
      <trkpt lat="47.534597" lon="7.712970">
        <ele>271.253478</ele>
        <time>2021-11-17T23:11:18.106Z</time>
      </trkpt>
      <trkpt lat="47.534528" lon="7.713002">
        <ele>271.304343</ele>
        <time>2021-11-17T23:11:19.320Z</time>
      </trkpt>
      <trkpt lat="47.534344" lon="7.713085">
        <ele>271.439657</ele>
        <time>2021-11-17T23:11:22.335Z</time>
      </trkpt>
      <trkpt lat="47.534242" lon="7.713132">
        <ele>271.492731</ele>
        <time>2021-11-17T23:11:24.127Z</time>
      </trkpt>
      <trkpt lat="47.534149" lon="7.712747">
        <ele>271.591108</ele>
        <time>2021-11-17T23:11:28.309Z</time>
      </trkpt>
      <trkpt lat="47.534103" lon="7.712557">
        <ele>271.639671</ele>
        <time>2021-11-17T23:11:30.758Z</time>
      </trkpt>
      <trkpt lat="47.533850" lon="7.712715">
        <ele>271.737514</ele>
        <time>2021-11-17T23:11:34.944Z</time>
      </trkpt>
      <trkpt lat="47.533712" lon="7.712802">
        <ele>271.790960</ele>
        <time>2021-11-17T23:11:37.383Z</time>
      </trkpt>
      <trkpt lat="47.533585" lon="7.712861">
        <ele>271.838390</ele>
        <time>2021-11-17T23:11:39.344Z</time>
      </trkpt>
      <trkpt lat="47.533204" lon="7.712930">
        <ele>271.975171</ele>
        <time>2021-11-17T23:11:45.393Z</time>
      </trkpt>
      <trkpt lat="47.532918" lon="7.712834">
        <ele>272.079672</ele>
        <time>2021-11-17T23:11:50.325Z</time>
      </trkpt>
      <trkpt lat="47.532835" lon="7.712791">
        <ele>272.111006</ele>
        <time>2021-11-17T23:11:51.835Z</time>
      </trkpt>
      <trkpt lat="47.532756" lon="7.712690">
        <ele>272.200750</ele>
        <time>2021-11-17T23:11:53.905Z</time>
      </trkpt>
      <trkpt lat="47.532382" lon="7.712125">
        <ele>272.660244</ele>
        <time>2021-11-17T23:12:03.375Z</time>
      </trkpt>
      <trkpt lat="47.531932" lon="7.711461">
        <ele>273.206593</ele>
        <time>2021-11-17T23:12:15.568Z</time>
      </trkpt>
      <trkpt lat="47.531434" lon="7.710621">
        <ele>273.743462</ele>
        <time>2021-11-17T23:12:29.263Z</time>
      </trkpt>
      <trkpt lat="47.531400" lon="7.710563">
        <ele>273.762730</ele>
        <time>2021-11-17T23:12:30.463Z</time>
      </trkpt>
      <trkpt lat="47.531289" lon="7.710373">
        <ele>273.825758</ele>
        <time>2021-11-17T23:12:33.336Z</time>
      </trkpt>
      <trkpt lat="47.531278" lon="7.710355">
        <ele>273.831849</ele>
        <time>2021-11-17T23:12:33.737Z</time>
      </trkpt>
      <trkpt lat="47.531138" lon="7.710116">
        <ele>273.911222</ele>
        <time>2021-11-17T23:12:37.456Z</time>
      </trkpt>
      <trkpt lat="47.531092" lon="7.710037">
        <ele>273.937392</ele>
        <time>2021-11-17T23:12:38.562Z</time>
      </trkpt>
      <trkpt lat="47.531010" lon="7.709856">
        <ele>273.992071</ele>
        <time>2021-11-17T23:12:40.994Z</time>
      </trkpt>
      <trkpt lat="47.530924" lon="7.709643">
        <ele>274.054329</ele>
        <time>2021-11-17T23:12:43.771Z</time>
      </trkpt>
      <trkpt lat="47.530863" lon="7.709389">
        <ele>274.121958</ele>
        <time>2021-11-17T23:12:46.562Z</time>
      </trkpt>
      <trkpt lat="47.530680" lon="7.709102">
        <ele>274.220985</ele>
        <time>2021-11-17T23:12:50.638Z</time>
      </trkpt>
      <trkpt lat="47.530477" lon="7.708668">
        <ele>274.314792</ele>
        <time>2021-11-17T23:12:55.820Z</time>
      </trkpt>
      <trkpt lat="47.530376" lon="7.708542">
        <ele>274.293935</ele>
        <time>2021-11-17T23:12:57.646Z</time>
      </trkpt>
      <trkpt lat="47.530090" lon="7.708115">
        <ele>274.229796</ele>
        <time>2021-11-17T23:13:03.035Z</time>
      </trkpt>
      <trkpt lat="47.530040" lon="7.708071">
        <ele>274.220610</ele>
        <time>2021-11-17T23:13:03.798Z</time>
      </trkpt>
      <trkpt lat="47.529814" lon="7.708010">
        <ele>274.184328</ele>
        <time>2021-11-17T23:13:07.041Z</time>
      </trkpt>
      <trkpt lat="47.528916" lon="7.707267">
        <ele>274.055225</ele>
        <time>2021-11-17T23:13:21.856Z</time>
      </trkpt>
      <trkpt lat="47.528783" lon="7.707096">
        <ele>274.072948</ele>
        <time>2021-11-17T23:13:24.640Z</time>
      </trkpt>
      <trkpt lat="47.528280" lon="7.706338">
        <ele>274.145162</ele>
        <time>2021-11-17T23:13:35.427Z</time>
      </trkpt>
      <trkpt lat="47.527953" lon="7.705596">
        <ele>274.205369</ele>
        <time>2021-11-17T23:13:44.302Z</time>
      </trkpt>
      <trkpt lat="47.527843" lon="7.705480">
        <ele>274.218958</ele>
        <time>2021-11-17T23:13:46.816Z</time>
      </trkpt>
      <trkpt lat="47.527726" lon="7.705561">
        <ele>274.282669</ele>
        <time>2021-11-17T23:13:48.737Z</time>
      </trkpt>
      <trkpt lat="47.527591" lon="7.705744">
        <ele>274.408282</ele>
        <time>2021-11-17T23:13:51.793Z</time>
      </trkpt>
      <trkpt lat="47.527501" lon="7.705847">
        <ele>274.486349</ele>
        <time>2021-11-17T23:13:53.595Z</time>
      </trkpt>
      <trkpt lat="47.527348" lon="7.705987">
        <ele>274.609790</ele>
        <time>2021-11-17T23:13:56.229Z</time>
      </trkpt>
      <trkpt lat="47.527314" lon="7.705980">
        <ele>274.633351</ele>
        <time>2021-11-17T23:13:57.085Z</time>
      </trkpt>
      <trkpt lat="47.526914" lon="7.705009">
        <ele>275.160503</ele>
        <time>2021-11-17T23:14:09.647Z</time>
      </trkpt>
      <trkpt lat="47.526775" lon="7.704691">
        <ele>275.336068</ele>
        <time>2021-11-17T23:14:14.136Z</time>
      </trkpt>
      <trkpt lat="47.526360" lon="7.704025">
        <ele>276.960739</ele>
        <time>2021-11-17T23:14:27.622Z</time>
      </trkpt>
      <trkpt lat="47.526313" lon="7.703953">
        <ele>277.194573</ele>
        <time>2021-11-17T23:14:29.236Z</time>
      </trkpt>
      <trkpt lat="47.526010" lon="7.703497">
        <ele>278.688402</ele>
        <time>2021-11-17T23:14:41.405Z</time>
      </trkpt>
      <trkpt lat="47.525589" lon="7.702861">
        <ele>280.768019</ele>
        <time>2021-11-17T23:15:01.776Z</time>
      </trkpt>
      <trkpt lat="47.525119" lon="7.702443">
        <ele>282.837849</ele>
        <time>2021-11-17T23:15:20.056Z</time>
      </trkpt>
      <trkpt lat="47.524997" lon="7.702331">
        <ele>283.421774</ele>
        <time>2021-11-17T23:15:25.652Z</time>
      </trkpt>
      <trkpt lat="47.524706" lon="7.702264">
        <ele>284.619788</ele>
        <time>2021-11-17T23:15:35.676Z</time>
      </trkpt>
      <trkpt lat="47.524615" lon="7.702250">
        <ele>284.991969</ele>
        <time>2021-11-17T23:15:38.824Z</time>
      </trkpt>
      <trkpt lat="47.524401" lon="7.702218">
        <ele>285.866951</ele>
        <time>2021-11-17T23:15:45.117Z</time>
      </trkpt>
      <trkpt lat="47.524013" lon="7.702161">
        <ele>287.453087</ele>
        <time>2021-11-17T23:15:57.142Z</time>
      </trkpt>
      <trkpt lat="47.523926" lon="7.702155">
        <ele>287.807388</ele>
        <time>2021-11-17T23:16:00.032Z</time>
      </trkpt>
      <trkpt lat="47.523800" lon="7.702197">
        <ele>288.332782</ele>
        <time>2021-11-17T23:16:03.687Z</time>
      </trkpt>
      <trkpt lat="47.523758" lon="7.702269">
        <ele>288.594148</ele>
        <time>2021-11-17T23:16:05.130Z</time>
      </trkpt>
      <trkpt lat="47.523683" lon="7.702416">
        <ele>289.025812</ele>
        <time>2021-11-17T23:16:08.771Z</time>
      </trkpt>
      <trkpt lat="47.523539" lon="7.702744">
        <ele>289.345355</ele>
        <time>2021-11-17T23:16:15.693Z</time>
      </trkpt>
      <trkpt lat="47.523476" lon="7.702988">
        <ele>289.558720</ele>
        <time>2021-11-17T23:16:19.280Z</time>
      </trkpt>
      <trkpt lat="47.523207" lon="7.702948">
        <ele>289.885719</ele>
        <time>2021-11-17T23:16:24.237Z</time>
      </trkpt>
      <trkpt lat="47.523064" lon="7.702927">
        <ele>290.059530</ele>
        <time>2021-11-17T23:16:27.301Z</time>
      </trkpt>
      <trkpt lat="47.522974" lon="7.702913">
        <ele>290.168987</ele>
        <time>2021-11-17T23:16:28.563Z</time>
      </trkpt>
      <trkpt lat="47.522297" lon="7.702808">
        <ele>290.992317</ele>
        <time>2021-11-17T23:16:39.630Z</time>
      </trkpt>
      <trkpt lat="47.521475" lon="7.702832">
        <ele>291.524582</ele>
        <time>2021-11-17T23:16:53.157Z</time>
      </trkpt>
      <trkpt lat="47.521318" lon="7.702862">
        <ele>291.607732</ele>
        <time>2021-11-17T23:16:55.812Z</time>
      </trkpt>
      <trkpt lat="47.521249" lon="7.702881">
        <ele>291.644596</ele>
        <time>2021-11-17T23:16:57.259Z</time>
      </trkpt>
      <trkpt lat="47.520558" lon="7.703039">
        <ele>292.011853</ele>
        <time>2021-11-17T23:17:09.152Z</time>
      </trkpt>
      <trkpt lat="47.520529" lon="7.703049">
        <ele>292.027494</ele>
        <time>2021-11-17T23:17:09.914Z</time>
      </trkpt>
      <trkpt lat="47.520070" lon="7.703148">
        <ele>292.180887</ele>
        <time>2021-11-17T23:17:17.757Z</time>
      </trkpt>
      <trkpt lat="47.519889" lon="7.703086">
        <ele>292.222220</ele>
        <time>2021-11-17T23:17:20.762Z</time>
      </trkpt>
      <trkpt lat="47.519841" lon="7.703049">
        <ele>292.234260</ele>
        <time>2021-11-17T23:17:21.907Z</time>
      </trkpt>
      <trkpt lat="47.519785" lon="7.702990">
        <ele>292.249551</ele>
        <time>2021-11-17T23:17:23.015Z</time>
      </trkpt>
      <trkpt lat="47.519733" lon="7.702919">
        <ele>292.265288</ele>
        <time>2021-11-17T23:17:24.018Z</time>
      </trkpt>
      <trkpt lat="47.519674" lon="7.702803">
        <ele>292.287107</ele>
        <time>2021-11-17T23:17:25.374Z</time>
      </trkpt>
      <trkpt lat="47.519636" lon="7.702692">
        <ele>292.305805</ele>
        <time>2021-11-17T23:17:26.401Z</time>
      </trkpt>
      <trkpt lat="47.519594" lon="7.702549">
        <ele>292.329235</ele>
        <time>2021-11-17T23:17:28.387Z</time>
      </trkpt>
      <trkpt lat="47.519430" lon="7.701959">
        <ele>292.425099</ele>
        <time>2021-11-17T23:17:35.075Z</time>
      </trkpt>
      <trkpt lat="47.519352" lon="7.701645">
        <ele>292.475369</ele>
        <time>2021-11-17T23:17:38.478Z</time>
      </trkpt>
      <trkpt lat="47.519286" lon="7.701329">
        <ele>292.508721</ele>
        <time>2021-11-17T23:17:41.936Z</time>
      </trkpt>
      <trkpt lat="47.519258" lon="7.701170">
        <ele>292.494322</ele>
        <time>2021-11-17T23:17:43.436Z</time>
      </trkpt>
      <trkpt lat="47.519233" lon="7.701014">
        <ele>292.480271</ele>
        <time>2021-11-17T23:17:45.159Z</time>
      </trkpt>
      <trkpt lat="47.519210" lon="7.700830">
        <ele>292.463873</ele>
        <time>2021-11-17T23:17:46.991Z</time>
      </trkpt>
      <trkpt lat="47.519195" lon="7.700709">
        <ele>292.453092</ele>
        <time>2021-11-17T23:17:48.110Z</time>
      </trkpt>
      <trkpt lat="47.519193" lon="7.700688">
        <ele>292.451234</ele>
        <time>2021-11-17T23:17:48.243Z</time>
      </trkpt>
      <trkpt lat="47.519157" lon="7.700380">
        <ele>292.423841</ele>
        <time>2021-11-17T23:17:51.260Z</time>
      </trkpt>
      <trkpt lat="47.519132" lon="7.700172">
        <ele>292.405327</ele>
        <time>2021-11-17T23:17:53.067Z</time>
      </trkpt>
      <trkpt lat="47.519087" lon="7.699786">
        <ele>292.371000</ele>
        <time>2021-11-17T23:17:56.707Z</time>
      </trkpt>
      <trkpt lat="47.519042" lon="7.699496">
        <ele>292.344925</ele>
        <time>2021-11-17T23:17:59.366Z</time>
      </trkpt>
      <trkpt lat="47.518952" lon="7.699040">
        <ele>292.303292</ele>
        <time>2021-11-17T23:18:03.999Z</time>
      </trkpt>
      <trkpt lat="47.518806" lon="7.698235">
        <ele>292.600678</ele>
        <time>2021-11-17T23:18:13.383Z</time>
      </trkpt>
      <trkpt lat="47.518776" lon="7.698074">
        <ele>292.692138</ele>
        <time>2021-11-17T23:18:15.062Z</time>
      </trkpt>
      <trkpt lat="47.518729" lon="7.697828">
        <ele>292.832137</ele>
        <time>2021-11-17T23:18:18.185Z</time>
      </trkpt>
      <trkpt lat="47.518589" lon="7.696973">
        <ele>293.313911</ele>
        <time>2021-11-17T23:18:28.794Z</time>
      </trkpt>
      <trkpt lat="47.518568" lon="7.696830">
        <ele>293.394050</ele>
        <time>2021-11-17T23:18:30.525Z</time>
      </trkpt>
      <trkpt lat="47.518460" lon="7.696098">
        <ele>293.878378</ele>
        <time>2021-11-17T23:18:41.197Z</time>
      </trkpt>
      <trkpt lat="47.518415" lon="7.695818">
        <ele>294.216688</ele>
        <time>2021-11-17T23:18:44.375Z</time>
      </trkpt>
      <trkpt lat="47.518400" lon="7.695716">
        <ele>294.339391</ele>
        <time>2021-11-17T23:18:46.836Z</time>
      </trkpt>
      <trkpt lat="47.518365" lon="7.695509">
        <ele>294.590214</ele>
        <time>2021-11-17T23:18:49.916Z</time>
      </trkpt>
      <trkpt lat="47.518320" lon="7.695198">
        <ele>294.964068</ele>
        <time>2021-11-17T23:18:54.876Z</time>
      </trkpt>
      <trkpt lat="47.518310" lon="7.695086">
        <ele>295.096862</ele>
        <time>2021-11-17T23:18:56.440Z</time>
      </trkpt>
      <trkpt lat="47.518299" lon="7.694930">
        <ele>295.281226</ele>
        <time>2021-11-17T23:18:57.974Z</time>
      </trkpt>
      <trkpt lat="47.518294" lon="7.694610">
        <ele>295.657464</ele>
        <time>2021-11-17T23:19:02.913Z</time>
      </trkpt>
      <trkpt lat="47.518253" lon="7.694150">
        <ele>296.202850</ele>
        <time>2021-11-17T23:19:09.518Z</time>
      </trkpt>
      <trkpt lat="47.518232" lon="7.693988">
        <ele>296.396745</ele>
        <time>2021-11-17T23:19:11.717Z</time>
      </trkpt>
      <trkpt lat="47.518146" lon="7.693998">
        <ele>296.546886</ele>
        <time>2021-11-17T23:19:13.033Z</time>
      </trkpt>
      <trkpt lat="47.518045" lon="7.694057">
        <ele>296.735858</ele>
        <time>2021-11-17T23:19:15.523Z</time>
      </trkpt>
      <trkpt lat="47.517957" lon="7.694109">
        <ele>296.942858</ele>
        <time>2021-11-17T23:19:18.983Z</time>
      </trkpt>
      <trkpt lat="47.517646" lon="7.694392">
        <ele>298.454967</ele>
        <time>2021-11-17T23:19:28.517Z</time>
      </trkpt>
      <trkpt lat="47.517503" lon="7.694516">
        <ele>299.141428</ele>
        <time>2021-11-17T23:19:31.631Z</time>
      </trkpt>
      <trkpt lat="47.517239" lon="7.694746">
        <ele>300.410269</ele>
        <time>2021-11-17T23:19:41.488Z</time>
      </trkpt>
      <trkpt lat="47.517157" lon="7.694812">
        <ele>300.796885</ele>
        <time>2021-11-17T23:19:43.992Z</time>
      </trkpt>
      <trkpt lat="47.517084" lon="7.694861">
        <ele>301.128899</ele>
        <time>2021-11-17T23:19:47.823Z</time>
      </trkpt>
      <trkpt lat="47.516829" lon="7.694882">
        <ele>302.186834</ele>
        <time>2021-11-17T23:19:56.650Z</time>
      </trkpt>
      <trkpt lat="47.516717" lon="7.694874">
        <ele>302.651319</ele>
        <time>2021-11-17T23:20:02.642Z</time>
      </trkpt>
      <trkpt lat="47.516677" lon="7.694863">
        <ele>302.819847</ele>
        <time>2021-11-17T23:20:04.546Z</time>
      </trkpt>
      <trkpt lat="47.516556" lon="7.694611">
        <ele>303.684870</ele>
        <time>2021-11-17T23:20:11.703Z</time>
      </trkpt>
      <trkpt lat="47.516523" lon="7.694583">
        <ele>303.842422</ele>
        <time>2021-11-17T23:20:13.691Z</time>
      </trkpt>
      <trkpt lat="47.516457" lon="7.694583">
        <ele>304.115818</ele>
        <time>2021-11-17T23:20:17.414Z</time>
      </trkpt>
      <trkpt lat="47.516171" lon="7.694629">
        <ele>305.673470</ele>
        <time>2021-11-17T23:20:29.343Z</time>
      </trkpt>
      <trkpt lat="47.516061" lon="7.694636">
        <ele>306.298727</ele>
        <time>2021-11-17T23:20:35.495Z</time>
      </trkpt>
      <trkpt lat="47.515914" lon="7.694689">
        <ele>307.157921</ele>
        <time>2021-11-17T23:20:41.903Z</time>
      </trkpt>
      <trkpt lat="47.515594" lon="7.694838">
        <ele>309.062914</ele>
        <time>2021-11-17T23:20:57.707Z</time>
      </trkpt>
      <trkpt lat="47.515415" lon="7.694867">
        <ele>310.085507</ele>
        <time>2021-11-17T23:21:05.613Z</time>
      </trkpt>
      <trkpt lat="47.515285" lon="7.694889">
        <ele>310.828572</ele>
        <time>2021-11-17T23:21:11.874Z</time>
      </trkpt>
      <trkpt lat="47.515054" lon="7.694872">
        <ele>312.142020</ele>
        <time>2021-11-17T23:21:21.297Z</time>
      </trkpt>
      <trkpt lat="47.514816" lon="7.694816">
        <ele>313.510562</ele>
        <time>2021-11-17T23:21:31.111Z</time>
      </trkpt>
      <trkpt lat="47.514725" lon="7.694795">
        <ele>314.033582</ele>
        <time>2021-11-17T23:21:34.501Z</time>
      </trkpt>
      <trkpt lat="47.514592" lon="7.694781">
        <ele>314.709626</ele>
        <time>2021-11-17T23:21:40.176Z</time>
      </trkpt>
      <trkpt lat="47.514455" lon="7.694618">
        <ele>315.390733</ele>
        <time>2021-11-17T23:21:46.720Z</time>
      </trkpt>
      <trkpt lat="47.513936" lon="7.693997">
        <ele>317.976743</ele>
        <time>2021-11-17T23:22:09.775Z</time>
      </trkpt>
      <trkpt lat="47.513623" lon="7.693653">
        <ele>319.487401</ele>
        <time>2021-11-17T23:22:23.380Z</time>
      </trkpt>
      <trkpt lat="47.512753" lon="7.693164">
        <ele>323.729534</ele>
        <time>2021-11-17T23:22:55.205Z</time>
      </trkpt>
      <trkpt lat="47.512654" lon="7.693072">
        <ele>324.363852</ele>
        <time>2021-11-17T23:22:59.911Z</time>
      </trkpt>
      <trkpt lat="47.512475" lon="7.692907">
        <ele>325.508141</ele>
        <time>2021-11-17T23:23:08.637Z</time>
      </trkpt>
      <trkpt lat="47.511838" lon="7.691791">
        <ele>330.863835</ele>
        <time>2021-11-17T23:23:51.494Z</time>
      </trkpt>
      <trkpt lat="47.511667" lon="7.691581">
        <ele>332.601595</ele>
        <time>2021-11-17T23:24:03.915Z</time>
      </trkpt>
      <trkpt lat="47.511548" lon="7.691477">
        <ele>333.848430</ele>
        <time>2021-11-17T23:24:10.633Z</time>
      </trkpt>
      <trkpt lat="47.511185" lon="7.691269">
        <ele>337.360477</ele>
        <time>2021-11-17T23:24:30.227Z</time>
      </trkpt>
      <trkpt lat="47.510865" lon="7.691084">
        <ele>340.460119</ele>
        <time>2021-11-17T23:24:48.104Z</time>
      </trkpt>
      <trkpt lat="47.510633" lon="7.690805">
        <ele>343.156998</ele>
        <time>2021-11-17T23:25:04.286Z</time>
      </trkpt>
      <trkpt lat="47.510637" lon="7.690723">
        <ele>343.658050</ele>
        <time>2021-11-17T23:25:07.068Z</time>
      </trkpt>
      <trkpt lat="47.510606" lon="7.690494">
        <ele>345.081447</ele>
        <time>2021-11-17T23:25:16.695Z</time>
      </trkpt>
      <trkpt lat="47.510602" lon="7.690223">
        <ele>346.733456</ele>
        <time>2021-11-17T23:25:26.956Z</time>
      </trkpt>
      <trkpt lat="47.510403" lon="7.689323">
        <ele>354.815425</ele>
        <time>2021-11-17T23:26:08.395Z</time>
      </trkpt>
      <trkpt lat="47.510313" lon="7.689084">
        <ele>357.252253</ele>
        <time>2021-11-17T23:26:21.446Z</time>
      </trkpt>
      <trkpt lat="47.510209" lon="7.688788">
        <ele>360.223576</ele>
        <time>2021-11-17T23:26:37.344Z</time>
      </trkpt>
      <trkpt lat="47.510147" lon="7.688532">
        <ele>362.645502</ele>
        <time>2021-11-17T23:26:50.081Z</time>
      </trkpt>
      <trkpt lat="47.510127" lon="7.688247">
        <ele>365.197235</ele>
        <time>2021-11-17T23:27:04.220Z</time>
      </trkpt>
      <trkpt lat="47.510130" lon="7.688042">
        <ele>367.023295</ele>
        <time>2021-11-17T23:27:12.823Z</time>
      </trkpt>
      <trkpt lat="47.510117" lon="7.687677">
        <ele>370.278325</ele>
        <time>2021-11-17T23:27:31.156Z</time>
      </trkpt>
      <trkpt lat="47.509884" lon="7.686341">
        <ele>383.435195</ele>
        <time>2021-11-17T23:28:36.378Z</time>
      </trkpt>
      <trkpt lat="47.509939" lon="7.685485">
        <ele>391.678621</ele>
        <time>2021-11-17T23:29:20.537Z</time>
      </trkpt>
      <trkpt lat="47.509798" lon="7.684144">
        <ele>404.920425</ele>
        <time>2021-11-17T23:30:23.930Z</time>
      </trkpt>
      <trkpt lat="47.509798" lon="7.683903">
        <ele>407.297973</ele>
        <time>2021-11-17T23:30:36.434Z</time>
      </trkpt>
      <trkpt lat="47.509852" lon="7.683665">
        <ele>409.774846</ele>
        <time>2021-11-17T23:30:49.640Z</time>
      </trkpt>
      <trkpt lat="47.509894" lon="7.683204">
        <ele>414.363947</ele>
        <time>2021-11-17T23:31:13.349Z</time>
      </trkpt>
      <trkpt lat="47.509891" lon="7.682887">
        <ele>417.491562</ele>
        <time>2021-11-17T23:31:28.768Z</time>
      </trkpt>
      <trkpt lat="47.509848" lon="7.682678">
        <ele>419.646942</ele>
        <time>2021-11-17T23:31:40.330Z</time>
      </trkpt>
      <trkpt lat="47.509706" lon="7.682330">
        <ele>423.536114</ele>
        <time>2021-11-17T23:32:00.107Z</time>
      </trkpt>
      <trkpt lat="47.509678" lon="7.682278">
        <ele>424.069343</ele>
        <time>2021-11-17T23:32:04.405Z</time>
      </trkpt>
      <trkpt lat="47.509450" lon="7.681851">
        <ele>428.433788</ele>
        <time>2021-11-17T23:32:31.821Z</time>
      </trkpt>
      <trkpt lat="47.509233" lon="7.681400">
        <ele>432.873778</ele>
        <time>2021-11-17T23:32:56.224Z</time>
      </trkpt>
      <trkpt lat="47.509095" lon="7.680864">
        <ele>437.473305</ele>
        <time>2021-11-17T23:33:21.531Z</time>
      </trkpt>
      <trkpt lat="47.509059" lon="7.680504">
        <ele>440.391425</ele>
        <time>2021-11-17T23:33:35.504Z</time>
      </trkpt>
      <trkpt lat="47.509244" lon="7.678419">
        <ele>451.527817</ele>
        <time>2021-11-17T23:34:38.845Z</time>
      </trkpt>
      <trkpt lat="47.509271" lon="7.678316">
        <ele>452.020346</ele>
        <time>2021-11-17T23:34:42.759Z</time>
      </trkpt>
      <trkpt lat="47.509362" lon="7.677972">
        <ele>453.667276</ele>
        <time>2021-11-17T23:34:49.902Z</time>
      </trkpt>
      <trkpt lat="47.509545" lon="7.677432">
        <ele>456.376793</ele>
        <time>2021-11-17T23:35:03.256Z</time>
      </trkpt>
      <trkpt lat="47.509746" lon="7.677084">
        <ele>458.671423</ele>
        <time>2021-11-17T23:35:13.386Z</time>
      </trkpt>
      <trkpt lat="47.509821" lon="7.676771">
        <ele>460.335770</ele>
        <time>2021-11-17T23:35:21.305Z</time>
      </trkpt>
      <trkpt lat="47.509879" lon="7.676596">
        <ele>461.312650</ele>
        <time>2021-11-17T23:35:29.061Z</time>
      </trkpt>
      <trkpt lat="47.510007" lon="7.676193">
        <ele>463.544381</ele>
        <time>2021-11-17T23:35:48.700Z</time>
      </trkpt>
      <trkpt lat="47.510078" lon="7.675938">
        <ele>464.926597</ele>
        <time>2021-11-17T23:36:00.844Z</time>
      </trkpt>
      <trkpt lat="47.510097" lon="7.675649">
        <ele>466.381733</ele>
        <time>2021-11-17T23:36:15.861Z</time>
      </trkpt>
      <trkpt lat="47.510093" lon="7.675605">
        <ele>466.604222</ele>
        <time>2021-11-17T23:36:18.423Z</time>
      </trkpt>
      <trkpt lat="47.510063" lon="7.675198">
        <ele>468.655967</ele>
        <time>2021-11-17T23:36:35.682Z</time>
      </trkpt>
      <trkpt lat="47.510013" lon="7.675071">
        <ele>469.392633</ele>
        <time>2021-11-17T23:36:45.656Z</time>
      </trkpt>
      <trkpt lat="47.509927" lon="7.674954">
        <ele>470.495107</ele>
        <time>2021-11-17T23:36:52.826Z</time>
      </trkpt>
      <trkpt lat="47.509860" lon="7.674889">
        <ele>471.294070</ele>
        <time>2021-11-17T23:36:59.096Z</time>
      </trkpt>
      <trkpt lat="47.509805" lon="7.674838">
        <ele>471.941364</ele>
        <time>2021-11-17T23:37:03.051Z</time>
      </trkpt>
      <trkpt lat="47.509752" lon="7.674789">
        <ele>472.564600</ele>
        <time>2021-11-17T23:37:10.726Z</time>
      </trkpt>
      <trkpt lat="47.509582" lon="7.674682">
        <ele>474.407069</ele>
        <time>2021-11-17T23:37:23.141Z</time>
      </trkpt>
      <trkpt lat="47.509546" lon="7.674682">
        <ele>474.766136</ele>
        <time>2021-11-17T23:37:27.245Z</time>
      </trkpt>
      <trkpt lat="47.509398" lon="7.674685">
        <ele>476.242437</ele>
        <time>2021-11-17T23:37:41.937Z</time>
      </trkpt>
      <trkpt lat="47.508679" lon="7.674698">
        <ele>483.414328</ele>
        <time>2021-11-17T23:38:40.586Z</time>
      </trkpt>
      <trkpt lat="47.508583" lon="7.674629">
        <ele>484.478721</ele>
        <time>2021-11-17T23:38:47.577Z</time>
      </trkpt>
      <trkpt lat="47.508515" lon="7.674474">
        <ele>485.723921</ele>
        <time>2021-11-17T23:38:56.881Z</time>
      </trkpt>
      <trkpt lat="47.508505" lon="7.674451">
        <ele>485.908204</ele>
        <time>2021-11-17T23:38:58.247Z</time>
      </trkpt>
      <trkpt lat="47.508425" lon="7.674070">
        <ele>487.923983</ele>
        <time>2021-11-17T23:39:17.288Z</time>
      </trkpt>
      <trkpt lat="47.508401" lon="7.673736">
        <ele>488.781439</ele>
        <time>2021-11-17T23:39:32.258Z</time>
      </trkpt>
      <trkpt lat="47.508436" lon="7.673406">
        <ele>489.634194</ele>
        <time>2021-11-17T23:39:44.505Z</time>
      </trkpt>
      <trkpt lat="47.508446" lon="7.672692">
        <ele>491.457306</ele>
        <time>2021-11-17T23:40:09.887Z</time>
      </trkpt>
      <trkpt lat="47.508497" lon="7.672266">
        <ele>492.561759</ele>
        <time>2021-11-17T23:40:23.731Z</time>
      </trkpt>
      <trkpt lat="47.508476" lon="7.671476">
        <ele>494.316731</ele>
        <time>2021-11-17T23:40:46.471Z</time>
      </trkpt>
      <trkpt lat="47.508439" lon="7.670868">
        <ele>494.347649</ele>
        <time>2021-11-17T23:40:59.670Z</time>
      </trkpt>
      <trkpt lat="47.508400" lon="7.670630">
        <ele>494.360052</ele>
        <time>2021-11-17T23:41:01.655Z</time>
      </trkpt>
      <trkpt lat="47.508334" lon="7.668961">
        <ele>494.444727</ele>
        <time>2021-11-17T23:41:18.138Z</time>
      </trkpt>
      <trkpt lat="47.508311" lon="7.668787">
        <ele>494.793060</ele>
        <time>2021-11-17T23:41:19.835Z</time>
      </trkpt>
      <trkpt lat="47.508285" lon="7.668641">
        <ele>495.149255</ele>
        <time>2021-11-17T23:41:21.077Z</time>
      </trkpt>
      <trkpt lat="47.508251" lon="7.668646">
        <ele>495.268583</ele>
        <time>2021-11-17T23:41:21.994Z</time>
      </trkpt>
      <trkpt lat="47.508215" lon="7.668664">
        <ele>495.401288</ele>
        <time>2021-11-17T23:41:22.999Z</time>
      </trkpt>
      <trkpt lat="47.508195" lon="7.668698">
        <ele>495.507648</ele>
        <time>2021-11-17T23:41:24.155Z</time>
      </trkpt>
      <trkpt lat="47.508096" lon="7.668696">
        <ele>495.853431</ele>
        <time>2021-11-17T23:41:26.273Z</time>
      </trkpt>
      <trkpt lat="47.507055" lon="7.668067">
        <ele>499.780227</ele>
        <time>2021-11-17T23:41:58.215Z</time>
      </trkpt>
      <trkpt lat="47.506716" lon="7.667934">
        <ele>501.372337</ele>
        <time>2021-11-17T23:42:11.618Z</time>
      </trkpt>
      <trkpt lat="47.506336" lon="7.667946">
        <ele>504.459168</ele>
        <time>2021-11-17T23:42:30.308Z</time>
      </trkpt>
      <trkpt lat="47.505893" lon="7.667768">
        <ele>508.187116</ele>
        <time>2021-11-17T23:42:54.839Z</time>
      </trkpt>
      <trkpt lat="47.505709" lon="7.667844">
        <ele>509.738529</ele>
        <time>2021-11-17T23:43:01.749Z</time>
      </trkpt>
      <trkpt lat="47.505364" lon="7.668163">
        <ele>513.042060</ele>
        <time>2021-11-17T23:43:20.494Z</time>
      </trkpt>
      <trkpt lat="47.505295" lon="7.668259">
        <ele>513.811089</ele>
        <time>2021-11-17T23:43:26.137Z</time>
      </trkpt>
      <trkpt lat="47.505273" lon="7.668282">
        <ele>514.029825</ele>
        <time>2021-11-17T23:43:28.967Z</time>
      </trkpt>
      <trkpt lat="47.505003" lon="7.668423">
        <ele>516.581534</ele>
        <time>2021-11-17T23:43:42.088Z</time>
      </trkpt>
      <trkpt lat="47.504784" lon="7.668451">
        <ele>518.763279</ele>
        <time>2021-11-17T23:43:54.544Z</time>
      </trkpt>
      <trkpt lat="47.503852" lon="7.668457">
        <ele>528.013800</ele>
        <time>2021-11-17T23:44:47.652Z</time>
      </trkpt>
      <trkpt lat="47.503644" lon="7.668446">
        <ele>530.079591</ele>
        <time>2021-11-17T23:44:57.353Z</time>
      </trkpt>
      <trkpt lat="47.503078" lon="7.668512">
        <ele>535.606699</ele>
        <time>2021-11-17T23:45:29.532Z</time>
      </trkpt>
      <trkpt lat="47.502894" lon="7.668475">
        <ele>537.370940</ele>
        <time>2021-11-17T23:45:38.390Z</time>
      </trkpt>
      <trkpt lat="47.502567" lon="7.667896">
        <ele>542.214817</ele>
        <time>2021-11-17T23:46:08.557Z</time>
      </trkpt>
      <trkpt lat="47.502382" lon="7.667723">
        <ele>544.293866</ele>
        <time>2021-11-17T23:46:18.797Z</time>
      </trkpt>
      <trkpt lat="47.502331" lon="7.667705">
        <ele>544.792000</ele>
        <time>2021-11-17T23:46:22.901Z</time>
      </trkpt>
      <trkpt lat="47.502292" lon="7.667688">
        <ele>545.178271</ele>
        <time>2021-11-17T23:46:25.980Z</time>
      </trkpt>
      <trkpt lat="47.502151" lon="7.667642">
        <ele>546.550063</ele>
        <time>2021-11-17T23:46:31.734Z</time>
      </trkpt>
      <trkpt lat="47.502006" lon="7.667624">
        <ele>547.932545</ele>
        <time>2021-11-17T23:46:38.766Z</time>
      </trkpt>
      <trkpt lat="47.501882" lon="7.667549">
        <ele>549.205225</ele>
        <time>2021-11-17T23:46:46.711Z</time>
      </trkpt>
      <trkpt lat="47.501738" lon="7.667367">
        <ele>550.892996</ele>
        <time>2021-11-17T23:46:53.673Z</time>
      </trkpt>
      <trkpt lat="47.501725" lon="7.667123">
        <ele>552.223844</ele>
        <time>2021-11-17T23:47:03.241Z</time>
      </trkpt>
      <trkpt lat="47.502047" lon="7.666538">
        <ele>556.326857</ele>
        <time>2021-11-17T23:47:25.429Z</time>
      </trkpt>
      <trkpt lat="47.502211" lon="7.666089">
        <ele>559.102227</ele>
        <time>2021-11-17T23:47:41.770Z</time>
      </trkpt>
      <trkpt lat="47.502398" lon="7.665168">
        <ele>564.331319</ele>
        <time>2021-11-17T23:48:13.124Z</time>
      </trkpt>
      <trkpt lat="47.502680" lon="7.664603">
        <ele>568.508854</ele>
        <time>2021-11-17T23:48:34.474Z</time>
      </trkpt>
      <trkpt lat="47.502656" lon="7.664371">
        <ele>569.919450</ele>
        <time>2021-11-17T23:48:41.957Z</time>
      </trkpt>
      <trkpt lat="47.502470" lon="7.664143">
        <ele>572.067925</ele>
        <time>2021-11-17T23:48:54.336Z</time>
      </trkpt>
      <trkpt lat="47.502341" lon="7.664057">
        <ele>573.326599</ele>
        <time>2021-11-17T23:49:02.423Z</time>
      </trkpt>
      <trkpt lat="47.502215" lon="7.663950">
        <ele>574.618928</ele>
        <time>2021-11-17T23:49:10.946Z</time>
      </trkpt>
      <trkpt lat="47.502113" lon="7.663831">
        <ele>575.774342</ele>
        <time>2021-11-17T23:49:17.403Z</time>
      </trkpt>
      <trkpt lat="47.501982" lon="7.663470">
        <ele>578.237213</ele>
        <time>2021-11-17T23:49:32.543Z</time>
      </trkpt>
      <trkpt lat="47.501929" lon="7.662724">
        <ele>581.955048</ele>
        <time>2021-11-17T23:49:58.475Z</time>
      </trkpt>
      <trkpt lat="47.501880" lon="7.662547">
        <ele>582.648192</ele>
        <time>2021-11-17T23:50:04.908Z</time>
      </trkpt>
      <trkpt lat="47.501814" lon="7.662406">
        <ele>583.269784</ele>
        <time>2021-11-17T23:50:09.188Z</time>
      </trkpt>
      <trkpt lat="47.501739" lon="7.662303">
        <ele>583.818545</ele>
        <time>2021-11-17T23:50:14.017Z</time>
      </trkpt>
      <trkpt lat="47.501540" lon="7.662165">
        <ele>584.997278</ele>
        <time>2021-11-17T23:50:23.243Z</time>
      </trkpt>
      <trkpt lat="47.501427" lon="7.662094">
        <ele>585.655735</ele>
        <time>2021-11-17T23:50:26.771Z</time>
      </trkpt>
      <trkpt lat="47.501357" lon="7.661880">
        <ele>586.517314</ele>
        <time>2021-11-17T23:50:30.871Z</time>
      </trkpt>
      <trkpt lat="47.501296" lon="7.661615">
        <ele>587.531797</ele>
        <time>2021-11-17T23:50:35.716Z</time>
      </trkpt>
      <trkpt lat="47.501272" lon="7.661516">
        <ele>587.912938</ele>
        <time>2021-11-17T23:50:37.531Z</time>
      </trkpt>
      <trkpt lat="47.501255" lon="7.661462">
        <ele>588.128819</ele>
        <time>2021-11-17T23:50:38.674Z</time>
      </trkpt>
      <trkpt lat="47.501224" lon="7.661406">
        <ele>588.391169</ele>
        <time>2021-11-17T23:50:39.923Z</time>
      </trkpt>
      <trkpt lat="47.501172" lon="7.661341">
        <ele>588.756237</ele>
        <time>2021-11-17T23:50:41.515Z</time>
      </trkpt>
      <trkpt lat="47.501134" lon="7.661306">
        <ele>588.996300</ele>
        <time>2021-11-17T23:50:42.672Z</time>
      </trkpt>
      <trkpt lat="47.500892" lon="7.661159">
        <ele>590.399396</ele>
        <time>2021-11-17T23:50:51.176Z</time>
      </trkpt>
      <trkpt lat="47.500378" lon="7.660739">
        <ele>592.645506</ele>
        <time>2021-11-17T23:51:08.612Z</time>
      </trkpt>
      <trkpt lat="47.500168" lon="7.660591">
        <ele>593.534963</ele>
        <time>2021-11-17T23:51:13.796Z</time>
      </trkpt>
      <trkpt lat="47.499828" lon="7.660558">
        <ele>594.837972</ele>
        <time>2021-11-17T23:51:22.718Z</time>
      </trkpt>
      <trkpt lat="47.499384" lon="7.660566">
        <ele>596.536028</ele>
        <time>2021-11-17T23:51:36.689Z</time>
      </trkpt>
      <trkpt lat="47.498649" lon="7.660737">
        <ele>600.501010</ele>
        <time>2021-11-17T23:52:05.230Z</time>
      </trkpt>
      <trkpt lat="47.498030" lon="7.660538">
        <ele>604.214614</ele>
        <time>2021-11-17T23:52:33.319Z</time>
      </trkpt>
      <trkpt lat="47.497005" lon="7.659684">
        <ele>609.614528</ele>
        <time>2021-11-17T23:53:13.964Z</time>
      </trkpt>
      <trkpt lat="47.496700" lon="7.659355">
        <ele>610.819491</ele>
        <time>2021-11-17T23:53:24.593Z</time>
      </trkpt>
      <trkpt lat="47.496419" lon="7.658896">
        <ele>612.155626</ele>
        <time>2021-11-17T23:53:35.240Z</time>
      </trkpt>
      <trkpt lat="47.495370" lon="7.658146">
        <ele>613.140765</ele>
        <time>2021-11-17T23:53:58.550Z</time>
      </trkpt>
      <trkpt lat="47.495295" lon="7.658106">
        <ele>613.093600</ele>
        <time>2021-11-17T23:53:59.958Z</time>
      </trkpt>
      <trkpt lat="47.495132" lon="7.658047">
        <ele>612.994323</ele>
        <time>2021-11-17T23:54:02.703Z</time>
      </trkpt>
      <trkpt lat="47.494878" lon="7.657874">
        <ele>612.828901</ele>
        <time>2021-11-17T23:54:05.858Z</time>
      </trkpt>
      <trkpt lat="47.493869" lon="7.656901">
        <ele>610.989136</ele>
        <time>2021-11-17T23:54:18.215Z</time>
      </trkpt>
      <trkpt lat="47.493727" lon="7.656848">
        <ele>610.650570</ele>
        <time>2021-11-17T23:54:19.648Z</time>
      </trkpt>
      <trkpt lat="47.493625" lon="7.656806">
        <ele>610.405802</ele>
        <time>2021-11-17T23:54:20.666Z</time>
      </trkpt>
      <trkpt lat="47.493454" lon="7.656654">
        <ele>609.944648</ele>
        <time>2021-11-17T23:54:22.899Z</time>
      </trkpt>
      <trkpt lat="47.493323" lon="7.656425">
        <ele>609.475944</ele>
        <time>2021-11-17T23:54:25.128Z</time>
      </trkpt>
      <trkpt lat="47.492960" lon="7.655784">
        <ele>608.454763</ele>
        <time>2021-11-17T23:54:31.822Z</time>
      </trkpt>
      <trkpt lat="47.492898" lon="7.656011">
        <ele>608.690889</ele>
        <time>2021-11-17T23:54:33.890Z</time>
      </trkpt>
      <trkpt lat="47.492834" lon="7.656127">
        <ele>608.835315</ele>
        <time>2021-11-17T23:54:35.187Z</time>
      </trkpt>
      <trkpt lat="47.492655" lon="7.656259">
        <ele>609.120758</ele>
        <time>2021-11-17T23:54:37.445Z</time>
      </trkpt>
      <trkpt lat="47.492368" lon="7.656441">
        <ele>609.566409</ele>
        <time>2021-11-17T23:54:43.435Z</time>
      </trkpt>
      <trkpt lat="47.492098" lon="7.656633">
        <ele>609.993954</ele>
        <time>2021-11-17T23:54:49.956Z</time>
      </trkpt>
      <trkpt lat="47.491848" lon="7.656926">
        <ele>610.449112</ele>
        <time>2021-11-17T23:54:58.536Z</time>
      </trkpt>
      <trkpt lat="47.491315" lon="7.657218">
        <ele>611.967061</ele>
        <time>2021-11-17T23:55:16.476Z</time>
      </trkpt>
      <trkpt lat="47.490868" lon="7.657356">
        <ele>613.945207</ele>
        <time>2021-11-17T23:55:31.543Z</time>
      </trkpt>
      <trkpt lat="47.490491" lon="7.657402">
        <ele>615.583961</ele>
        <time>2021-11-17T23:55:42.909Z</time>
      </trkpt>
      <trkpt lat="47.490095" lon="7.657387">
        <ele>617.300045</ele>
        <time>2021-11-17T23:55:55.015Z</time>
      </trkpt>
      <trkpt lat="47.489998" lon="7.657426">
        <ele>617.735494</ele>
        <time>2021-11-17T23:55:57.951Z</time>
      </trkpt>
      <trkpt lat="47.489839" lon="7.657570">
        <ele>618.543049</ele>
        <time>2021-11-17T23:56:04.616Z</time>
      </trkpt>
      <trkpt lat="47.489641" lon="7.657751">
        <ele>620.036372</ele>
        <time>2021-11-17T23:56:11.996Z</time>
      </trkpt>
      <trkpt lat="47.488222" lon="7.658466">
        <ele>630.252744</ele>
        <time>2021-11-17T23:57:16.242Z</time>
      </trkpt>
      <trkpt lat="47.488006" lon="7.658683">
        <ele>632.322843</ele>
        <time>2021-11-17T23:57:29.309Z</time>
      </trkpt>
      <trkpt lat="47.487823" lon="7.658963">
        <ele>634.605091</ele>
        <time>2021-11-17T23:57:42.838Z</time>
      </trkpt>
      <trkpt lat="47.487746" lon="7.659067">
        <ele>635.508958</ele>
        <time>2021-11-17T23:57:48.000Z</time>
      </trkpt>
      <trkpt lat="47.487696" lon="7.659164">
        <ele>636.223739</ele>
        <time>2021-11-17T23:57:52.462Z</time>
      </trkpt>
      <trkpt lat="47.487466" lon="7.659584">
        <ele>639.391057</ele>
        <time>2021-11-17T23:58:11.055Z</time>
      </trkpt>
      <trkpt lat="47.487708" lon="7.660023">
        <ele>642.710383</ele>
        <time>2021-11-17T23:58:30.462Z</time>
      </trkpt>
      <trkpt lat="47.487727" lon="7.660149">
        <ele>643.466761</ele>
        <time>2021-11-17T23:58:34.953Z</time>
      </trkpt>
      <trkpt lat="47.487727" lon="7.660396">
        <ele>644.913908</ele>
        <time>2021-11-17T23:58:43.540Z</time>
      </trkpt>
      <trkpt lat="47.487791" lon="7.660726">
        <ele>646.886417</ele>
        <time>2021-11-17T23:58:55.600Z</time>
      </trkpt>
      <trkpt lat="47.488398" lon="7.662127">
        <ele>655.601826</ele>
        <time>2021-11-17T23:59:46.029Z</time>
      </trkpt>
      <trkpt lat="47.488562" lon="7.662648">
        <ele>658.611722</ele>
        <time>2021-11-18T00:00:04.174Z</time>
      </trkpt>
      <trkpt lat="47.488788" lon="7.663703">
        <ele>663.975707</ele>
        <time>2021-11-18T00:00:37.278Z</time>
      </trkpt>
      <trkpt lat="47.488770" lon="7.663949">
        <ele>665.128388</ele>
        <time>2021-11-18T00:00:44.367Z</time>
      </trkpt>
      <trkpt lat="47.488654" lon="7.664239">
        <ele>666.698292</ele>
        <time>2021-11-18T00:00:53.955Z</time>
      </trkpt>
      <trkpt lat="47.488619" lon="7.664308">
        <ele>667.100212</ele>
        <time>2021-11-18T00:00:57.168Z</time>
      </trkpt>
      <trkpt lat="47.488583" lon="7.664379">
        <ele>667.513723</ele>
        <time>2021-11-18T00:00:59.254Z</time>
      </trkpt>
      <trkpt lat="47.488568" lon="7.664426">
        <ele>667.755863</ele>
        <time>2021-11-18T00:01:00.376Z</time>
      </trkpt>
      <trkpt lat="47.488554" lon="7.664485">
        <ele>668.047167</ele>
        <time>2021-11-18T00:01:01.908Z</time>
      </trkpt>
      <trkpt lat="47.488545" lon="7.664580">
        <ele>668.494051</ele>
        <time>2021-11-18T00:01:05.797Z</time>
      </trkpt>
      <trkpt lat="47.488490" lon="7.665159">
        <ele>671.217837</ele>
        <time>2021-11-18T00:01:21.603Z</time>
      </trkpt>
      <trkpt lat="47.488064" lon="7.665788">
        <ele>674.875679</ele>
        <time>2021-11-18T00:01:45.514Z</time>
      </trkpt>
      <trkpt lat="47.487374" lon="7.666070">
        <ele>678.829792</ele>
        <time>2021-11-18T00:02:12.267Z</time>
      </trkpt>
      <trkpt lat="47.487095" lon="7.666096">
        <ele>680.373988</ele>
        <time>2021-11-18T00:02:20.358Z</time>
      </trkpt>
      <trkpt lat="47.487040" lon="7.666069">
        <ele>680.694078</ele>
        <time>2021-11-18T00:02:22.483Z</time>
      </trkpt>
      <trkpt lat="47.486993" lon="7.666016">
        <ele>681.020484</ele>
        <time>2021-11-18T00:02:24.713Z</time>
      </trkpt>
      <trkpt lat="47.486777" lon="7.665741">
        <ele>682.594433</ele>
        <time>2021-11-18T00:02:35.593Z</time>
      </trkpt>
      <trkpt lat="47.486496" lon="7.665749">
        <ele>684.154271</ele>
        <time>2021-11-18T00:02:45.524Z</time>
      </trkpt>
      <trkpt lat="47.486336" lon="7.665642">
        <ele>685.129571</ele>
        <time>2021-11-18T00:02:52.602Z</time>
      </trkpt>
      <trkpt lat="47.485979" lon="7.664993">
        <ele>688.270804</ele>
        <time>2021-11-18T00:03:13.933Z</time>
      </trkpt>
      <trkpt lat="47.485810" lon="7.664592">
        <ele>690.044790</ele>
        <time>2021-11-18T00:03:25.047Z</time>
      </trkpt>
      <trkpt lat="47.485784" lon="7.664530">
        <ele>690.318692</ele>
        <time>2021-11-18T00:03:28.219Z</time>
      </trkpt>
      <trkpt lat="47.485656" lon="7.664426">
        <ele>691.129823</ele>
        <time>2021-11-18T00:03:32.963Z</time>
      </trkpt>
      <trkpt lat="47.485138" lon="7.664477">
        <ele>693.826159</ele>
        <time>2021-11-18T00:03:51.508Z</time>
      </trkpt>
      <trkpt lat="47.484870" lon="7.664431">
        <ele>695.088846</ele>
        <time>2021-11-18T00:04:01.999Z</time>
      </trkpt>
      <trkpt lat="47.484767" lon="7.664543">
        <ele>695.687056</ele>
        <time>2021-11-18T00:04:07.198Z</time>
      </trkpt>
      <trkpt lat="47.484557" lon="7.664979">
        <ele>697.380431</ele>
        <time>2021-11-18T00:04:20.613Z</time>
      </trkpt>
      <trkpt lat="47.484447" lon="7.664992">
        <ele>697.896886</ele>
        <time>2021-11-18T00:04:24.265Z</time>
      </trkpt>
      <trkpt lat="47.484129" lon="7.663998">
        <ele>701.362094</ele>
        <time>2021-11-18T00:04:45.119Z</time>
      </trkpt>
      <trkpt lat="47.483410" lon="7.662800">
        <ele>705.933671</ele>
        <time>2021-11-18T00:05:16.847Z</time>
      </trkpt>
      <trkpt lat="47.483387" lon="7.662711">
        <ele>706.205546</ele>
        <time>2021-11-18T00:05:19.420Z</time>
      </trkpt>
      <trkpt lat="47.483385" lon="7.662632">
        <ele>706.431113</ele>
        <time>2021-11-18T00:05:20.798Z</time>
      </trkpt>
      <trkpt lat="47.483510" lon="7.661814">
        <ele>708.824017</ele>
        <time>2021-11-18T00:05:40.170Z</time>
      </trkpt>
      <trkpt lat="47.483499" lon="7.661747">
        <ele>709.150785</ele>
        <time>2021-11-18T00:05:41.708Z</time>
      </trkpt>
      <trkpt lat="47.483475" lon="7.661696">
        <ele>709.452455</ele>
        <time>2021-11-18T00:05:43.624Z</time>
      </trkpt>
      <trkpt lat="47.483446" lon="7.661648">
        <ele>709.764990</ele>
        <time>2021-11-18T00:05:45.037Z</time>
      </trkpt>
      <trkpt lat="47.483407" lon="7.661609">
        <ele>710.103091</ele>
        <time>2021-11-18T00:05:46.586Z</time>
      </trkpt>
      <trkpt lat="47.483337" lon="7.661573">
        <ele>710.635390</ele>
        <time>2021-11-18T00:05:50.059Z</time>
      </trkpt>
      <trkpt lat="47.482820" lon="7.661376">
        <ele>714.470056</ele>
        <time>2021-11-18T00:06:11.284Z</time>
      </trkpt>
      <trkpt lat="47.481650" lon="7.660270">
        <ele>723.199857</ele>
        <time>2021-11-18T00:07:18.654Z</time>
      </trkpt>
      <trkpt lat="47.481441" lon="7.660134">
        <ele>724.081637</ele>
        <time>2021-11-18T00:07:28.868Z</time>
      </trkpt>
      <trkpt lat="47.480947" lon="7.659840">
        <ele>726.138044</ele>
        <time>2021-11-18T00:07:46.485Z</time>
      </trkpt>
      <trkpt lat="47.480453" lon="7.659599">
        <ele>728.146936</ele>
        <time>2021-11-18T00:08:00.510Z</time>
      </trkpt>
      <trkpt lat="47.479804" lon="7.659052">
        <ele>722.881609</ele>
        <time>2021-11-18T00:08:07.633Z</time>
      </trkpt>
      <trkpt lat="47.479124" lon="7.658616">
        <ele>715.734149</ele>
        <time>2021-11-18T00:08:13.913Z</time>
      </trkpt>
      <trkpt lat="47.479069" lon="7.658557">
        <ele>715.078965</ele>
        <time>2021-11-18T00:08:14.472Z</time>
      </trkpt>
      <trkpt lat="47.479037" lon="7.658508">
        <ele>714.634827</ele>
        <time>2021-11-18T00:08:14.845Z</time>
      </trkpt>
      <trkpt lat="47.478885" lon="7.658127">
        <ele>711.750986</ele>
        <time>2021-11-18T00:08:17.390Z</time>
      </trkpt>
      <trkpt lat="47.478869" lon="7.658105">
        <ele>711.540331</ele>
        <time>2021-11-18T00:08:17.574Z</time>
      </trkpt>
      <trkpt lat="47.478855" lon="7.658094">
        <ele>711.387452</ele>
        <time>2021-11-18T00:08:17.704Z</time>
      </trkpt>
      <trkpt lat="47.478819" lon="7.658086">
        <ele>710.926571</ele>
        <time>2021-11-18T00:08:18.006Z</time>
      </trkpt>
      <trkpt lat="47.478630" lon="7.658136">
        <ele>708.435546</ele>
        <time>2021-11-18T00:08:19.716Z</time>
      </trkpt>
      <trkpt lat="47.478528" lon="7.658207">
        <ele>706.973034</ele>
        <time>2021-11-18T00:08:20.636Z</time>
      </trkpt>
      <trkpt lat="47.478399" lon="7.658328">
        <ele>704.991368</ele>
        <time>2021-11-18T00:08:21.910Z</time>
      </trkpt>
      <trkpt lat="47.478311" lon="7.658423">
        <ele>703.578029</ele>
        <time>2021-11-18T00:08:22.863Z</time>
      </trkpt>
      <trkpt lat="47.478222" lon="7.658520">
        <ele>702.143857</ele>
        <time>2021-11-18T00:08:23.759Z</time>
      </trkpt>
      <trkpt lat="47.477975" lon="7.658805">
        <ele>698.079932</ele>
        <time>2021-11-18T00:08:26.398Z</time>
      </trkpt>
      <trkpt lat="47.477714" lon="7.659073">
        <ele>693.958059</ele>
        <time>2021-11-18T00:08:29.051Z</time>
      </trkpt>
      <trkpt lat="47.477346" lon="7.659332">
        <ele>688.670866</ele>
        <time>2021-11-18T00:08:32.513Z</time>
      </trkpt>
      <trkpt lat="47.477220" lon="7.659353">
        <ele>687.535655</ele>
        <time>2021-11-18T00:08:33.628Z</time>
      </trkpt>
      <trkpt lat="47.477160" lon="7.659316">
        <ele>687.125560</ele>
        <time>2021-11-18T00:08:34.177Z</time>
      </trkpt>
      <trkpt lat="47.477138" lon="7.659290">
        <ele>686.947922</ele>
        <time>2021-11-18T00:08:34.526Z</time>
      </trkpt>
      <trkpt lat="47.477102" lon="7.659181">
        <ele>686.430615</ele>
        <time>2021-11-18T00:08:35.569Z</time>
      </trkpt>
      <trkpt lat="47.477066" lon="7.659026">
        <ele>685.731750</ele>
        <time>2021-11-18T00:08:36.953Z</time>
      </trkpt>
      <trkpt lat="47.477025" lon="7.658869">
        <ele>685.014058</ele>
        <time>2021-11-18T00:08:38.392Z</time>
      </trkpt>
      <trkpt lat="47.476937" lon="7.658689">
        <ele>684.066781</ele>
        <time>2021-11-18T00:08:40.341Z</time>
      </trkpt>
      <trkpt lat="47.476789" lon="7.658596">
        <ele>683.052346</ele>
        <time>2021-11-18T00:08:42.504Z</time>
      </trkpt>
      <trkpt lat="47.476684" lon="7.658598">
        <ele>682.389860</ele>
        <time>2021-11-18T00:08:43.827Z</time>
      </trkpt>
      <trkpt lat="47.476609" lon="7.658624">
        <ele>681.903880</ele>
        <time>2021-11-18T00:08:44.900Z</time>
      </trkpt>
      <trkpt lat="47.476280" lon="7.658852">
        <ele>679.611851</ele>
        <time>2021-11-18T00:08:49.906Z</time>
      </trkpt>
      <trkpt lat="47.476193" lon="7.658883">
        <ele>679.047286</ele>
        <time>2021-11-18T00:08:51.143Z</time>
      </trkpt>
      <trkpt lat="47.476158" lon="7.658895">
        <ele>678.820624</ele>
        <time>2021-11-18T00:08:51.616Z</time>
      </trkpt>
      <trkpt lat="47.476012" lon="7.658932">
        <ele>677.886115</ele>
        <time>2021-11-18T00:08:53.602Z</time>
      </trkpt>
      <trkpt lat="47.475631" lon="7.658882">
        <ele>676.217666</ele>
        <time>2021-11-18T00:08:59.072Z</time>
      </trkpt>
      <trkpt lat="47.475506" lon="7.658879">
        <ele>675.919265</ele>
        <time>2021-11-18T00:09:00.897Z</time>
      </trkpt>
      <trkpt lat="47.475485" lon="7.658824">
        <ele>675.817353</ele>
        <time>2021-11-18T00:09:01.285Z</time>
      </trkpt>
      <trkpt lat="47.475375" lon="7.658713">
        <ele>675.499539</ele>
        <time>2021-11-18T00:09:02.680Z</time>
      </trkpt>
      <trkpt lat="47.475022" lon="7.658614">
        <ele>674.641959</ele>
        <time>2021-11-18T00:09:06.310Z</time>
      </trkpt>
      <trkpt lat="47.474815" lon="7.658597">
        <ele>674.147111</ele>
        <time>2021-11-18T00:09:08.532Z</time>
      </trkpt>
      <trkpt lat="47.474725" lon="7.658608">
        <ele>673.931559</ele>
        <time>2021-11-18T00:09:09.459Z</time>
      </trkpt>
      <trkpt lat="47.474502" lon="7.658671">
        <ele>673.389663</ele>
        <time>2021-11-18T00:09:12.194Z</time>
      </trkpt>
      <trkpt lat="47.474374" lon="7.658673">
        <ele>673.084123</ele>
        <time>2021-11-18T00:09:13.684Z</time>
      </trkpt>
      <trkpt lat="47.474283" lon="7.658674">
        <ele>672.866910</ele>
        <time>2021-11-18T00:09:14.706Z</time>
      </trkpt>
      <trkpt lat="47.473883" lon="7.658635">
        <ele>672.612907</ele>
        <time>2021-11-18T00:09:19.895Z</time>
      </trkpt>
      <trkpt lat="47.473725" lon="7.658562">
        <ele>672.811643</ele>
        <time>2021-11-18T00:09:22.920Z</time>
      </trkpt>
      <trkpt lat="47.473626" lon="7.658488">
        <ele>672.944816</ele>
        <time>2021-11-18T00:09:24.277Z</time>
      </trkpt>
      <trkpt lat="47.473566" lon="7.658404">
        <ele>673.043997</ele>
        <time>2021-11-18T00:09:25.501Z</time>
      </trkpt>
      <trkpt lat="47.473513" lon="7.658280">
        <ele>673.163060</ele>
        <time>2021-11-18T00:09:27.451Z</time>
      </trkpt>
      <trkpt lat="47.473421" lon="7.658372">
        <ele>673.296386</ele>
        <time>2021-11-18T00:09:30.134Z</time>
      </trkpt>
      <trkpt lat="47.473291" lon="7.658442">
        <ele>673.462486</ele>
        <time>2021-11-18T00:09:32.803Z</time>
      </trkpt>
      <trkpt lat="47.473172" lon="7.658463">
        <ele>673.606375</ele>
        <time>2021-11-18T00:09:36.288Z</time>
      </trkpt>
      <trkpt lat="47.473080" lon="7.658445">
        <ele>673.717796</ele>
        <time>2021-11-18T00:09:38.963Z</time>
      </trkpt>
      <trkpt lat="47.472996" lon="7.658403">
        <ele>673.824254</ele>
        <time>2021-11-18T00:09:40.736Z</time>
      </trkpt>
      <trkpt lat="47.472938" lon="7.658331">
        <ele>673.915158</ele>
        <time>2021-11-18T00:09:42.927Z</time>
      </trkpt>
      <trkpt lat="47.472791" lon="7.658077">
        <ele>674.186530</ele>
        <time>2021-11-18T00:09:50.147Z</time>
      </trkpt>
      <trkpt lat="47.472515" lon="7.657579">
        <ele>674.963853</ele>
        <time>2021-11-18T00:10:03.993Z</time>
      </trkpt>
      <trkpt lat="47.472110" lon="7.656801">
        <ele>676.941134</ele>
        <time>2021-11-18T00:10:27.223Z</time>
      </trkpt>
      <trkpt lat="47.471992" lon="7.656569">
        <ele>677.525762</ele>
        <time>2021-11-18T00:10:33.910Z</time>
      </trkpt>
      <trkpt lat="47.471543" lon="7.655643">
        <ele>679.820465</ele>
        <time>2021-11-18T00:10:58.384Z</time>
      </trkpt>
      <trkpt lat="47.470196" lon="7.652792">
        <ele>683.309746</ele>
        <time>2021-11-18T00:12:01.853Z</time>
      </trkpt>
      <trkpt lat="47.469818" lon="7.652243">
        <ele>683.461185</ele>
        <time>2021-11-18T00:12:13.668Z</time>
      </trkpt>
      <trkpt lat="47.469453" lon="7.651906">
        <ele>683.584187</ele>
        <time>2021-11-18T00:12:22.619Z</time>
      </trkpt>
      <trkpt lat="47.469233" lon="7.651510">
        <ele>683.521138</ele>
        <time>2021-11-18T00:12:29.001Z</time>
      </trkpt>
      <trkpt lat="47.468783" lon="7.650244">
        <ele>679.365096</ele>
        <time>2021-11-18T00:12:43.118Z</time>
      </trkpt>
      <trkpt lat="47.468342" lon="7.649503">
        <ele>676.496495</ele>
        <time>2021-11-18T00:12:51.961Z</time>
      </trkpt>
      <trkpt lat="47.468103" lon="7.649101">
        <ele>673.953308</ele>
        <time>2021-11-18T00:12:56.552Z</time>
      </trkpt>
      <trkpt lat="47.467764" lon="7.648726">
        <ele>670.338740</ele>
        <time>2021-11-18T00:13:01.798Z</time>
      </trkpt>
      <trkpt lat="47.467233" lon="7.648490">
        <ele>665.604302</ele>
        <time>2021-11-18T00:13:08.587Z</time>
      </trkpt>
      <trkpt lat="47.466467" lon="7.648086">
        <ele>659.079050</ele>
        <time>2021-11-18T00:13:18.672Z</time>
      </trkpt>
      <trkpt lat="47.466337" lon="7.648012">
        <ele>658.148710</ele>
        <time>2021-11-18T00:13:20.434Z</time>
      </trkpt>
      <trkpt lat="47.465940" lon="7.647735">
        <ele>655.216976</ele>
        <time>2021-11-18T00:13:26.035Z</time>
      </trkpt>
      <trkpt lat="47.465660" lon="7.647420">
        <ele>652.867450</ele>
        <time>2021-11-18T00:13:30.559Z</time>
      </trkpt>
      <trkpt lat="47.464677" lon="7.645735">
        <ele>644.191134</ele>
        <time>2021-11-18T00:13:50.934Z</time>
      </trkpt>
      <trkpt lat="47.463527" lon="7.644363">
        <ele>636.898024</ele>
        <time>2021-11-18T00:14:10.765Z</time>
      </trkpt>
      <trkpt lat="47.463179" lon="7.643999">
        <ele>634.903857</ele>
        <time>2021-11-18T00:14:16.559Z</time>
      </trkpt>
      <trkpt lat="47.462868" lon="7.643675">
        <ele>633.124079</ele>
        <time>2021-11-18T00:14:21.747Z</time>
      </trkpt>
      <trkpt lat="47.462346" lon="7.643246">
        <ele>630.675622</ele>
        <time>2021-11-18T00:14:30.067Z</time>
      </trkpt>
      <trkpt lat="47.461821" lon="7.642927">
        <ele>629.370979</ele>
        <time>2021-11-18T00:14:38.340Z</time>
      </trkpt>
      <trkpt lat="47.461684" lon="7.642870">
        <ele>629.043844</ele>
        <time>2021-11-18T00:14:40.516Z</time>
      </trkpt>
      <trkpt lat="47.461287" lon="7.642706">
        <ele>628.096361</ele>
        <time>2021-11-18T00:14:47.302Z</time>
      </trkpt>
      <trkpt lat="47.460769" lon="7.642491">
        <ele>626.868563</ele>
        <time>2021-11-18T00:14:56.526Z</time>
      </trkpt>
      <trkpt lat="47.460652" lon="7.642375">
        <ele>626.734057</ele>
        <time>2021-11-18T00:14:58.860Z</time>
      </trkpt>
      <trkpt lat="47.460535" lon="7.642209">
        <ele>626.579237</ele>
        <time>2021-11-18T00:15:01.785Z</time>
      </trkpt>
      <trkpt lat="47.460419" lon="7.642261">
        <ele>626.463490</ele>
        <time>2021-11-18T00:15:03.303Z</time>
      </trkpt>
      <trkpt lat="47.460338" lon="7.642274">
        <ele>626.385686</ele>
        <time>2021-11-18T00:15:04.250Z</time>
      </trkpt>
      <trkpt lat="47.460268" lon="7.642275">
        <ele>626.318838</ele>
        <time>2021-11-18T00:15:05.220Z</time>
      </trkpt>
      <trkpt lat="47.460185" lon="7.642266">
        <ele>626.239366</ele>
        <time>2021-11-18T00:15:06.242Z</time>
      </trkpt>
      <trkpt lat="47.459021" lon="7.641836">
        <ele>625.080891</ele>
        <time>2021-11-18T00:15:21.234Z</time>
      </trkpt>
      <trkpt lat="47.458698" lon="7.641686">
        <ele>624.692606</ele>
        <time>2021-11-18T00:15:25.260Z</time>
      </trkpt>
      <trkpt lat="47.458678" lon="7.641675">
        <ele>624.668133</ele>
        <time>2021-11-18T00:15:25.506Z</time>
      </trkpt>
      <trkpt lat="47.458278" lon="7.641384">
        <ele>624.156872</ele>
        <time>2021-11-18T00:15:30.588Z</time>
      </trkpt>
      <trkpt lat="47.457789" lon="7.640921">
        <ele>623.490951</ele>
        <time>2021-11-18T00:15:37.741Z</time>
      </trkpt>
      <trkpt lat="47.457516" lon="7.640674">
        <ele>623.123903</ele>
        <time>2021-11-18T00:15:41.730Z</time>
      </trkpt>
      <trkpt lat="47.457465" lon="7.640623">
        <ele>623.049186</ele>
        <time>2021-11-18T00:15:42.404Z</time>
      </trkpt>
      <trkpt lat="47.457280" lon="7.640455">
        <ele>622.775316</ele>
        <time>2021-11-18T00:15:45.153Z</time>
      </trkpt>
      <trkpt lat="47.457054" lon="7.640289">
        <ele>622.456982</ele>
        <time>2021-11-18T00:15:48.003Z</time>
      </trkpt>
      <trkpt lat="47.456721" lon="7.640125">
        <ele>622.014207</ele>
        <time>2021-11-18T00:15:52.173Z</time>
      </trkpt>
      <trkpt lat="47.456617" lon="7.640059">
        <ele>621.871437</ele>
        <time>2021-11-18T00:15:53.834Z</time>
      </trkpt>
      <trkpt lat="47.456458" lon="7.639945">
        <ele>621.648523</ele>
        <time>2021-11-18T00:15:55.776Z</time>
      </trkpt>
      <trkpt lat="47.456258" lon="7.639801">
        <ele>621.367902</ele>
        <time>2021-11-18T00:15:58.396Z</time>
      </trkpt>
      <trkpt lat="47.456116" lon="7.639715">
        <ele>621.174324</ele>
        <time>2021-11-18T00:16:00.067Z</time>
      </trkpt>
      <trkpt lat="47.456084" lon="7.639695">
        <ele>621.130498</ele>
        <time>2021-11-18T00:16:00.447Z</time>
      </trkpt>
      <trkpt lat="47.455959" lon="7.639632">
        <ele>620.963899</ele>
        <time>2021-11-18T00:16:02.148Z</time>
      </trkpt>
      <trkpt lat="47.455509" lon="7.639383">
        <ele>620.403818</ele>
        <time>2021-11-18T00:16:07.786Z</time>
      </trkpt>
      <trkpt lat="47.455394" lon="7.639289">
        <ele>620.254382</ele>
        <time>2021-11-18T00:16:09.318Z</time>
      </trkpt>
      <trkpt lat="47.455336" lon="7.639241">
        <ele>620.178793</ele>
        <time>2021-11-18T00:16:10.205Z</time>
      </trkpt>
      <trkpt lat="47.455159" lon="7.639095">
        <ele>619.948297</ele>
        <time>2021-11-18T00:16:12.487Z</time>
      </trkpt>
      <trkpt lat="47.455045" lon="7.639015">
        <ele>619.804788</ele>
        <time>2021-11-18T00:16:13.955Z</time>
      </trkpt>
      <trkpt lat="47.454993" lon="7.638998">
        <ele>619.744221</ele>
        <time>2021-11-18T00:16:14.510Z</time>
      </trkpt>
      <trkpt lat="47.454931" lon="7.638993">
        <ele>619.673603</ele>
        <time>2021-11-18T00:16:15.235Z</time>
      </trkpt>
      <trkpt lat="47.454865" lon="7.639007">
        <ele>619.597773</ele>
        <time>2021-11-18T00:16:16.034Z</time>
      </trkpt>
      <trkpt lat="47.454822" lon="7.639022">
        <ele>619.547527</ele>
        <time>2021-11-18T00:16:16.557Z</time>
      </trkpt>
      <trkpt lat="47.454146" lon="7.639431">
        <ele>618.808981</ele>
        <time>2021-11-18T00:16:25.490Z</time>
      </trkpt>
      <trkpt lat="47.453840" lon="7.639415">
        <ele>618.970969</ele>
        <time>2021-11-18T00:16:29.774Z</time>
      </trkpt>
      <trkpt lat="47.453152" lon="7.639081">
        <ele>619.354062</ele>
        <time>2021-11-18T00:16:42.752Z</time>
      </trkpt>
      <trkpt lat="47.453069" lon="7.639048">
        <ele>619.399532</ele>
        <time>2021-11-18T00:16:44.418Z</time>
      </trkpt>
      <trkpt lat="47.452952" lon="7.639007">
        <ele>619.463144</ele>
        <time>2021-11-18T00:16:46.641Z</time>
      </trkpt>
      <trkpt lat="47.452743" lon="7.638948">
        <ele>619.575711</ele>
        <time>2021-11-18T00:16:50.810Z</time>
      </trkpt>
      <trkpt lat="47.452050" lon="7.638797">
        <ele>620.071948</ele>
        <time>2021-11-18T00:17:04.258Z</time>
      </trkpt>
      <trkpt lat="47.450110" lon="7.638156">
        <ele>621.487141</ele>
        <time>2021-11-18T00:17:39.630Z</time>
      </trkpt>
      <trkpt lat="47.449128" lon="7.637956">
        <ele>621.900180</ele>
        <time>2021-11-18T00:17:55.636Z</time>
      </trkpt>
      <trkpt lat="47.448933" lon="7.637860">
        <ele>621.985816</ele>
        <time>2021-11-18T00:17:58.886Z</time>
      </trkpt>
      <trkpt lat="47.448686" lon="7.637727">
        <ele>621.957698</ele>
        <time>2021-11-18T00:18:02.829Z</time>
      </trkpt>
      <trkpt lat="47.447161" lon="7.636799">
        <ele>621.822735</ele>
        <time>2021-11-18T00:18:25.944Z</time>
      </trkpt>
      <trkpt lat="47.446601" lon="7.636513">
        <ele>622.097833</ele>
        <time>2021-11-18T00:18:34.728Z</time>
      </trkpt>
      <trkpt lat="47.446161" lon="7.636283">
        <ele>622.314529</ele>
        <time>2021-11-18T00:18:42.527Z</time>
      </trkpt>
      <trkpt lat="47.445883" lon="7.636077">
        <ele>622.458915</ele>
        <time>2021-11-18T00:18:47.992Z</time>
      </trkpt>
      <trkpt lat="47.445026" lon="7.635048">
        <ele>623.565000</ele>
        <time>2021-11-18T00:19:10.200Z</time>
      </trkpt>
      <trkpt lat="47.444765" lon="7.634765">
        <ele>623.960770</ele>
        <time>2021-11-18T00:19:16.841Z</time>
      </trkpt>
      <trkpt lat="47.443593" lon="7.633722">
        <ele>625.563852</ele>
        <time>2021-11-18T00:19:43.076Z</time>
      </trkpt>
      <trkpt lat="47.443538" lon="7.633673">
        <ele>625.635753</ele>
        <time>2021-11-18T00:19:44.279Z</time>
      </trkpt>
      <trkpt lat="47.442593" lon="7.632506">
        <ele>626.997190</ele>
        <time>2021-11-18T00:20:08.440Z</time>
      </trkpt>
      <trkpt lat="47.441875" lon="7.631629">
        <ele>627.946756</ele>
        <time>2021-11-18T00:20:25.096Z</time>
      </trkpt>
      <trkpt lat="47.441749" lon="7.631464">
        <ele>628.118368</ele>
        <time>2021-11-18T00:20:28.489Z</time>
      </trkpt>
      <trkpt lat="47.441653" lon="7.631281">
        <ele>628.278075</ele>
        <time>2021-11-18T00:20:31.411Z</time>
      </trkpt>
      <trkpt lat="47.441088" lon="7.629797">
        <ele>629.561360</ele>
        <time>2021-11-18T00:20:54.326Z</time>
      </trkpt>
      <trkpt lat="47.441020" lon="7.629655">
        <ele>629.697742</ele>
        <time>2021-11-18T00:20:56.673Z</time>
      </trkpt>
      <trkpt lat="47.440936" lon="7.629531">
        <ele>629.835310</ele>
        <time>2021-11-18T00:20:59.046Z</time>
      </trkpt>
      <trkpt lat="47.440882" lon="7.629460">
        <ele>629.919059</ele>
        <time>2021-11-18T00:21:00.227Z</time>
      </trkpt>
      <trkpt lat="47.439370" lon="7.627732">
        <ele>631.733583</ele>
        <time>2021-11-18T00:21:36.626Z</time>
      </trkpt>
      <trkpt lat="47.439058" lon="7.627370">
        <ele>632.061220</ele>
        <time>2021-11-18T00:21:43.845Z</time>
      </trkpt>
      <trkpt lat="47.438827" lon="7.627241">
        <ele>632.178595</ele>
        <time>2021-11-18T00:21:47.890Z</time>
      </trkpt>
      <trkpt lat="47.438668" lon="7.627275">
        <ele>632.018605</ele>
        <time>2021-11-18T00:21:50.642Z</time>
      </trkpt>
      <trkpt lat="47.438593" lon="7.627324">
        <ele>631.936948</ele>
        <time>2021-11-18T00:21:51.642Z</time>
      </trkpt>
      <trkpt lat="47.438345" lon="7.627559">
        <ele>631.643600</ele>
        <time>2021-11-18T00:21:56.076Z</time>
      </trkpt>
      <trkpt lat="47.437942" lon="7.627847">
        <ele>631.197840</ele>
        <time>2021-11-18T00:22:01.584Z</time>
      </trkpt>
      <trkpt lat="47.437345" lon="7.627952">
        <ele>630.599117</ele>
        <time>2021-11-18T00:22:08.599Z</time>
      </trkpt>
      <trkpt lat="47.436404" lon="7.627730">
        <ele>627.597370</ele>
        <time>2021-11-18T00:22:18.357Z</time>
      </trkpt>
      <trkpt lat="47.436074" lon="7.627778">
        <ele>626.403153</ele>
        <time>2021-11-18T00:22:21.573Z</time>
      </trkpt>
      <trkpt lat="47.435838" lon="7.628041">
        <ele>625.338784</ele>
        <time>2021-11-18T00:22:24.404Z</time>
      </trkpt>
      <trkpt lat="47.435678" lon="7.628613">
        <ele>623.819552</ele>
        <time>2021-11-18T00:22:28.403Z</time>
      </trkpt>
      <trkpt lat="47.435451" lon="7.630353">
        <ele>619.114152</ele>
        <time>2021-11-18T00:22:40.113Z</time>
      </trkpt>
      <trkpt lat="47.435369" lon="7.631033">
        <ele>617.280063</ele>
        <time>2021-11-18T00:22:44.770Z</time>
      </trkpt>
      <trkpt lat="47.435279" lon="7.631606">
        <ele>615.601619</ele>
        <time>2021-11-18T00:22:48.725Z</time>
      </trkpt>
      <trkpt lat="47.435100" lon="7.632137">
        <ele>613.870535</ele>
        <time>2021-11-18T00:22:52.749Z</time>
      </trkpt>
      <trkpt lat="47.434993" lon="7.632378">
        <ele>613.029403</ele>
        <time>2021-11-18T00:22:54.708Z</time>
      </trkpt>
      <trkpt lat="47.434553" lon="7.633333">
        <ele>609.657918</ele>
        <time>2021-11-18T00:23:02.081Z</time>
      </trkpt>
      <trkpt lat="47.434170" lon="7.634291">
        <ele>606.101945</ele>
        <time>2021-11-18T00:23:09.087Z</time>
      </trkpt>
      <trkpt lat="47.434143" lon="7.634386">
        <ele>605.767209</ele>
        <time>2021-11-18T00:23:09.701Z</time>
      </trkpt>
      <trkpt lat="47.434111" lon="7.634539">
        <ele>605.246981</ele>
        <time>2021-11-18T00:23:10.703Z</time>
      </trkpt>
      <trkpt lat="47.434062" lon="7.634912">
        <ele>604.012668</ele>
        <time>2021-11-18T00:23:13.141Z</time>
      </trkpt>
      <trkpt lat="47.434050" lon="7.635138">
        <ele>603.276258</ele>
        <time>2021-11-18T00:23:14.611Z</time>
      </trkpt>
      <trkpt lat="47.434051" lon="7.635282">
        <ele>602.808455</ele>
        <time>2021-11-18T00:23:15.580Z</time>
      </trkpt>
      <trkpt lat="47.434114" lon="7.635859">
        <ele>600.909835</ele>
        <time>2021-11-18T00:23:19.465Z</time>
      </trkpt>
      <trkpt lat="47.434285" lon="7.636434">
        <ele>599.422875</ele>
        <time>2021-11-18T00:23:23.558Z</time>
      </trkpt>
      <trkpt lat="47.434520" lon="7.636876">
        <ele>598.216428</ele>
        <time>2021-11-18T00:23:27.558Z</time>
      </trkpt>
      <trkpt lat="47.435033" lon="7.637576">
        <ele>596.001651</ele>
        <time>2021-11-18T00:23:35.394Z</time>
      </trkpt>
      <trkpt lat="47.435270" lon="7.638186">
        <ele>594.172695</ele>
        <time>2021-11-18T00:23:40.071Z</time>
      </trkpt>
      <trkpt lat="47.435277" lon="7.638451">
        <ele>593.001661</ele>
        <time>2021-11-18T00:23:41.691Z</time>
      </trkpt>
      <trkpt lat="47.435185" lon="7.638618">
        <ele>592.050631</ele>
        <time>2021-11-18T00:23:43.169Z</time>
      </trkpt>
      <trkpt lat="47.435017" lon="7.638652">
        <ele>590.943713</ele>
        <time>2021-11-18T00:23:44.696Z</time>
      </trkpt>
      <trkpt lat="47.434725" lon="7.638524">
        <ele>588.955531</ele>
        <time>2021-11-18T00:23:47.579Z</time>
      </trkpt>
      <trkpt lat="47.434422" lon="7.638371">
        <ele>586.865374</ele>
        <time>2021-11-18T00:23:50.416Z</time>
      </trkpt>
      <trkpt lat="47.434312" lon="7.638324">
        <ele>586.117913</ele>
        <time>2021-11-18T00:23:51.377Z</time>
      </trkpt>
      <trkpt lat="47.434081" lon="7.638293">
        <ele>584.603764</ele>
        <time>2021-11-18T00:23:53.495Z</time>
      </trkpt>
      <trkpt lat="47.433911" lon="7.638401">
        <ele>583.395887</ele>
        <time>2021-11-18T00:23:55.084Z</time>
      </trkpt>
      <trkpt lat="47.433760" lon="7.638685">
        <ele>581.807207</ele>
        <time>2021-11-18T00:23:57.271Z</time>
      </trkpt>
      <trkpt lat="47.433657" lon="7.639180">
        <ele>579.532050</ele>
        <time>2021-11-18T00:24:00.365Z</time>
      </trkpt>
      <trkpt lat="47.433640" lon="7.639464">
        <ele>578.279526</ele>
        <time>2021-11-18T00:24:02.037Z</time>
      </trkpt>
      <trkpt lat="47.433635" lon="7.639798">
        <ele>576.811861</ele>
        <time>2021-11-18T00:24:04.024Z</time>
      </trkpt>
      <trkpt lat="47.433683" lon="7.640574">
        <ele>573.388569</ele>
        <time>2021-11-18T00:24:09.038Z</time>
      </trkpt>
      <trkpt lat="47.433779" lon="7.641104">
        <ele>571.078260</ele>
        <time>2021-11-18T00:24:12.726Z</time>
      </trkpt>
      <trkpt lat="47.433961" lon="7.641567">
        <ele>569.324455</ele>
        <time>2021-11-18T00:24:16.204Z</time>
      </trkpt>
      <trkpt lat="47.434566" lon="7.642616">
        <ele>564.809692</ele>
        <time>2021-11-18T00:24:25.256Z</time>
      </trkpt>
      <trkpt lat="47.434639" lon="7.642943">
        <ele>563.681940</ele>
        <time>2021-11-18T00:24:27.362Z</time>
      </trkpt>
      <trkpt lat="47.434619" lon="7.643039">
        <ele>563.352962</ele>
        <time>2021-11-18T00:24:29.216Z</time>
      </trkpt>
      <trkpt lat="47.434585" lon="7.643099">
        <ele>563.096620</ele>
        <time>2021-11-18T00:24:29.654Z</time>
      </trkpt>
      <trkpt lat="47.434512" lon="7.643171">
        <ele>562.671740</ele>
        <time>2021-11-18T00:24:30.503Z</time>
      </trkpt>
      <trkpt lat="47.434393" lon="7.643175">
        <ele>561.826371</ele>
        <time>2021-11-18T00:24:31.524Z</time>
      </trkpt>
      <trkpt lat="47.433993" lon="7.642883">
        <ele>558.642572</ele>
        <time>2021-11-18T00:24:35.677Z</time>
      </trkpt>
      <trkpt lat="47.433850" lon="7.642889">
        <ele>557.621598</ele>
        <time>2021-11-18T00:24:36.943Z</time>
      </trkpt>
      <trkpt lat="47.433807" lon="7.642928">
        <ele>557.261563</ele>
        <time>2021-11-18T00:24:37.357Z</time>
      </trkpt>
      <trkpt lat="47.433772" lon="7.642968">
        <ele>556.945835</ele>
        <time>2021-11-18T00:24:37.732Z</time>
      </trkpt>
      <trkpt lat="47.433551" lon="7.644389">
        <ele>549.906773</ele>
        <time>2021-11-18T00:24:46.589Z</time>
      </trkpt>
      <trkpt lat="47.433538" lon="7.644822">
        <ele>548.629878</ele>
        <time>2021-11-18T00:24:49.200Z</time>
      </trkpt>
      <trkpt lat="47.433576" lon="7.645073">
        <ele>547.891444</ele>
        <time>2021-11-18T00:24:50.699Z</time>
      </trkpt>
      <trkpt lat="47.433934" lon="7.646125">
        <ele>544.510561</ele>
        <time>2021-11-18T00:24:58.807Z</time>
      </trkpt>
      <trkpt lat="47.433988" lon="7.646620">
        <ele>543.071092</ele>
        <time>2021-11-18T00:25:02.356Z</time>
      </trkpt>
      <trkpt lat="47.433994" lon="7.646673">
        <ele>542.916817</ele>
        <time>2021-11-18T00:25:02.722Z</time>
      </trkpt>
      <trkpt lat="47.434032" lon="7.647396">
        <ele>541.636057</ele>
        <time>2021-11-18T00:25:08.007Z</time>
      </trkpt>
      <trkpt lat="47.434054" lon="7.647612">
        <ele>541.378966</ele>
        <time>2021-11-18T00:25:09.597Z</time>
      </trkpt>
      <trkpt lat="47.434085" lon="7.647848">
        <ele>541.096013</ele>
        <time>2021-11-18T00:25:11.375Z</time>
      </trkpt>
      <trkpt lat="47.434115" lon="7.648032">
        <ele>540.873249</ele>
        <time>2021-11-18T00:25:12.778Z</time>
      </trkpt>
      <trkpt lat="47.434353" lon="7.649561">
        <ele>539.058227</ele>
        <time>2021-11-18T00:25:25.046Z</time>
      </trkpt>
      <trkpt lat="47.434349" lon="7.649587">
        <ele>539.053983</ele>
        <time>2021-11-18T00:25:25.246Z</time>
      </trkpt>
      <trkpt lat="47.434338" lon="7.649614">
        <ele>539.048966</ele>
        <time>2021-11-18T00:25:25.513Z</time>
      </trkpt>
      <trkpt lat="47.434313" lon="7.649642">
        <ele>539.041585</ele>
        <time>2021-11-18T00:25:25.877Z</time>
      </trkpt>
      <trkpt lat="47.434393" lon="7.649974">
        <ele>538.985484</ele>
        <time>2021-11-18T00:25:28.965Z</time>
      </trkpt>
      <trkpt lat="47.434521" lon="7.650847">
        <ele>538.843293</ele>
        <time>2021-11-18T00:25:36.962Z</time>
      </trkpt>
      <trkpt lat="47.434561" lon="7.651598">
        <ele>538.723379</ele>
        <time>2021-11-18T00:25:44.609Z</time>
      </trkpt>
      <trkpt lat="47.434554" lon="7.651838">
        <ele>538.685140</ele>
        <time>2021-11-18T00:25:47.131Z</time>
      </trkpt>
      <trkpt lat="47.434545" lon="7.651951">
        <ele>538.667029</ele>
        <time>2021-11-18T00:25:48.511Z</time>
      </trkpt>
      <trkpt lat="47.434522" lon="7.652176">
        <ele>538.685466</ele>
        <time>2021-11-18T00:25:51.011Z</time>
      </trkpt>
      <trkpt lat="47.434475" lon="7.652704">
        <ele>539.109884</ele>
        <time>2021-11-18T00:25:57.426Z</time>
      </trkpt>
      <trkpt lat="47.434463" lon="7.652974">
        <ele>539.325524</ele>
        <time>2021-11-18T00:26:01.305Z</time>
      </trkpt>
      <trkpt lat="47.434461" lon="7.653222">
        <ele>539.523182</ele>
        <time>2021-11-18T00:26:04.354Z</time>
      </trkpt>
      <trkpt lat="47.434469" lon="7.653527">
        <ele>539.766435</ele>
        <time>2021-11-18T00:26:08.761Z</time>
      </trkpt>
      <trkpt lat="47.434636" lon="7.654926">
        <ele>541.053866</ele>
        <time>2021-11-18T00:26:28.097Z</time>
      </trkpt>
      <trkpt lat="47.434655" lon="7.655002">
        <ele>541.190265</ele>
        <time>2021-11-18T00:26:30.110Z</time>
      </trkpt>
      <trkpt lat="47.434684" lon="7.655121">
        <ele>541.403198</ele>
        <time>2021-11-18T00:26:31.912Z</time>
      </trkpt>
      <trkpt lat="47.434700" lon="7.655203">
        <ele>541.546868</ele>
        <time>2021-11-18T00:26:32.986Z</time>
      </trkpt>
      <trkpt lat="47.434724" lon="7.655366">
        <ele>541.827694</ele>
        <time>2021-11-18T00:26:35.067Z</time>
      </trkpt>
      <trkpt lat="47.434788" lon="7.655893">
        <ele>542.729047</ele>
        <time>2021-11-18T00:26:43.103Z</time>
      </trkpt>
      <trkpt lat="47.434874" lon="7.656543">
        <ele>543.844013</ele>
        <time>2021-11-18T00:26:54.935Z</time>
      </trkpt>
      <trkpt lat="47.434967" lon="7.656985">
        <ele>544.623254</ele>
        <time>2021-11-18T00:27:03.021Z</time>
      </trkpt>
      <trkpt lat="47.434972" lon="7.657027">
        <ele>544.695044</ele>
        <time>2021-11-18T00:27:04.044Z</time>
      </trkpt>
      <trkpt lat="47.434978" lon="7.657092">
        <ele>544.805481</ele>
        <time>2021-11-18T00:27:05.584Z</time>
      </trkpt>
      <trkpt lat="47.434926" lon="7.658284">
        <ele>547.936505</ele>
        <time>2021-11-18T00:27:28.218Z</time>
      </trkpt>
      <trkpt lat="47.434918" lon="7.658372">
        <ele>548.191888</ele>
        <time>2021-11-18T00:27:30.310Z</time>
      </trkpt>
      <trkpt lat="47.435002" lon="7.658396">
        <ele>548.555671</ele>
        <time>2021-11-18T00:27:33.630Z</time>
      </trkpt>
      <trkpt lat="47.435276" lon="7.658425">
        <ele>549.723721</ele>
        <time>2021-11-18T00:27:42.205Z</time>
      </trkpt>
      <trkpt lat="47.435411" lon="7.658524">
        <ele>550.364493</ele>
        <time>2021-11-18T00:27:47.351Z</time>
      </trkpt>
      <trkpt lat="47.435801" lon="7.659142">
        <ele>552.795424</ele>
        <time>2021-11-18T00:28:06.787Z</time>
      </trkpt>
      <trkpt lat="47.436034" lon="7.659525">
        <ele>554.993644</ele>
        <time>2021-11-18T00:28:19.065Z</time>
      </trkpt>
      <trkpt lat="47.436279" lon="7.659921">
        <ele>557.330871</ele>
        <time>2021-11-18T00:28:32.899Z</time>
      </trkpt>
      <trkpt lat="47.436536" lon="7.660260">
        <ele>559.548464</ele>
        <time>2021-11-18T00:28:44.946Z</time>
      </trkpt>
      <trkpt lat="47.436598" lon="7.660334">
        <ele>560.061507</ele>
        <time>2021-11-18T00:28:48.388Z</time>
      </trkpt>
      <trkpt lat="47.436682" lon="7.660438">
        <ele>560.766948</ele>
        <time>2021-11-18T00:28:52.489Z</time>
      </trkpt>
      <trkpt lat="47.436756" lon="7.660530">
        <ele>561.389474</ele>
        <time>2021-11-18T00:28:56.278Z</time>
      </trkpt>
      <trkpt lat="47.436850" lon="7.660646">
        <ele>562.177830</ele>
        <time>2021-11-18T00:29:02.802Z</time>
      </trkpt>
      <trkpt lat="47.436880" lon="7.660682">
        <ele>562.426607</ele>
        <time>2021-11-18T00:29:06.026Z</time>
      </trkpt>
      <trkpt lat="47.437052" lon="7.660896">
        <ele>563.874011</ele>
        <time>2021-11-18T00:29:14.875Z</time>
      </trkpt>
      <trkpt lat="47.437119" lon="7.660984">
        <ele>564.451042</ele>
        <time>2021-11-18T00:29:20.032Z</time>
      </trkpt>
      <trkpt lat="47.437288" lon="7.661207">
        <ele>566.606467</ele>
        <time>2021-11-18T00:29:30.950Z</time>
      </trkpt>
      <trkpt lat="47.437630" lon="7.661733">
        <ele>571.315780</ele>
        <time>2021-11-18T00:29:57.462Z</time>
      </trkpt>
      <trkpt lat="47.437831" lon="7.662098">
        <ele>574.353751</ele>
        <time>2021-11-18T00:30:13.867Z</time>
      </trkpt>
      <trkpt lat="47.437873" lon="7.662190">
        <ele>575.070165</ele>
        <time>2021-11-18T00:30:21.922Z</time>
      </trkpt>
      <trkpt lat="47.438258" lon="7.662961">
        <ele>581.255817</ele>
        <time>2021-11-18T00:30:51.811Z</time>
      </trkpt>
      <trkpt lat="47.438254" lon="7.663292">
        <ele>582.546030</ele>
        <time>2021-11-18T00:31:05.422Z</time>
      </trkpt>
      <trkpt lat="47.438165" lon="7.663478">
        <ele>583.311239</ele>
        <time>2021-11-18T00:31:10.824Z</time>
      </trkpt>
      <trkpt lat="47.438131" lon="7.663522">
        <ele>583.535606</ele>
        <time>2021-11-18T00:31:15.806Z</time>
      </trkpt>
      <trkpt lat="47.438047" lon="7.663590">
        <ele>584.011139</ele>
        <time>2021-11-18T00:31:18.543Z</time>
      </trkpt>
      <trkpt lat="47.437907" lon="7.663616">
        <ele>584.711770</ele>
        <time>2021-11-18T00:31:22.435Z</time>
      </trkpt>
      <trkpt lat="47.437184" lon="7.663243">
        <ele>588.514116</ele>
        <time>2021-11-18T00:31:48.617Z</time>
      </trkpt>
      <trkpt lat="47.436303" lon="7.662996">
        <ele>589.713432</ele>
        <time>2021-11-18T00:32:04.618Z</time>
      </trkpt>
      <trkpt lat="47.436282" lon="7.662977">
        <ele>589.670513</ele>
        <time>2021-11-18T00:32:04.862Z</time>
      </trkpt>
      <trkpt lat="47.435991" lon="7.662704">
        <ele>589.069714</ele>
        <time>2021-11-18T00:32:08.568Z</time>
      </trkpt>
      <trkpt lat="47.435959" lon="7.662666">
        <ele>588.998164</ele>
        <time>2021-11-18T00:32:08.971Z</time>
      </trkpt>
      <trkpt lat="47.435854" lon="7.662545">
        <ele>588.766085</ele>
        <time>2021-11-18T00:32:10.335Z</time>
      </trkpt>
      <trkpt lat="47.435446" lon="7.662263">
        <ele>587.980952</ele>
        <time>2021-11-18T00:32:15.231Z</time>
      </trkpt>
      <trkpt lat="47.435304" lon="7.662258">
        <ele>587.733342</ele>
        <time>2021-11-18T00:32:16.601Z</time>
      </trkpt>
      <trkpt lat="47.435242" lon="7.662285">
        <ele>587.620670</ele>
        <time>2021-11-18T00:32:17.199Z</time>
      </trkpt>
      <trkpt lat="47.435095" lon="7.662384">
        <ele>587.411442</ele>
        <time>2021-11-18T00:32:18.805Z</time>
      </trkpt>
      <trkpt lat="47.434926" lon="7.662659">
        <ele>587.349695</ele>
        <time>2021-11-18T00:32:21.104Z</time>
      </trkpt>
      <trkpt lat="47.434872" lon="7.662857">
        <ele>587.314215</ele>
        <time>2021-11-18T00:32:22.645Z</time>
      </trkpt>
      <trkpt lat="47.434859" lon="7.663246">
        <ele>587.249488</ele>
        <time>2021-11-18T00:32:25.479Z</time>
      </trkpt>
      <trkpt lat="47.434875" lon="7.663359">
        <ele>587.230302</ele>
        <time>2021-11-18T00:32:26.970Z</time>
      </trkpt>
      <trkpt lat="47.434916" lon="7.663590">
        <ele>587.190612</ele>
        <time>2021-11-18T00:32:29.918Z</time>
      </trkpt>
      <trkpt lat="47.434962" lon="7.663801">
        <ele>587.153770</ele>
        <time>2021-11-18T00:32:33.724Z</time>
      </trkpt>
      <trkpt lat="47.435078" lon="7.664451">
        <ele>587.042050</ele>
        <time>2021-11-18T00:32:43.241Z</time>
      </trkpt>
      <trkpt lat="47.435137" lon="7.664767">
        <ele>586.987570</ele>
        <time>2021-11-18T00:32:48.878Z</time>
      </trkpt>
      <trkpt lat="47.435310" lon="7.665751">
        <ele>588.413178</ele>
        <time>2021-11-18T00:33:06.014Z</time>
      </trkpt>
      <trkpt lat="47.435317" lon="7.665781">
        <ele>588.459561</ele>
        <time>2021-11-18T00:33:06.942Z</time>
      </trkpt>
      <trkpt lat="47.435594" lon="7.667328">
        <ele>590.798458</ele>
        <time>2021-11-18T00:33:35.072Z</time>
      </trkpt>
      <trkpt lat="47.435610" lon="7.668528">
        <ele>589.305229</ele>
        <time>2021-11-18T00:33:45.005Z</time>
      </trkpt>
      <trkpt lat="47.435616" lon="7.668601">
        <ele>589.205556</ele>
        <time>2021-11-18T00:33:45.505Z</time>
      </trkpt>
      <trkpt lat="47.435627" lon="7.668716">
        <ele>589.048133</ele>
        <time>2021-11-18T00:33:46.192Z</time>
      </trkpt>
      <trkpt lat="47.435690" lon="7.669269">
        <ele>588.288034</ele>
        <time>2021-11-18T00:33:50.067Z</time>
      </trkpt>
      <trkpt lat="47.435644" lon="7.669489">
        <ele>587.975922</ele>
        <time>2021-11-18T00:33:51.936Z</time>
      </trkpt>
      <trkpt lat="47.435486" lon="7.669749">
        <ele>587.502184</ele>
        <time>2021-11-18T00:33:54.202Z</time>
      </trkpt>
      <trkpt lat="47.435461" lon="7.669917">
        <ele>587.269028</ele>
        <time>2021-11-18T00:33:55.557Z</time>
      </trkpt>
      <trkpt lat="47.435556" lon="7.670121">
        <ele>586.675859</ele>
        <time>2021-11-18T00:33:57.149Z</time>
      </trkpt>
      <trkpt lat="47.435746" lon="7.670164">
        <ele>585.990462</ele>
        <time>2021-11-18T00:33:59.168Z</time>
      </trkpt>
      <trkpt lat="47.435825" lon="7.670081">
        <ele>585.644873</ele>
        <time>2021-11-18T00:34:00.202Z</time>
      </trkpt>
      <trkpt lat="47.435863" lon="7.669933">
        <ele>585.263050</ele>
        <time>2021-11-18T00:34:01.150Z</time>
      </trkpt>
      <trkpt lat="47.435855" lon="7.669387">
        <ele>583.945806</ele>
        <time>2021-11-18T00:34:05.149Z</time>
      </trkpt>
      <trkpt lat="47.435984" lon="7.668771">
        <ele>582.390459</ele>
        <time>2021-11-18T00:34:09.688Z</time>
      </trkpt>
      <trkpt lat="47.436229" lon="7.668289">
        <ele>580.936234</ele>
        <time>2021-11-18T00:34:13.695Z</time>
      </trkpt>
      <trkpt lat="47.436461" lon="7.668064">
        <ele>578.940489</ele>
        <time>2021-11-18T00:34:16.322Z</time>
      </trkpt>
      <trkpt lat="47.437347" lon="7.667604">
        <ele>571.860956</ele>
        <time>2021-11-18T00:34:24.774Z</time>
      </trkpt>
      <trkpt lat="47.438933" lon="7.667652">
        <ele>557.103724</ele>
        <time>2021-11-18T00:34:38.388Z</time>
      </trkpt>
      <trkpt lat="47.439581" lon="7.667783">
        <ele>550.305821</ele>
        <time>2021-11-18T00:34:43.971Z</time>
      </trkpt>
      <trkpt lat="47.440169" lon="7.668322">
        <ele>543.933553</ele>
        <time>2021-11-18T00:34:49.910Z</time>
      </trkpt>
      <trkpt lat="47.440446" lon="7.668714">
        <ele>540.543527</ele>
        <time>2021-11-18T00:34:53.243Z</time>
      </trkpt>
      <trkpt lat="47.441062" lon="7.669851">
        <ele>532.235635</ele>
        <time>2021-11-18T00:35:01.940Z</time>
      </trkpt>
      <trkpt lat="47.441470" lon="7.671052">
        <ele>527.965504</ele>
        <time>2021-11-18T00:35:10.237Z</time>
      </trkpt>
      <trkpt lat="47.441865" lon="7.671856">
        <ele>524.808235</ele>
        <time>2021-11-18T00:35:17.054Z</time>
      </trkpt>
      <trkpt lat="47.442155" lon="7.672236">
        <ele>524.773256</ele>
        <time>2021-11-18T00:35:21.811Z</time>
      </trkpt>
      <trkpt lat="47.442412" lon="7.672395">
        <ele>525.325243</ele>
        <time>2021-11-18T00:35:26.469Z</time>
      </trkpt>
      <trkpt lat="47.442480" lon="7.672412">
        <ele>525.461887</ele>
        <time>2021-11-18T00:35:27.417Z</time>
      </trkpt>
      <trkpt lat="47.442608" lon="7.672446">
        <ele>525.719560</ele>
        <time>2021-11-18T00:35:30.388Z</time>
      </trkpt>
      <trkpt lat="47.443344" lon="7.672548">
        <ele>527.184227</ele>
        <time>2021-11-18T00:35:53.029Z</time>
      </trkpt>
      <trkpt lat="47.443628" lon="7.672491">
        <ele>527.752091</ele>
        <time>2021-11-18T00:36:02.345Z</time>
      </trkpt>
      <trkpt lat="47.443713" lon="7.672402">
        <ele>527.922938</ele>
        <time>2021-11-18T00:36:04.753Z</time>
      </trkpt>
      <trkpt lat="47.443989" lon="7.671784">
        <ele>528.682024</ele>
        <time>2021-11-18T00:36:18.299Z</time>
      </trkpt>
      <trkpt lat="47.444057" lon="7.671641">
        <ele>528.861201</ele>
        <time>2021-11-18T00:36:23.660Z</time>
      </trkpt>
      <trkpt lat="47.444169" lon="7.671458">
        <ele>529.114173</ele>
        <time>2021-11-18T00:36:26.252Z</time>
      </trkpt>
      <trkpt lat="47.445070" lon="7.669945">
        <ele>528.488105</ele>
        <time>2021-11-18T00:36:47.915Z</time>
      </trkpt>
      <trkpt lat="47.445577" lon="7.669433">
        <ele>525.547503</ele>
        <time>2021-11-18T00:36:53.659Z</time>
      </trkpt>
      <trkpt lat="47.445759" lon="7.669034">
        <ele>523.988594</ele>
        <time>2021-11-18T00:36:56.633Z</time>
      </trkpt>
      <trkpt lat="47.445777" lon="7.668911">
        <ele>523.580960</ele>
        <time>2021-11-18T00:36:57.362Z</time>
      </trkpt>
      <trkpt lat="47.445787" lon="7.668799">
        <ele>523.215030</ele>
        <time>2021-11-18T00:36:58.092Z</time>
      </trkpt>
      <trkpt lat="47.445783" lon="7.668679">
        <ele>522.825863</ele>
        <time>2021-11-18T00:36:58.853Z</time>
      </trkpt>
      <trkpt lat="47.445750" lon="7.668418">
        <ele>521.965803</ele>
        <time>2021-11-18T00:37:00.400Z</time>
      </trkpt>
      <trkpt lat="47.445654" lon="7.667998">
        <ele>518.887599</ele>
        <time>2021-11-18T00:37:03.048Z</time>
      </trkpt>
      <trkpt lat="47.445654" lon="7.667805">
        <ele>517.523246</ele>
        <time>2021-11-18T00:37:04.163Z</time>
      </trkpt>
      <trkpt lat="47.445776" lon="7.667533">
        <ele>515.215975</ele>
        <time>2021-11-18T00:37:06.081Z</time>
      </trkpt>
      <trkpt lat="47.445942" lon="7.667458">
        <ele>513.401600</ele>
        <time>2021-11-18T00:37:07.558Z</time>
      </trkpt>
      <trkpt lat="47.446425" lon="7.667491">
        <ele>508.347459</ele>
        <time>2021-11-18T00:37:11.673Z</time>
      </trkpt>
      <trkpt lat="47.446739" lon="7.667422">
        <ele>505.029201</ele>
        <time>2021-11-18T00:37:14.336Z</time>
      </trkpt>
      <trkpt lat="47.447554" lon="7.666977">
        <ele>496.742736</ele>
        <time>2021-11-18T00:37:21.775Z</time>
      </trkpt>
      <trkpt lat="47.447888" lon="7.666650">
        <ele>493.019809</ele>
        <time>2021-11-18T00:37:25.277Z</time>
      </trkpt>
      <trkpt lat="47.447929" lon="7.666589">
        <ele>492.479258</ele>
        <time>2021-11-18T00:37:25.767Z</time>
      </trkpt>
      <trkpt lat="47.447979" lon="7.666512">
        <ele>491.808316</ele>
        <time>2021-11-18T00:37:26.514Z</time>
      </trkpt>
      <trkpt lat="47.448169" lon="7.665959">
        <ele>487.909762</ele>
        <time>2021-11-18T00:37:30.220Z</time>
      </trkpt>
      <trkpt lat="47.448181" lon="7.665824">
        <ele>487.053969</ele>
        <time>2021-11-18T00:37:31.003Z</time>
      </trkpt>
      <trkpt lat="47.448200" lon="7.665623">
        <ele>485.899616</ele>
        <time>2021-11-18T00:37:32.206Z</time>
      </trkpt>
      <trkpt lat="47.448206" lon="7.665560">
        <ele>485.577624</ele>
        <time>2021-11-18T00:37:32.779Z</time>
      </trkpt>
      <trkpt lat="47.448208" lon="7.665438">
        <ele>484.959997</ele>
        <time>2021-11-18T00:37:33.504Z</time>
      </trkpt>
      <trkpt lat="47.448216" lon="7.665002">
        <ele>482.752575</ele>
        <time>2021-11-18T00:37:36.164Z</time>
      </trkpt>
      <trkpt lat="47.448241" lon="7.664819">
        <ele>481.807697</ele>
        <time>2021-11-18T00:37:37.266Z</time>
      </trkpt>
      <trkpt lat="47.448316" lon="7.664525">
        <ele>480.217408</ele>
        <time>2021-11-18T00:37:39.218Z</time>
      </trkpt>
      <trkpt lat="47.448467" lon="7.664289">
        <ele>478.573132</ele>
        <time>2021-11-18T00:37:41.138Z</time>
      </trkpt>
      <trkpt lat="47.448595" lon="7.664189">
        <ele>477.489719</ele>
        <time>2021-11-18T00:37:42.588Z</time>
      </trkpt>
      <trkpt lat="47.448661" lon="7.664157">
        <ele>476.969909</ele>
        <time>2021-11-18T00:37:43.166Z</time>
      </trkpt>
      <trkpt lat="47.448693" lon="7.664150">
        <ele>476.727818</ele>
        <time>2021-11-18T00:37:43.458Z</time>
      </trkpt>
      <trkpt lat="47.448781" lon="7.664132">
        <ele>476.062964</ele>
        <time>2021-11-18T00:37:44.227Z</time>
      </trkpt>
      <trkpt lat="47.449031" lon="7.664198">
        <ele>474.162408</ele>
        <time>2021-11-18T00:37:46.536Z</time>
      </trkpt>
      <trkpt lat="47.449175" lon="7.664357">
        <ele>472.808678</ele>
        <time>2021-11-18T00:37:48.159Z</time>
      </trkpt>
      <trkpt lat="47.449370" lon="7.664917">
        <ele>469.392904</ele>
        <time>2021-11-18T00:37:51.955Z</time>
      </trkpt>
      <trkpt lat="47.449396" lon="7.665028">
        <ele>468.755878</ele>
        <time>2021-11-18T00:37:52.615Z</time>
      </trkpt>
      <trkpt lat="47.449441" lon="7.665293">
        <ele>467.274202</ele>
        <time>2021-11-18T00:37:54.263Z</time>
      </trkpt>
      <trkpt lat="47.449450" lon="7.665415">
        <ele>466.608687</ele>
        <time>2021-11-18T00:37:55.068Z</time>
      </trkpt>
      <trkpt lat="47.449446" lon="7.665513">
        <ele>466.076279</ele>
        <time>2021-11-18T00:37:55.613Z</time>
      </trkpt>
      <trkpt lat="47.449432" lon="7.665615">
        <ele>465.511868</ele>
        <time>2021-11-18T00:37:56.205Z</time>
      </trkpt>
      <trkpt lat="47.449414" lon="7.665695">
        <ele>465.054655</ele>
        <time>2021-11-18T00:37:56.697Z</time>
      </trkpt>
      <trkpt lat="47.449072" lon="7.666757">
        <ele>458.675871</ele>
        <time>2021-11-18T00:38:03.806Z</time>
      </trkpt>
      <trkpt lat="47.448997" lon="7.667034">
        <ele>457.505826</ele>
        <time>2021-11-18T00:38:05.552Z</time>
      </trkpt>
      <trkpt lat="47.448967" lon="7.667149">
        <ele>457.042707</ele>
        <time>2021-11-18T00:38:06.321Z</time>
      </trkpt>
      <trkpt lat="47.448943" lon="7.667317">
        <ele>456.397557</ele>
        <time>2021-11-18T00:38:07.474Z</time>
      </trkpt>
      <trkpt lat="47.448942" lon="7.667396">
        <ele>456.100682</ele>
        <time>2021-11-18T00:38:07.968Z</time>
      </trkpt>
      <trkpt lat="47.448950" lon="7.667532">
        <ele>455.587766</ele>
        <time>2021-11-18T00:38:08.769Z</time>
      </trkpt>
      <trkpt lat="47.449086" lon="7.668269">
        <ele>452.717426</ele>
        <time>2021-11-18T00:38:13.667Z</time>
      </trkpt>
      <trkpt lat="47.449113" lon="7.668434">
        <ele>452.079589</ele>
        <time>2021-11-18T00:38:14.751Z</time>
      </trkpt>
      <trkpt lat="47.449116" lon="7.668452">
        <ele>452.009935</ele>
        <time>2021-11-18T00:38:14.862Z</time>
      </trkpt>
      <trkpt lat="47.449173" lon="7.668787">
        <ele>450.712029</ele>
        <time>2021-11-18T00:38:17.054Z</time>
      </trkpt>
      <trkpt lat="47.449189" lon="7.668933">
        <ele>450.156315</ele>
        <time>2021-11-18T00:38:18.020Z</time>
      </trkpt>
      <trkpt lat="47.449199" lon="7.669094">
        <ele>449.548854</ele>
        <time>2021-11-18T00:38:18.994Z</time>
      </trkpt>
      <trkpt lat="47.449246" lon="7.669961">
        <ele>447.241126</ele>
        <time>2021-11-18T00:38:24.712Z</time>
      </trkpt>
      <trkpt lat="47.449245" lon="7.670322">
        <ele>446.465625</ele>
        <time>2021-11-18T00:38:27.171Z</time>
      </trkpt>
      <trkpt lat="47.449210" lon="7.670420">
        <ele>446.227547</ele>
        <time>2021-11-18T00:38:27.931Z</time>
      </trkpt>
      <trkpt lat="47.449158" lon="7.670507">
        <ele>445.978118</ele>
        <time>2021-11-18T00:38:28.692Z</time>
      </trkpt>
      <trkpt lat="47.449125" lon="7.670544">
        <ele>445.846563</ele>
        <time>2021-11-18T00:38:29.108Z</time>
      </trkpt>
      <trkpt lat="47.449088" lon="7.670572">
        <ele>445.714530</ele>
        <time>2021-11-18T00:38:29.522Z</time>
      </trkpt>
      <trkpt lat="47.448818" lon="7.670700">
        <ele>444.813837</ele>
        <time>2021-11-18T00:38:32.505Z</time>
      </trkpt>
      <trkpt lat="47.448657" lon="7.670830">
        <ele>444.231119</ele>
        <time>2021-11-18T00:38:34.484Z</time>
      </trkpt>
      <trkpt lat="47.448599" lon="7.670932">
        <ele>443.944834</ele>
        <time>2021-11-18T00:38:35.450Z</time>
      </trkpt>
      <trkpt lat="47.448572" lon="7.671065">
        <ele>443.646526</ele>
        <time>2021-11-18T00:38:36.397Z</time>
      </trkpt>
      <trkpt lat="47.448590" lon="7.671360">
        <ele>443.010229</ele>
        <time>2021-11-18T00:38:38.670Z</time>
      </trkpt>
      <trkpt lat="47.448612" lon="7.671488">
        <ele>442.760065</ele>
        <time>2021-11-18T00:38:39.598Z</time>
      </trkpt>
      <trkpt lat="47.448684" lon="7.671787">
        <ele>442.354010</ele>
        <time>2021-11-18T00:38:41.867Z</time>
      </trkpt>
      <trkpt lat="47.448753" lon="7.672078">
        <ele>441.959496</ele>
        <time>2021-11-18T00:38:44.138Z</time>
      </trkpt>
      <trkpt lat="47.448800" lon="7.672264">
        <ele>441.705467</ele>
        <time>2021-11-18T00:38:45.656Z</time>
      </trkpt>
      <trkpt lat="47.448827" lon="7.672348">
        <ele>441.586480</ele>
        <time>2021-11-18T00:38:46.440Z</time>
      </trkpt>
      <trkpt lat="47.448844" lon="7.672394">
        <ele>441.519415</ele>
        <time>2021-11-18T00:38:46.901Z</time>
      </trkpt>
      <trkpt lat="47.449091" lon="7.672830">
        <ele>440.791754</ele>
        <time>2021-11-18T00:38:51.301Z</time>
      </trkpt>
      <trkpt lat="47.449291" lon="7.673412">
        <ele>439.956556</ele>
        <time>2021-11-18T00:38:56.134Z</time>
      </trkpt>
      <trkpt lat="47.449339" lon="7.673666">
        <ele>439.619154</ele>
        <time>2021-11-18T00:38:58.007Z</time>
      </trkpt>
      <trkpt lat="47.449463" lon="7.674461">
        <ele>438.560984</ele>
        <time>2021-11-18T00:39:04.267Z</time>
      </trkpt>
      <trkpt lat="47.449580" lon="7.674934">
        <ele>437.905492</ele>
        <time>2021-11-18T00:39:08.216Z</time>
      </trkpt>
      <trkpt lat="47.449613" lon="7.675121">
        <ele>437.653964</ele>
        <time>2021-11-18T00:39:09.782Z</time>
      </trkpt>
      <trkpt lat="47.449629" lon="7.675216">
        <ele>437.526546</ele>
        <time>2021-11-18T00:39:10.483Z</time>
      </trkpt>
      <trkpt lat="47.449648" lon="7.675423">
        <ele>437.254670</ele>
        <time>2021-11-18T00:39:12.193Z</time>
      </trkpt>
      <trkpt lat="47.449647" lon="7.675700">
        <ele>436.894154</ele>
        <time>2021-11-18T00:39:14.365Z</time>
      </trkpt>
      <trkpt lat="47.449626" lon="7.675886">
        <ele>436.648728</ele>
        <time>2021-11-18T00:39:15.727Z</time>
      </trkpt>
      <trkpt lat="47.449388" lon="7.677146">
        <ele>434.138950</ele>
        <time>2021-11-18T00:39:25.001Z</time>
      </trkpt>
      <trkpt lat="47.449373" lon="7.677847">
        <ele>432.488650</ele>
        <time>2021-11-18T00:39:29.680Z</time>
      </trkpt>
      <trkpt lat="47.449341" lon="7.678552">
        <ele>430.826031</ele>
        <time>2021-11-18T00:39:34.373Z</time>
      </trkpt>
      <trkpt lat="47.449071" lon="7.681449">
        <ele>423.076063</ele>
        <time>2021-11-18T00:39:53.546Z</time>
      </trkpt>
      <trkpt lat="47.449066" lon="7.681910">
        <ele>422.051931</ele>
        <time>2021-11-18T00:39:56.672Z</time>
      </trkpt>
      <trkpt lat="47.449105" lon="7.682126">
        <ele>421.654540</ele>
        <time>2021-11-18T00:39:58.203Z</time>
      </trkpt>
      <trkpt lat="47.449371" lon="7.682547">
        <ele>420.630408</ele>
        <time>2021-11-18T00:40:02.216Z</time>
      </trkpt>
      <trkpt lat="47.450216" lon="7.683257">
        <ele>418.075831</ele>
        <time>2021-11-18T00:40:12.671Z</time>
      </trkpt>
      <trkpt lat="47.450880" lon="7.683995">
        <ele>416.327085</ele>
        <time>2021-11-18T00:40:21.935Z</time>
      </trkpt>
      <trkpt lat="47.451512" lon="7.684848">
        <ele>414.603244</ele>
        <time>2021-11-18T00:40:31.321Z</time>
      </trkpt>
      <trkpt lat="47.452033" lon="7.685806">
        <ele>412.956018</ele>
        <time>2021-11-18T00:40:40.256Z</time>
      </trkpt>
      <trkpt lat="47.452276" lon="7.686394">
        <ele>412.038791</ele>
        <time>2021-11-18T00:40:45.295Z</time>
      </trkpt>
      <trkpt lat="47.452511" lon="7.687148">
        <ele>410.933737</ele>
        <time>2021-11-18T00:40:51.525Z</time>
      </trkpt>
      <trkpt lat="47.452543" lon="7.687988">
        <ele>410.085507</ele>
        <time>2021-11-18T00:40:58.167Z</time>
      </trkpt>
      <trkpt lat="47.452723" lon="7.688756">
        <ele>409.382560</ele>
        <time>2021-11-18T00:41:04.703Z</time>
      </trkpt>
      <trkpt lat="47.453139" lon="7.689805">
        <ele>408.330864</ele>
        <time>2021-11-18T00:41:14.637Z</time>
      </trkpt>
      <trkpt lat="47.453294" lon="7.690025">
        <ele>408.044829</ele>
        <time>2021-11-18T00:41:17.072Z</time>
      </trkpt>
      <trkpt lat="47.453487" lon="7.690182">
        <ele>407.749482</ele>
        <time>2021-11-18T00:41:19.903Z</time>
      </trkpt>
      <trkpt lat="47.453538" lon="7.690217">
        <ele>407.674095</ele>
        <time>2021-11-18T00:41:20.448Z</time>
      </trkpt>
      <trkpt lat="47.454034" lon="7.690524">
        <ele>406.953144</ele>
        <time>2021-11-18T00:41:26.873Z</time>
      </trkpt>
      <trkpt lat="47.454703" lon="7.691197">
        <ele>405.867975</ele>
        <time>2021-11-18T00:41:36.291Z</time>
      </trkpt>
      <trkpt lat="47.455205" lon="7.691971">
        <ele>404.863735</ele>
        <time>2021-11-18T00:41:44.695Z</time>
      </trkpt>
      <trkpt lat="47.455436" lon="7.692541">
        <ele>404.241496</ele>
        <time>2021-11-18T00:41:50.024Z</time>
      </trkpt>
      <trkpt lat="47.455466" lon="7.692668">
        <ele>404.115533</ele>
        <time>2021-11-18T00:41:51.066Z</time>
      </trkpt>
      <trkpt lat="47.455486" lon="7.692837">
        <ele>403.954886</ele>
        <time>2021-11-18T00:41:52.595Z</time>
      </trkpt>
      <trkpt lat="47.455404" lon="7.696022">
        <ele>400.574250</ele>
        <time>2021-11-18T00:42:17.094Z</time>
      </trkpt>
      <trkpt lat="47.455510" lon="7.697645">
        <ele>399.305941</ele>
        <time>2021-11-18T00:42:29.529Z</time>
      </trkpt>
      <trkpt lat="47.455543" lon="7.697790">
        <ele>399.189392</ele>
        <time>2021-11-18T00:42:30.618Z</time>
      </trkpt>
      <trkpt lat="47.455597" lon="7.697921">
        <ele>399.072514</ele>
        <time>2021-11-18T00:42:32.121Z</time>
      </trkpt>
      <trkpt lat="47.455901" lon="7.698420">
        <ele>398.560843</ele>
        <time>2021-11-18T00:42:38.416Z</time>
      </trkpt>
      <trkpt lat="47.456142" lon="7.698618">
        <ele>398.580985</ele>
        <time>2021-11-18T00:42:42.335Z</time>
      </trkpt>
      <trkpt lat="47.456297" lon="7.698682">
        <ele>398.684320</ele>
        <time>2021-11-18T00:42:45.223Z</time>
      </trkpt>
      <trkpt lat="47.456816" lon="7.698696">
        <ele>399.017637</ele>
        <time>2021-11-18T00:42:54.147Z</time>
      </trkpt>
      <trkpt lat="47.457236" lon="7.698542">
        <ele>399.295493</ele>
        <time>2021-11-18T00:43:03.543Z</time>
      </trkpt>
      <trkpt lat="47.458019" lon="7.697947">
        <ele>399.092512</ele>
        <time>2021-11-18T00:43:19.406Z</time>
      </trkpt>
      <trkpt lat="47.458770" lon="7.697582">
        <ele>398.007735</ele>
        <time>2021-11-18T00:43:28.841Z</time>
      </trkpt>
      <trkpt lat="47.459627" lon="7.697373">
        <ele>396.143569</ele>
        <time>2021-11-18T00:43:37.752Z</time>
      </trkpt>
      <trkpt lat="47.460255" lon="7.697389">
        <ele>393.535536</ele>
        <time>2021-11-18T00:43:43.833Z</time>
      </trkpt>
      <trkpt lat="47.461235" lon="7.697805">
        <ele>389.278200</ele>
        <time>2021-11-18T00:43:53.553Z</time>
      </trkpt>
      <trkpt lat="47.461657" lon="7.698048">
        <ele>387.279116</ele>
        <time>2021-11-18T00:43:57.888Z</time>
      </trkpt>
      <trkpt lat="47.462231" lon="7.698740">
        <ele>384.010179</ele>
        <time>2021-11-18T00:44:05.005Z</time>
      </trkpt>
      <trkpt lat="47.462796" lon="7.699545">
        <ele>380.667479</ele>
        <time>2021-11-18T00:44:12.623Z</time>
      </trkpt>
      <trkpt lat="47.463359" lon="7.700426">
        <ele>377.414788</ele>
        <time>2021-11-18T00:44:20.525Z</time>
      </trkpt>
      <trkpt lat="47.463772" lon="7.701164">
        <ele>374.844309</ele>
        <time>2021-11-18T00:44:26.912Z</time>
      </trkpt>
      <trkpt lat="47.463937" lon="7.701607">
        <ele>373.977710</ele>
        <time>2021-11-18T00:44:30.364Z</time>
      </trkpt>
      <trkpt lat="47.464000" lon="7.701766">
        <ele>373.700999</ele>
        <time>2021-11-18T00:44:31.691Z</time>
      </trkpt>
      <trkpt lat="47.464072" lon="7.701939">
        <ele>373.395975</ele>
        <time>2021-11-18T00:44:33.082Z</time>
      </trkpt>
      <trkpt lat="47.464286" lon="7.702526">
        <ele>372.394646</ele>
        <time>2021-11-18T00:44:37.879Z</time>
      </trkpt>
      <trkpt lat="47.464452" lon="7.702824">
        <ele>371.814896</ele>
        <time>2021-11-18T00:44:40.730Z</time>
      </trkpt>
      <trkpt lat="47.465795" lon="7.703769">
        <ele>369.628500</ele>
        <time>2021-11-18T00:44:58.626Z</time>
      </trkpt>
      <trkpt lat="47.466755" lon="7.704531">
        <ele>368.426037</ele>
        <time>2021-11-18T00:45:12.374Z</time>
      </trkpt>
      <trkpt lat="47.467815" lon="7.705596">
        <ele>366.698476</ele>
        <time>2021-11-18T00:45:27.499Z</time>
      </trkpt>
      <trkpt lat="47.468413" lon="7.706115">
        <ele>365.408685</ele>
        <time>2021-11-18T00:45:35.112Z</time>
      </trkpt>
      <trkpt lat="47.468635" lon="7.706377">
        <ele>364.779815</ele>
        <time>2021-11-18T00:45:38.096Z</time>
      </trkpt>
      <trkpt lat="47.469170" lon="7.707258">
        <ele>363.007063</ele>
        <time>2021-11-18T00:45:46.605Z</time>
      </trkpt>
      <trkpt lat="47.469380" lon="7.707614">
        <ele>362.305805</ele>
        <time>2021-11-18T00:45:50.078Z</time>
      </trkpt>
      <trkpt lat="47.469610" lon="7.708033">
        <ele>361.641820</ele>
        <time>2021-11-18T00:45:54.095Z</time>
      </trkpt>
      <trkpt lat="47.469909" lon="7.708638">
        <ele>360.719871</ele>
        <time>2021-11-18T00:45:59.692Z</time>
      </trkpt>
      <trkpt lat="47.470047" lon="7.709159">
        <ele>360.031508</ele>
        <time>2021-11-18T00:46:03.841Z</time>
      </trkpt>
      <trkpt lat="47.470067" lon="7.709310">
        <ele>359.842221</ele>
        <time>2021-11-18T00:46:04.957Z</time>
      </trkpt>
      <trkpt lat="47.470076" lon="7.709368">
        <ele>359.769016</ele>
        <time>2021-11-18T00:46:05.388Z</time>
      </trkpt>
      <trkpt lat="47.470084" lon="7.709442">
        <ele>359.676827</ele>
        <time>2021-11-18T00:46:05.967Z</time>
      </trkpt>
      <trkpt lat="47.470112" lon="7.709694">
        <ele>359.362666</ele>
        <time>2021-11-18T00:46:08.004Z</time>
      </trkpt>
      <trkpt lat="47.470143" lon="7.709955">
        <ele>359.045391</ele>
        <time>2021-11-18T00:46:10.113Z</time>
      </trkpt>
      <trkpt lat="47.470180" lon="7.710275">
        <ele>358.793604</ele>
        <time>2021-11-18T00:46:12.757Z</time>
      </trkpt>
      <trkpt lat="47.470259" lon="7.710925">
        <ele>358.281398</ele>
        <time>2021-11-18T00:46:18.102Z</time>
      </trkpt>
      <trkpt lat="47.470351" lon="7.711728">
        <ele>357.649733</ele>
        <time>2021-11-18T00:46:24.716Z</time>
      </trkpt>
      <trkpt lat="47.470642" lon="7.713023">
        <ele>356.846212</ele>
        <time>2021-11-18T00:46:35.948Z</time>
      </trkpt>
      <trkpt lat="47.470946" lon="7.713885">
        <ele>356.566388</ele>
        <time>2021-11-18T00:46:44.846Z</time>
      </trkpt>
      <trkpt lat="47.471325" lon="7.714590">
        <ele>356.307143</ele>
        <time>2021-11-18T00:46:53.790Z</time>
      </trkpt>
      <trkpt lat="47.472567" lon="7.716575">
        <ele>355.573110</ele>
        <time>2021-11-18T00:47:19.448Z</time>
      </trkpt>
      <trkpt lat="47.472871" lon="7.716996">
        <ele>355.042028</ele>
        <time>2021-11-18T00:47:24.355Z</time>
      </trkpt>
      <trkpt lat="47.473156" lon="7.717335">
        <ele>354.395903</ele>
        <time>2021-11-18T00:47:28.538Z</time>
      </trkpt>
      <trkpt lat="47.473606" lon="7.717762">
        <ele>353.451335</ele>
        <time>2021-11-18T00:47:34.448Z</time>
      </trkpt>
      <trkpt lat="47.474069" lon="7.718201">
        <ele>352.479699</ele>
        <time>2021-11-18T00:47:40.424Z</time>
      </trkpt>
      <trkpt lat="47.474708" lon="7.719015">
        <ele>350.616391</ele>
        <time>2021-11-18T00:47:49.322Z</time>
      </trkpt>
      <trkpt lat="47.475257" lon="7.720022">
        <ele>348.642588</ele>
        <time>2021-11-18T00:47:58.936Z</time>
      </trkpt>
      <trkpt lat="47.475329" lon="7.720172">
        <ele>348.361907</ele>
        <time>2021-11-18T00:48:00.193Z</time>
      </trkpt>
      <trkpt lat="47.475505" lon="7.720617">
        <ele>347.578333</ele>
        <time>2021-11-18T00:48:03.951Z</time>
      </trkpt>
      <trkpt lat="47.475616" lon="7.720927">
        <ele>347.045432</ele>
        <time>2021-11-18T00:48:06.615Z</time>
      </trkpt>
      <trkpt lat="47.475707" lon="7.721185">
        <ele>346.603366</ele>
        <time>2021-11-18T00:48:08.660Z</time>
      </trkpt>
      <trkpt lat="47.475900" lon="7.721818">
        <ele>345.548508</ele>
        <time>2021-11-18T00:48:13.778Z</time>
      </trkpt>
      <trkpt lat="47.475927" lon="7.721919">
        <ele>345.383521</ele>
        <time>2021-11-18T00:48:14.516Z</time>
      </trkpt>
      <trkpt lat="47.476049" lon="7.722374">
        <ele>344.639961</ele>
        <time>2021-11-18T00:48:18.068Z</time>
      </trkpt>
      <trkpt lat="47.476793" lon="7.725064">
        <ele>340.456222</ele>
        <time>2021-11-18T00:48:39.320Z</time>
      </trkpt>
      <trkpt lat="47.476967" lon="7.725567">
        <ele>339.893613</ele>
        <time>2021-11-18T00:48:43.651Z</time>
      </trkpt>
      <trkpt lat="47.477379" lon="7.726682">
        <ele>338.651123</ele>
        <time>2021-11-18T00:48:53.639Z</time>
      </trkpt>
      <trkpt lat="47.477988" lon="7.728170">
        <ele>337.125508</ele>
        <time>2021-11-18T00:49:07.610Z</time>
      </trkpt>
      <trkpt lat="47.478261" lon="7.728599">
        <ele>336.665162</ele>
        <time>2021-11-18T00:49:12.366Z</time>
      </trkpt>
      <trkpt lat="47.478397" lon="7.728759">
        <ele>336.464315</ele>
        <time>2021-11-18T00:49:14.355Z</time>
      </trkpt>
      <trkpt lat="47.478916" lon="7.729363">
        <ele>335.693755</ele>
        <time>2021-11-18T00:49:22.580Z</time>
      </trkpt>
      <trkpt lat="47.479654" lon="7.730273">
        <ele>334.391215</ele>
        <time>2021-11-18T00:49:34.269Z</time>
      </trkpt>
      <trkpt lat="47.479926" lon="7.730540">
        <ele>333.948644</ele>
        <time>2021-11-18T00:49:37.936Z</time>
      </trkpt>
      <trkpt lat="47.480141" lon="7.730646">
        <ele>333.641379</ele>
        <time>2021-11-18T00:49:40.556Z</time>
      </trkpt>
      <trkpt lat="47.480356" lon="7.730752">
        <ele>333.334114</ele>
        <time>2021-11-18T00:49:43.004Z</time>
      </trkpt>
      <trkpt lat="47.480681" lon="7.730865">
        <ele>332.664586</ele>
        <time>2021-11-18T00:49:46.701Z</time>
      </trkpt>
      <trkpt lat="47.480699" lon="7.730869">
        <ele>332.627255</ele>
        <time>2021-11-18T00:49:46.893Z</time>
      </trkpt>
      <trkpt lat="47.480748" lon="7.730881">
        <ele>332.525391</ele>
        <time>2021-11-18T00:49:47.470Z</time>
      </trkpt>
      <trkpt lat="47.480913" lon="7.730920">
        <ele>332.182692</ele>
        <time>2021-11-18T00:49:49.439Z</time>
      </trkpt>
      <trkpt lat="47.480994" lon="7.730939">
        <ele>332.014490</ele>
        <time>2021-11-18T00:49:50.238Z</time>
      </trkpt>
      <trkpt lat="47.481163" lon="7.730983">
        <ele>331.662553</ele>
        <time>2021-11-18T00:49:52.202Z</time>
      </trkpt>
      <trkpt lat="47.481297" lon="7.731018">
        <ele>331.383476</ele>
        <time>2021-11-18T00:49:53.829Z</time>
      </trkpt>
      <trkpt lat="47.481327" lon="7.731025">
        <ele>331.321187</ele>
        <time>2021-11-18T00:49:54.103Z</time>
      </trkpt>
      <trkpt lat="47.481374" lon="7.731038">
        <ele>331.223122</ele>
        <time>2021-11-18T00:49:54.636Z</time>
      </trkpt>
      <trkpt lat="47.481437" lon="7.731054">
        <ele>331.092022</ele>
        <time>2021-11-18T00:49:55.341Z</time>
      </trkpt>
      <trkpt lat="47.481953" lon="7.731203">
        <ele>330.013764</ele>
        <time>2021-11-18T00:50:00.924Z</time>
      </trkpt>
      <trkpt lat="47.482293" lon="7.731321">
        <ele>329.447199</ele>
        <time>2021-11-18T00:50:04.665Z</time>
      </trkpt>
      <trkpt lat="47.482674" lon="7.731454">
        <ele>329.022211</ele>
        <time>2021-11-18T00:50:09.151Z</time>
      </trkpt>
      <trkpt lat="47.483093" lon="7.731601">
        <ele>328.554711</ele>
        <time>2021-11-18T00:50:14.420Z</time>
      </trkpt>
      <trkpt lat="47.483122" lon="7.731612">
        <ele>328.522209</ele>
        <time>2021-11-18T00:50:14.793Z</time>
      </trkpt>
      <trkpt lat="47.483284" lon="7.731664">
        <ele>328.342243</ele>
        <time>2021-11-18T00:50:17.150Z</time>
      </trkpt>
      <trkpt lat="47.483387" lon="7.731701">
        <ele>328.227173</ele>
        <time>2021-11-18T00:50:18.499Z</time>
      </trkpt>
      <trkpt lat="47.483481" lon="7.731683">
        <ele>328.124271</ele>
        <time>2021-11-18T00:50:19.757Z</time>
      </trkpt>
      <trkpt lat="47.483541" lon="7.731651">
        <ele>328.055030</ele>
        <time>2021-11-18T00:50:20.936Z</time>
      </trkpt>
      <trkpt lat="47.483752" lon="7.731333">
        <ele>327.728061</ele>
        <time>2021-11-18T00:50:24.842Z</time>
      </trkpt>
      <trkpt lat="47.483890" lon="7.731124">
        <ele>327.458411</ele>
        <time>2021-11-18T00:50:27.593Z</time>
      </trkpt>
      <trkpt lat="47.483752" lon="7.731333">
        <ele>327.164597</ele>
        <time>2021-11-18T00:50:30.040Z</time>
      </trkpt>
      <trkpt lat="47.483890" lon="7.731124">
        <ele>326.870782</ele>
        <time>2021-11-18T00:50:32.539Z</time>
      </trkpt>
      <trkpt lat="47.484188" lon="7.730675">
        <ele>326.237980</ele>
        <time>2021-11-18T00:50:37.555Z</time>
      </trkpt>
      <trkpt lat="47.484379" lon="7.730516">
        <ele>325.911903</ele>
        <time>2021-11-18T00:50:40.123Z</time>
      </trkpt>
      <trkpt lat="47.484446" lon="7.730531">
        <ele>325.811078</ele>
        <time>2021-11-18T00:50:40.853Z</time>
      </trkpt>
      <trkpt lat="47.484524" lon="7.730612">
        <ele>325.669293</ele>
        <time>2021-11-18T00:50:41.882Z</time>
      </trkpt>
      <trkpt lat="47.484753" lon="7.730938">
        <ele>325.196481</ele>
        <time>2021-11-18T00:50:45.253Z</time>
      </trkpt>
      <trkpt lat="47.484948" lon="7.731213">
        <ele>324.637851</ele>
        <time>2021-11-18T00:50:48.096Z</time>
      </trkpt>
      <trkpt lat="47.485104" lon="7.731443">
        <ele>324.039348</ele>
        <time>2021-11-18T00:50:50.456Z</time>
      </trkpt>
      <trkpt lat="47.485181" lon="7.731560">
        <ele>323.739395</ele>
        <time>2021-11-18T00:50:51.601Z</time>
      </trkpt>
      <trkpt lat="47.485199" lon="7.731623">
        <ele>323.613770</ele>
        <time>2021-11-18T00:50:52.092Z</time>
      </trkpt>
      <trkpt lat="47.485205" lon="7.731776">
        <ele>323.332290</ele>
        <time>2021-11-18T00:50:53.130Z</time>
      </trkpt>
      <trkpt lat="47.485209" lon="7.731931">
        <ele>323.047402</ele>
        <time>2021-11-18T00:50:54.261Z</time>
      </trkpt>
      <trkpt lat="47.485231" lon="7.732115">
        <ele>322.704211</ele>
        <time>2021-11-18T00:50:55.589Z</time>
      </trkpt>
      <trkpt lat="47.485263" lon="7.732218">
        <ele>322.496002</ele>
        <time>2021-11-18T00:50:56.304Z</time>
      </trkpt>
      <trkpt lat="47.485374" lon="7.732366">
        <ele>322.089927</ele>
        <time>2021-11-18T00:50:57.853Z</time>
      </trkpt>
      <trkpt lat="47.485607" lon="7.732608">
        <ele>321.316262</ele>
        <time>2021-11-18T00:51:00.702Z</time>
      </trkpt>
      <trkpt lat="47.485615" lon="7.732708">
        <ele>321.131317</ele>
        <time>2021-11-18T00:51:01.468Z</time>
      </trkpt>
      <trkpt lat="47.485619" lon="7.732745">
        <ele>321.062497</ele>
        <time>2021-11-18T00:51:01.721Z</time>
      </trkpt>
      <trkpt lat="47.485622" lon="7.732779">
        <ele>320.999522</ele>
        <time>2021-11-18T00:51:01.956Z</time>
      </trkpt>
      <trkpt lat="47.485621" lon="7.732816">
        <ele>320.931512</ele>
        <time>2021-11-18T00:51:02.223Z</time>
      </trkpt>
      <trkpt lat="47.485621" lon="7.732881">
        <ele>320.812131</ele>
        <time>2021-11-18T00:51:02.702Z</time>
      </trkpt>
      <trkpt lat="47.485609" lon="7.732921">
        <ele>320.731752</ele>
        <time>2021-11-18T00:51:03.027Z</time>
      </trkpt>
      <trkpt lat="47.485583" lon="7.733031">
        <ele>320.517721</ele>
        <time>2021-11-18T00:51:03.770Z</time>
      </trkpt>
      <trkpt lat="47.485554" lon="7.733208">
        <ele>320.183218</ele>
        <time>2021-11-18T00:51:05.286Z</time>
      </trkpt>
      <trkpt lat="47.485561" lon="7.733353">
        <ele>319.978494</ele>
        <time>2021-11-18T00:51:06.364Z</time>
      </trkpt>
      <trkpt lat="47.485587" lon="7.733415">
        <ele>319.890328</ele>
        <time>2021-11-18T00:51:06.961Z</time>
      </trkpt>
      <trkpt lat="47.485602" lon="7.733445">
        <ele>319.845235</ele>
        <time>2021-11-18T00:51:07.219Z</time>
      </trkpt>
      <trkpt lat="47.485625" lon="7.733476">
        <ele>319.789610</ele>
        <time>2021-11-18T00:51:07.516Z</time>
      </trkpt>
      <trkpt lat="47.485668" lon="7.733521">
        <ele>319.695441</ele>
        <time>2021-11-18T00:51:08.034Z</time>
      </trkpt>
      <trkpt lat="47.485916" lon="7.733734">
        <ele>319.182738</ele>
        <time>2021-11-18T00:51:11.299Z</time>
      </trkpt>
      <trkpt lat="47.485942" lon="7.733758">
        <ele>319.127946</ele>
        <time>2021-11-18T00:51:11.583Z</time>
      </trkpt>
      <trkpt lat="47.485959" lon="7.733777">
        <ele>319.089855</ele>
        <time>2021-11-18T00:51:11.786Z</time>
      </trkpt>
      <trkpt lat="47.486030" lon="7.733887">
        <ele>318.906057</ele>
        <time>2021-11-18T00:51:13.091Z</time>
      </trkpt>
      <trkpt lat="47.486064" lon="7.733959">
        <ele>318.799925</ele>
        <time>2021-11-18T00:51:13.742Z</time>
      </trkpt>
      <trkpt lat="47.486116" lon="7.734202">
        <ele>318.491943</ele>
        <time>2021-11-18T00:51:16.523Z</time>
      </trkpt>
      <trkpt lat="47.486098" lon="7.734739">
        <ele>317.842297</ele>
        <time>2021-11-18T00:51:20.806Z</time>
      </trkpt>
      <trkpt lat="47.486091" lon="7.734940">
        <ele>317.599110</ele>
        <time>2021-11-18T00:51:22.724Z</time>
      </trkpt>
      <trkpt lat="47.486083" lon="7.735015">
        <ele>317.507366</ele>
        <time>2021-11-18T00:51:23.395Z</time>
      </trkpt>
      <trkpt lat="47.486078" lon="7.735123">
        <ele>317.376566</ele>
        <time>2021-11-18T00:51:24.367Z</time>
      </trkpt>
      <trkpt lat="47.486080" lon="7.735202">
        <ele>317.281044</ele>
        <time>2021-11-18T00:51:24.922Z</time>
      </trkpt>
      <trkpt lat="47.486093" lon="7.735299">
        <ele>317.161558</ele>
        <time>2021-11-18T00:51:25.611Z</time>
      </trkpt>
      <trkpt lat="47.486134" lon="7.735440">
        <ele>316.976088</ele>
        <time>2021-11-18T00:51:26.816Z</time>
      </trkpt>
      <trkpt lat="47.486151" lon="7.735532">
        <ele>316.860647</ele>
        <time>2021-11-18T00:51:27.538Z</time>
      </trkpt>
      <trkpt lat="47.486157" lon="7.735604">
        <ele>316.772184</ele>
        <time>2021-11-18T00:51:28.114Z</time>
      </trkpt>
      <trkpt lat="47.486154" lon="7.735694">
        <ele>316.662302</ele>
        <time>2021-11-18T00:51:28.731Z</time>
      </trkpt>
      <trkpt lat="47.486144" lon="7.735743">
        <ele>316.599885</ele>
        <time>2021-11-18T00:51:29.101Z</time>
      </trkpt>
      <trkpt lat="47.486119" lon="7.735898">
        <ele>316.405565</ele>
        <time>2021-11-18T00:51:30.342Z</time>
      </trkpt>
      <trkpt lat="47.486042" lon="7.736224">
        <ele>315.984449</ele>
        <time>2021-11-18T00:51:32.794Z</time>
      </trkpt>
      <trkpt lat="47.486015" lon="7.736344">
        <ele>315.830220</ele>
        <time>2021-11-18T00:51:33.946Z</time>
      </trkpt>
      <trkpt lat="47.485907" lon="7.736780">
        <ele>315.263956</ele>
        <time>2021-11-18T00:51:37.364Z</time>
      </trkpt>
      <trkpt lat="47.485878" lon="7.736850">
        <ele>315.163831</ele>
        <time>2021-11-18T00:51:38.085Z</time>
      </trkpt>
      <trkpt lat="47.485799" lon="7.736984">
        <ele>314.946984</ele>
        <time>2021-11-18T00:51:39.440Z</time>
      </trkpt>
      <trkpt lat="47.485750" lon="7.737070">
        <ele>314.809812</ele>
        <time>2021-11-18T00:51:40.211Z</time>
      </trkpt>
      <trkpt lat="47.485806" lon="7.737111">
        <ele>314.697068</ele>
        <time>2021-11-18T00:51:40.825Z</time>
      </trkpt>
      <trkpt lat="47.485875" lon="7.737156">
        <ele>314.561001</ele>
        <time>2021-11-18T00:51:41.761Z</time>
      </trkpt>
      <trkpt lat="47.485976" lon="7.737217">
        <ele>314.364151</ele>
        <time>2021-11-18T00:51:42.989Z</time>
      </trkpt>
      <trkpt lat="47.486087" lon="7.737329">
        <ele>314.121720</ele>
        <time>2021-11-18T00:51:44.376Z</time>
      </trkpt>
      <trkpt lat="47.486287" lon="7.737642">
        <ele>313.645367</ele>
        <time>2021-11-18T00:51:47.852Z</time>
      </trkpt>
      <trkpt lat="47.486314" lon="7.737686">
        <ele>313.661225</ele>
        <time>2021-11-18T00:51:48.265Z</time>
      </trkpt>
      <trkpt lat="47.486354" lon="7.737753">
        <ele>313.685080</ele>
        <time>2021-11-18T00:51:48.898Z</time>
      </trkpt>
      <trkpt lat="47.486384" lon="7.737805">
        <ele>313.703323</ele>
        <time>2021-11-18T00:51:49.525Z</time>
      </trkpt>
      <trkpt lat="47.486495" lon="7.737981">
        <ele>313.767558</ele>
        <time>2021-11-18T00:51:51.730Z</time>
      </trkpt>
      <trkpt lat="47.486621" lon="7.738169">
        <ele>313.838207</ele>
        <time>2021-11-18T00:51:53.761Z</time>
      </trkpt>
      <trkpt lat="47.486676" lon="7.738293">
        <ele>313.877782</ele>
        <time>2021-11-18T00:51:55.183Z</time>
      </trkpt>
      <trkpt lat="47.486689" lon="7.738358">
        <ele>313.895869</ele>
        <time>2021-11-18T00:51:55.804Z</time>
      </trkpt>
      <trkpt lat="47.486696" lon="7.738489">
        <ele>313.930932</ele>
        <time>2021-11-18T00:51:56.962Z</time>
      </trkpt>
      <trkpt lat="47.486688" lon="7.738613">
        <ele>313.964168</ele>
        <time>2021-11-18T00:51:57.896Z</time>
      </trkpt>
      <trkpt lat="47.486652" lon="7.738745">
        <ele>314.002148</ele>
        <time>2021-11-18T00:51:59.455Z</time>
      </trkpt>
      <trkpt lat="47.486599" lon="7.738994">
        <ele>314.071803</ele>
        <time>2021-11-18T00:52:01.824Z</time>
      </trkpt>
      <trkpt lat="47.486588" lon="7.739167">
        <ele>314.118167</ele>
        <time>2021-11-18T00:52:03.622Z</time>
      </trkpt>
      <trkpt lat="47.486574" lon="7.739389">
        <ele>314.177658</ele>
        <time>2021-11-18T00:52:06.726Z</time>
      </trkpt>
      <trkpt lat="47.486546" lon="7.739919">
        <ele>314.319504</ele>
        <time>2021-11-18T00:52:15.156Z</time>
      </trkpt>
      <trkpt lat="47.486498" lon="7.740674">
        <ele>316.696877</ele>
        <time>2021-11-18T00:52:30.348Z</time>
      </trkpt>
      <trkpt lat="47.486493" lon="7.740755">
        <ele>316.988187</ele>
        <time>2021-11-18T00:52:31.732Z</time>
      </trkpt>
      <trkpt lat="47.486469" lon="7.741035">
        <ele>317.999044</ele>
        <time>2021-11-18T00:52:40.094Z</time>
      </trkpt>
      <trkpt lat="47.486458" lon="7.741135">
        <ele>318.361909</ele>
        <time>2021-11-18T00:52:42.757Z</time>
      </trkpt>
      <trkpt lat="47.486413" lon="7.741401">
        <ele>319.343991</ele>
        <time>2021-11-18T00:52:49.212Z</time>
      </trkpt>
      <trkpt lat="47.486335" lon="7.741716">
        <ele>320.545523</ele>
        <time>2021-11-18T00:52:58.659Z</time>
      </trkpt>
      <trkpt lat="47.486221" lon="7.742103">
        <ele>322.057536</ele>
        <time>2021-11-18T00:53:11.245Z</time>
      </trkpt>
      <trkpt lat="47.486170" lon="7.742275">
        <ele>322.730250</ele>
        <time>2021-11-18T00:53:14.631Z</time>
      </trkpt>
      <trkpt lat="47.486081" lon="7.742579">
        <ele>323.916070</ele>
        <time>2021-11-18T00:53:25.595Z</time>
      </trkpt>
      <trkpt lat="47.485726" lon="7.743655">
        <ele>328.118295</ele>
        <time>2021-11-18T00:53:56.003Z</time>
      </trkpt>
      <trkpt lat="47.485353" lon="7.744189">
        <ele>330.813577</ele>
        <time>2021-11-18T00:54:15.002Z</time>
      </trkpt>
      <trkpt lat="47.485152" lon="7.744380">
        <ele>332.054126</ele>
        <time>2021-11-18T00:54:24.658Z</time>
      </trkpt>
      <trkpt lat="47.484772" lon="7.744741">
        <ele>333.975026</ele>
        <time>2021-11-18T00:54:35.114Z</time>
      </trkpt>
      <trkpt lat="47.484727" lon="7.744803">
        <ele>334.179433</ele>
        <time>2021-11-18T00:54:36.028Z</time>
      </trkpt>
      <trkpt lat="47.484658" lon="7.744938">
        <ele>334.559702</ele>
        <time>2021-11-18T00:54:37.422Z</time>
      </trkpt>
      <trkpt lat="47.484616" lon="7.745052">
        <ele>334.851404</ele>
        <time>2021-11-18T00:54:42.651Z</time>
      </trkpt>
      <trkpt lat="47.484266" lon="7.746897">
        <ele>339.156646</ele>
        <time>2021-11-18T00:55:16.475Z</time>
      </trkpt>
      <trkpt lat="47.484176" lon="7.747166">
        <ele>340.259587</ele>
        <time>2021-11-18T00:55:25.353Z</time>
      </trkpt>
      <trkpt lat="47.483953" lon="7.747697">
        <ele>342.617914</ele>
        <time>2021-11-18T00:55:37.331Z</time>
      </trkpt>
      <trkpt lat="47.483857" lon="7.747917">
        <ele>343.605779</ele>
        <time>2021-11-18T00:55:44.311Z</time>
      </trkpt>
      <trkpt lat="47.483653" lon="7.748384">
        <ele>345.703414</ele>
        <time>2021-11-18T00:55:59.302Z</time>
      </trkpt>
      <trkpt lat="47.483455" lon="7.748863">
        <ele>347.821546</ele>
        <time>2021-11-18T00:56:15.626Z</time>
      </trkpt>
      <trkpt lat="47.483127" lon="7.749663">
        <ele>351.981621</ele>
        <time>2021-11-18T00:56:40.930Z</time>
      </trkpt>
      <trkpt lat="47.483104" lon="7.749789">
        <ele>352.620924</ele>
        <time>2021-11-18T00:56:46.574Z</time>
      </trkpt>
      <trkpt lat="47.483118" lon="7.750142">
        <ele>354.352998</ele>
        <time>2021-11-18T00:56:54.466Z</time>
      </trkpt>
      <trkpt lat="47.483212" lon="7.750380">
        <ele>355.703283</ele>
        <time>2021-11-18T00:57:03.073Z</time>
      </trkpt>
      <trkpt lat="47.483353" lon="7.750495">
        <ele>356.870222</ele>
        <time>2021-11-18T00:57:08.398Z</time>
      </trkpt>
      <trkpt lat="47.483598" lon="7.750514">
        <ele>358.648435</ele>
        <time>2021-11-18T00:57:20.522Z</time>
      </trkpt>
      <trkpt lat="47.483821" lon="7.750312">
        <ele>360.543557</ele>
        <time>2021-11-18T00:57:32.899Z</time>
      </trkpt>
      <trkpt lat="47.484079" lon="7.749775">
        <ele>364.331461</ele>
        <time>2021-11-18T00:57:54.010Z</time>
      </trkpt>
      <trkpt lat="47.484276" lon="7.749526">
        <ele>366.913727</ele>
        <time>2021-11-18T00:58:07.068Z</time>
      </trkpt>
      <trkpt lat="47.484374" lon="7.749499">
        <ele>367.907268</ele>
        <time>2021-11-18T00:58:11.973Z</time>
      </trkpt>
      <trkpt lat="47.484403" lon="7.749499">
        <ele>368.196308</ele>
        <time>2021-11-18T00:58:13.546Z</time>
      </trkpt>
      <trkpt lat="47.484462" lon="7.749511">
        <ele>368.789883</ele>
        <time>2021-11-18T00:58:16.006Z</time>
      </trkpt>
      <trkpt lat="47.484510" lon="7.749532">
        <ele>369.288766</ele>
        <time>2021-11-18T00:58:18.663Z</time>
      </trkpt>
      <trkpt lat="47.484572" lon="7.749580">
        <ele>369.986179</ele>
        <time>2021-11-18T00:58:23.818Z</time>
      </trkpt>
      <trkpt lat="47.484625" lon="7.749711">
        <ele>371.014569</ele>
        <time>2021-11-18T00:58:28.979Z</time>
      </trkpt>
      <trkpt lat="47.484700" lon="7.749896">
        <ele>372.467658</ele>
        <time>2021-11-18T00:58:36.189Z</time>
      </trkpt>
      <trkpt lat="47.484640" lon="7.750440">
        <ele>376.180250</ele>
        <time>2021-11-18T00:58:57.594Z</time>
      </trkpt>
      <trkpt lat="47.484582" lon="7.750743">
        <ele>378.301401</ele>
        <time>2021-11-18T00:59:11.250Z</time>
      </trkpt>
      <trkpt lat="47.484428" lon="7.751559">
        <ele>383.915533</ele>
        <time>2021-11-18T00:59:47.584Z</time>
      </trkpt>
      <trkpt lat="47.484067" lon="7.753436">
        <ele>396.741119</ele>
        <time>2021-11-18T01:01:01.679Z</time>
      </trkpt>
      <trkpt lat="47.483916" lon="7.754251">
        <ele>399.290057</ele>
        <time>2021-11-18T01:01:18.906Z</time>
      </trkpt>
      <trkpt lat="47.483838" lon="7.754668">
        <ele>400.276062</ele>
        <time>2021-11-18T01:01:27.201Z</time>
      </trkpt>
      <trkpt lat="47.483795" lon="7.754908">
        <ele>400.841879</ele>
        <time>2021-11-18T01:01:31.046Z</time>
      </trkpt>
      <trkpt lat="47.483754" lon="7.755239">
        <ele>401.608743</ele>
        <time>2021-11-18T01:01:36.925Z</time>
      </trkpt>
      <trkpt lat="47.483769" lon="7.756121">
        <ele>403.619321</ele>
        <time>2021-11-18T01:01:51.575Z</time>
      </trkpt>
      <trkpt lat="47.483791" lon="7.756407">
        <ele>404.436900</ele>
        <time>2021-11-18T01:01:54.130Z</time>
      </trkpt>
      <trkpt lat="47.483892" lon="7.756713">
        <ele>405.456460</ele>
        <time>2021-11-18T01:01:58.717Z</time>
      </trkpt>
      <trkpt lat="47.484252" lon="7.757357">
        <ele>407.958653</ele>
        <time>2021-11-18T01:02:10.915Z</time>
      </trkpt>
      <trkpt lat="47.484552" lon="7.757716">
        <ele>409.667907</ele>
        <time>2021-11-18T01:02:26.622Z</time>
      </trkpt>
      <trkpt lat="47.485109" lon="7.758040">
        <ele>412.974034</ele>
        <time>2021-11-18T01:02:54.559Z</time>
      </trkpt>
      <trkpt lat="47.485584" lon="7.758116">
        <ele>417.436057</ele>
        <time>2021-11-18T01:03:18.658Z</time>
      </trkpt>
      <trkpt lat="47.485622" lon="7.758125">
        <ele>417.795467</ele>
        <time>2021-11-18T01:03:22.124Z</time>
      </trkpt>
      <trkpt lat="47.485673" lon="7.758136">
        <ele>418.276804</ele>
        <time>2021-11-18T01:03:25.421Z</time>
      </trkpt>
      <trkpt lat="47.485984" lon="7.758280">
        <ele>421.320190</ele>
        <time>2021-11-18T01:03:42.064Z</time>
      </trkpt>
      <trkpt lat="47.486303" lon="7.758588">
        <ele>424.877492</ele>
        <time>2021-11-18T01:04:02.453Z</time>
      </trkpt>
      <trkpt lat="47.486484" lon="7.758798">
        <ele>427.025524</ele>
        <time>2021-11-18T01:04:13.244Z</time>
      </trkpt>
      <trkpt lat="47.486636" lon="7.758922">
        <ele>428.657538</ele>
        <time>2021-11-18T01:04:24.757Z</time>
      </trkpt>
      <trkpt lat="47.487031" lon="7.759652">
        <ele>435.101645</ele>
        <time>2021-11-18T01:04:58.002Z</time>
      </trkpt>
      <trkpt lat="47.487890" lon="7.761232">
        <ele>449.329528</ele>
        <time>2021-11-18T01:06:15.481Z</time>
      </trkpt>
      <trkpt lat="47.488339" lon="7.762200">
        <ele>458.352370</ele>
        <time>2021-11-18T01:07:02.671Z</time>
      </trkpt>
      <trkpt lat="47.488582" lon="7.762924">
        <ele>464.564692</ele>
        <time>2021-11-18T01:07:36.513Z</time>
      </trkpt>
      <trkpt lat="47.488619" lon="7.763292">
        <ele>467.432874</ele>
        <time>2021-11-18T01:07:52.074Z</time>
      </trkpt>
      <trkpt lat="47.488592" lon="7.765070">
        <ele>482.317642</ele>
        <time>2021-11-18T01:09:10.782Z</time>
      </trkpt>
      <trkpt lat="47.488674" lon="7.765750">
        <ele>488.098825</ele>
        <time>2021-11-18T01:09:40.503Z</time>
      </trkpt>
      <trkpt lat="47.488779" lon="7.766201">
        <ele>492.169700</ele>
        <time>2021-11-18T01:10:01.055Z</time>
      </trkpt>
      <trkpt lat="47.488885" lon="7.766666">
        <ele>496.406370</ele>
        <time>2021-11-18T01:10:22.001Z</time>
      </trkpt>
      <trkpt lat="47.489047" lon="7.767376">
        <ele>502.875865</ele>
        <time>2021-11-18T01:10:55.147Z</time>
      </trkpt>
      <trkpt lat="47.489106" lon="7.767650">
        <ele>505.358523</ele>
        <time>2021-11-18T01:11:07.560Z</time>
      </trkpt>
      <trkpt lat="47.489166" lon="7.767905">
        <ele>507.689597</ele>
        <time>2021-11-18T01:11:20.577Z</time>
      </trkpt>
      <trkpt lat="47.489202" lon="7.768057">
        <ele>509.080091</ele>
        <time>2021-11-18T01:11:28.766Z</time>
      </trkpt>
      <trkpt lat="47.489217" lon="7.768114">
        <ele>509.608174</ele>
        <time>2021-11-18T01:11:33.151Z</time>
      </trkpt>
      <trkpt lat="47.489260" lon="7.768283">
        <ele>511.167160</ele>
        <time>2021-11-18T01:11:40.916Z</time>
      </trkpt>
      <trkpt lat="47.489233" lon="7.768329">
        <ele>511.693178</ele>
        <time>2021-11-18T01:11:44.023Z</time>
      </trkpt>
      <trkpt lat="47.489191" lon="7.768403">
        <ele>512.527474</ele>
        <time>2021-11-18T01:11:47.726Z</time>
      </trkpt>
      <trkpt lat="47.489120" lon="7.768662">
        <ele>514.452821</ele>
        <time>2021-11-18T01:12:01.255Z</time>
      </trkpt>
      <trkpt lat="47.488934" lon="7.769333">
        <ele>519.421095</ele>
        <time>2021-11-18T01:12:31.395Z</time>
      </trkpt>
      <trkpt lat="47.488741" lon="7.769888">
        <ele>523.696933</ele>
        <time>2021-11-18T01:12:54.674Z</time>
      </trkpt>
      <trkpt lat="47.488684" lon="7.770026">
        <ele>524.804897</ele>
        <time>2021-11-18T01:13:02.654Z</time>
      </trkpt>
      <trkpt lat="47.488198" lon="7.770997">
        <ele>531.190928</ele>
        <time>2021-11-18T01:13:39.420Z</time>
      </trkpt>
      <trkpt lat="47.488008" lon="7.772013">
        <ele>532.393103</ele>
        <time>2021-11-18T01:13:59.420Z</time>
      </trkpt>
      <trkpt lat="47.487758" lon="7.772679">
        <ele>533.261914</ele>
        <time>2021-11-18T01:14:04.885Z</time>
      </trkpt>
      <trkpt lat="47.487530" lon="7.773097">
        <ele>533.862080</ele>
        <time>2021-11-18T01:14:08.792Z</time>
      </trkpt>
      <trkpt lat="47.487094" lon="7.773657">
        <ele>534.370326</ele>
        <time>2021-11-18T01:14:15.848Z</time>
      </trkpt>
      <trkpt lat="47.486703" lon="7.774131">
        <ele>534.815300</ele>
        <time>2021-11-18T01:14:25.313Z</time>
      </trkpt>
      <trkpt lat="47.486452" lon="7.774370">
        <ele>535.078061</ele>
        <time>2021-11-18T01:14:32.585Z</time>
      </trkpt>
      <trkpt lat="47.486219" lon="7.774600">
        <ele>535.324632</ele>
        <time>2021-11-18T01:14:39.947Z</time>
      </trkpt>
      <trkpt lat="47.486160" lon="7.774746">
        <ele>535.425836</ele>
        <time>2021-11-18T01:14:42.417Z</time>
      </trkpt>
      <trkpt lat="47.486126" lon="7.774937">
        <ele>535.835790</ele>
        <time>2021-11-18T01:14:46.643Z</time>
      </trkpt>
      <trkpt lat="47.486120" lon="7.775142">
        <ele>536.278393</ele>
        <time>2021-11-18T01:14:50.575Z</time>
      </trkpt>
      <trkpt lat="47.486123" lon="7.775346">
        <ele>536.718529</ele>
        <time>2021-11-18T01:14:54.346Z</time>
      </trkpt>
      <trkpt lat="47.486221" lon="7.775747">
        <ele>537.638318</ele>
        <time>2021-11-18T01:15:03.334Z</time>
      </trkpt>
      <trkpt lat="47.486352" lon="7.776140">
        <ele>538.583543</ele>
        <time>2021-11-18T01:15:14.032Z</time>
      </trkpt>
      <trkpt lat="47.486453" lon="7.776445">
        <ele>539.316174</ele>
        <time>2021-11-18T01:15:21.854Z</time>
      </trkpt>
      <trkpt lat="47.487907" lon="7.778783">
        <ele>542.863760</ele>
        <time>2021-11-18T01:16:06.343Z</time>
      </trkpt>
      <trkpt lat="47.488606" lon="7.780818">
        <ele>542.108436</ele>
        <time>2021-11-18T01:16:25.689Z</time>
      </trkpt>
      <trkpt lat="47.488675" lon="7.780934">
        <ele>542.028101</ele>
        <time>2021-11-18T01:16:27.000Z</time>
      </trkpt>
      <trkpt lat="47.488777" lon="7.781083">
        <ele>541.917846</ele>
        <time>2021-11-18T01:16:28.615Z</time>
      </trkpt>
      <trkpt lat="47.489037" lon="7.781447">
        <ele>541.769624</ele>
        <time>2021-11-18T01:16:32.881Z</time>
      </trkpt>
      <trkpt lat="47.489418" lon="7.781971">
        <ele>541.937725</ele>
        <time>2021-11-18T01:16:39.286Z</time>
      </trkpt>
      <trkpt lat="47.490287" lon="7.783171">
        <ele>542.448366</ele>
        <time>2021-11-18T01:17:00.478Z</time>
      </trkpt>
      <trkpt lat="47.490527" lon="7.783532">
        <ele>544.199238</ele>
        <time>2021-11-18T01:17:09.126Z</time>
      </trkpt>
      <trkpt lat="47.490609" lon="7.783692">
        <ele>544.893506</ele>
        <time>2021-11-18T01:17:12.380Z</time>
      </trkpt>
      <trkpt lat="47.490633" lon="7.783833">
        <ele>545.396207</ele>
        <time>2021-11-18T01:17:15.687Z</time>
      </trkpt>
      <trkpt lat="47.490689" lon="7.784199">
        <ele>546.693594</ele>
        <time>2021-11-18T01:17:22.254Z</time>
      </trkpt>
      <trkpt lat="47.490723" lon="7.784422">
        <ele>547.483942</ele>
        <time>2021-11-18T01:17:28.291Z</time>
      </trkpt>
      <trkpt lat="47.490860" lon="7.785128">
        <ele>550.023411</ele>
        <time>2021-11-18T01:17:48.890Z</time>
      </trkpt>
      <trkpt lat="47.490876" lon="7.785414">
        <ele>551.015563</ele>
        <time>2021-11-18T01:17:58.424Z</time>
      </trkpt>
      <trkpt lat="47.490808" lon="7.785962">
        <ele>554.213620</ele>
        <time>2021-11-18T01:18:17.485Z</time>
      </trkpt>
      <trkpt lat="47.490637" lon="7.786369">
        <ele>557.348530</ele>
        <time>2021-11-18T01:18:35.984Z</time>
      </trkpt>
      <trkpt lat="47.490588" lon="7.786449">
        <ele>558.054809</ele>
        <time>2021-11-18T01:18:41.086Z</time>
      </trkpt>
      <trkpt lat="47.490524" lon="7.786562">
        <ele>559.019265</ele>
        <time>2021-11-18T01:18:45.723Z</time>
      </trkpt>
      <trkpt lat="47.490217" lon="7.787045">
        <ele>563.356745</ele>
        <time>2021-11-18T01:19:10.451Z</time>
      </trkpt>
      <trkpt lat="47.489788" lon="7.787865">
        <ele>569.709733</ele>
        <time>2021-11-18T01:19:48.533Z</time>
      </trkpt>
      <trkpt lat="47.489723" lon="7.788036">
        <ele>570.537470</ele>
        <time>2021-11-18T01:19:56.934Z</time>
      </trkpt>
      <trkpt lat="47.489691" lon="7.788200">
        <ele>571.257632</ele>
        <time>2021-11-18T01:20:02.954Z</time>
      </trkpt>
      <trkpt lat="47.489663" lon="7.788691">
        <ele>573.336457</ele>
        <time>2021-11-18T01:20:19.279Z</time>
      </trkpt>
      <trkpt lat="47.489823" lon="7.789549">
        <ele>577.091549</ele>
        <time>2021-11-18T01:20:42.025Z</time>
      </trkpt>
      <trkpt lat="47.489925" lon="7.791008">
        <ele>580.449255</ele>
        <time>2021-11-18T01:21:06.491Z</time>
      </trkpt>
      <trkpt lat="47.489971" lon="7.791599">
        <ele>580.683897</ele>
        <time>2021-11-18T01:21:13.455Z</time>
      </trkpt>
      <trkpt lat="47.489987" lon="7.791819">
        <ele>580.771170</ele>
        <time>2021-11-18T01:21:15.946Z</time>
      </trkpt>
      <trkpt lat="47.490118" lon="7.793776">
        <ele>578.966808</ele>
        <time>2021-11-18T01:21:32.739Z</time>
      </trkpt>
      <trkpt lat="47.490137" lon="7.796120">
        <ele>571.439081</ele>
        <time>2021-11-18T01:21:47.565Z</time>
      </trkpt>
      <trkpt lat="47.490229" lon="7.796508">
        <ele>569.288366</ele>
        <time>2021-11-18T01:21:50.009Z</time>
      </trkpt>
      <trkpt lat="47.490482" lon="7.797579">
        <ele>563.354169</ele>
        <time>2021-11-18T01:21:56.744Z</time>
      </trkpt>
      <trkpt lat="47.490613" lon="7.798182">
        <ele>560.102292</ele>
        <time>2021-11-18T01:22:00.452Z</time>
      </trkpt>
      <trkpt lat="47.490919" lon="7.798941">
        <ele>556.368323</ele>
        <time>2021-11-18T01:22:05.679Z</time>
      </trkpt>
      <trkpt lat="47.491125" lon="7.799903">
        <ele>552.104935</ele>
        <time>2021-11-18T01:22:11.910Z</time>
      </trkpt>
      <trkpt lat="47.491207" lon="7.800233">
        <ele>550.619500</ele>
        <time>2021-11-18T01:22:14.157Z</time>
      </trkpt>
      <trkpt lat="47.491266" lon="7.800470">
        <ele>549.552453</ele>
        <time>2021-11-18T01:22:15.931Z</time>
      </trkpt>
      <trkpt lat="47.491393" lon="7.801006">
        <ele>549.577501</ele>
        <time>2021-11-18T01:22:19.945Z</time>
      </trkpt>
      <trkpt lat="47.491405" lon="7.801118">
        <ele>549.691020</ele>
        <time>2021-11-18T01:22:20.713Z</time>
      </trkpt>
      <trkpt lat="47.491420" lon="7.801300">
        <ele>549.874561</ele>
        <time>2021-11-18T01:22:22.141Z</time>
      </trkpt>
      <trkpt lat="47.491399" lon="7.802037">
        <ele>550.612992</ele>
        <time>2021-11-18T01:22:30.123Z</time>
      </trkpt>
      <trkpt lat="47.491604" lon="7.802704">
        <ele>551.346519</ele>
        <time>2021-11-18T01:22:41.586Z</time>
      </trkpt>
      <trkpt lat="47.491641" lon="7.802949">
        <ele>551.597826</ele>
        <time>2021-11-18T01:22:46.891Z</time>
      </trkpt>
      <trkpt lat="47.491627" lon="7.803075">
        <ele>551.725652</ele>
        <time>2021-11-18T01:22:52.368Z</time>
      </trkpt>
      <trkpt lat="47.491556" lon="7.803362">
        <ele>553.652678</ele>
        <time>2021-11-18T01:23:01.591Z</time>
      </trkpt>
      <trkpt lat="47.491486" lon="7.803573">
        <ele>555.390442</ele>
        <time>2021-11-18T01:23:12.764Z</time>
      </trkpt>
      <trkpt lat="47.491467" lon="7.803711">
        <ele>556.431620</ele>
        <time>2021-11-18T01:23:19.747Z</time>
      </trkpt>
      <trkpt lat="47.491463" lon="7.803928">
        <ele>558.036468</ele>
        <time>2021-11-18T01:23:29.210Z</time>
      </trkpt>
      <trkpt lat="47.491423" lon="7.804002">
        <ele>558.737052</ele>
        <time>2021-11-18T01:23:36.035Z</time>
      </trkpt>
      <trkpt lat="47.491177" lon="7.804268">
        <ele>562.070414</ele>
        <time>2021-11-18T01:23:53.340Z</time>
      </trkpt>
      <trkpt lat="47.490972" lon="7.804817">
        <ele>566.707633</ele>
        <time>2021-11-18T01:24:24.360Z</time>
      </trkpt>
      <trkpt lat="47.490914" lon="7.804913">
        <ele>567.659682</ele>
        <time>2021-11-18T01:24:29.139Z</time>
      </trkpt>
      <trkpt lat="47.490692" lon="7.805224">
        <ele>571.004225</ele>
        <time>2021-11-18T01:24:49.583Z</time>
      </trkpt>
      <trkpt lat="47.490528" lon="7.805558">
        <ele>573.342355</ele>
        <time>2021-11-18T01:25:01.915Z</time>
      </trkpt>
      <trkpt lat="47.490509" lon="7.805657">
        <ele>573.894189</ele>
        <time>2021-11-18T01:25:09.348Z</time>
      </trkpt>
      <trkpt lat="47.490507" lon="7.805711">
        <ele>574.184171</ele>
        <time>2021-11-18T01:25:09.713Z</time>
      </trkpt>
      <trkpt lat="47.490538" lon="7.805979">
        <ele>575.642091</ele>
        <time>2021-11-18T01:25:18.701Z</time>
      </trkpt>
      <trkpt lat="47.490574" lon="7.806137">
        <ele>576.536154</ele>
        <time>2021-11-18T01:25:24.659Z</time>
      </trkpt>
      <trkpt lat="47.490633" lon="7.806304">
        <ele>577.546615</ele>
        <time>2021-11-18T01:25:30.921Z</time>
      </trkpt>
      <trkpt lat="47.490886" lon="7.806854">
        <ele>581.114209</ele>
        <time>2021-11-18T01:25:54.133Z</time>
      </trkpt>
      <trkpt lat="47.490987" lon="7.807452">
        <ele>584.419308</ele>
        <time>2021-11-18T01:26:10.044Z</time>
      </trkpt>
      <trkpt lat="47.491021" lon="7.807539">
        <ele>584.958201</ele>
        <time>2021-11-18T01:26:12.323Z</time>
      </trkpt>
      <trkpt lat="47.491259" lon="7.808151">
        <ele>585.862913</ele>
        <time>2021-11-18T01:26:22.945Z</time>
      </trkpt>
      <trkpt lat="47.491350" lon="7.808391">
        <ele>585.928175</ele>
        <time>2021-11-18T01:26:27.582Z</time>
      </trkpt>
      <trkpt lat="47.491452" lon="7.808947">
        <ele>586.064799</ele>
        <time>2021-11-18T01:26:34.872Z</time>
      </trkpt>
      <trkpt lat="47.491490" lon="7.809341">
        <ele>586.159179</ele>
        <time>2021-11-18T01:26:38.526Z</time>
      </trkpt>
      <trkpt lat="47.491540" lon="7.809874">
        <ele>586.286787</ele>
        <time>2021-11-18T01:26:43.149Z</time>
      </trkpt>
      <trkpt lat="47.491544" lon="7.810309">
        <ele>585.815969</ele>
        <time>2021-11-18T01:26:46.012Z</time>
      </trkpt>
      <trkpt lat="47.491483" lon="7.810733">
        <ele>583.893251</ele>
        <time>2021-11-18T01:26:49.052Z</time>
      </trkpt>
      <trkpt lat="47.491462" lon="7.810822">
        <ele>583.475135</ele>
        <time>2021-11-18T01:26:49.596Z</time>
      </trkpt>
      <trkpt lat="47.491417" lon="7.811033">
        <ele>582.493778</ele>
        <time>2021-11-18T01:26:51.108Z</time>
      </trkpt>
      <trkpt lat="47.491536" lon="7.811112">
        <ele>581.637674</ele>
        <time>2021-11-18T01:26:52.319Z</time>
      </trkpt>
      <trkpt lat="47.491701" lon="7.811206">
        <ele>580.477140</ele>
        <time>2021-11-18T01:26:53.881Z</time>
      </trkpt>
      <trkpt lat="47.492165" lon="7.811273">
        <ele>577.416980</ele>
        <time>2021-11-18T01:26:58.046Z</time>
      </trkpt>
      <trkpt lat="47.492224" lon="7.811327">
        <ele>576.961629</ele>
        <time>2021-11-18T01:26:58.670Z</time>
      </trkpt>
      <trkpt lat="47.492257" lon="7.811384">
        <ele>576.628714</ele>
        <time>2021-11-18T01:26:59.088Z</time>
      </trkpt>
      <trkpt lat="47.492273" lon="7.811452">
        <ele>576.309355</ele>
        <time>2021-11-18T01:26:59.497Z</time>
      </trkpt>
      <trkpt lat="47.492264" lon="7.811614">
        <ele>575.588424</ele>
        <time>2021-11-18T01:27:00.526Z</time>
      </trkpt>
      <trkpt lat="47.492176" lon="7.811763">
        <ele>574.710710</ele>
        <time>2021-11-18T01:27:01.715Z</time>
      </trkpt>
      <trkpt lat="47.492008" lon="7.811905">
        <ele>572.255987</ele>
        <time>2021-11-18T01:27:03.350Z</time>
      </trkpt>
      <trkpt lat="47.491595" lon="7.812210">
        <ele>566.003287</ele>
        <time>2021-11-18T01:27:07.348Z</time>
      </trkpt>
      <trkpt lat="47.491212" lon="7.812513">
        <ele>560.120079</ele>
        <time>2021-11-18T01:27:10.947Z</time>
      </trkpt>
      <trkpt lat="47.491001" lon="7.812847">
        <ele>555.934697</ele>
        <time>2021-11-18T01:27:13.492Z</time>
      </trkpt>
      <trkpt lat="47.490928" lon="7.813010">
        <ele>554.144684</ele>
        <time>2021-11-18T01:27:14.576Z</time>
      </trkpt>
      <trkpt lat="47.490609" lon="7.813824">
        <ele>545.488089</ele>
        <time>2021-11-18T01:27:20.024Z</time>
      </trkpt>
      <trkpt lat="47.490583" lon="7.813886">
        <ele>544.813976</ele>
        <time>2021-11-18T01:27:20.469Z</time>
      </trkpt>
      <trkpt lat="47.490141" lon="7.814910">
        <ele>533.588554</ele>
        <time>2021-11-18T01:27:27.508Z</time>
      </trkpt>
      <trkpt lat="47.489951" lon="7.815143">
        <ele>530.214934</ele>
        <time>2021-11-18T01:27:29.547Z</time>
      </trkpt>
      <trkpt lat="47.489256" lon="7.815700">
        <ele>518.450252</ele>
        <time>2021-11-18T01:27:36.140Z</time>
      </trkpt>
      <trkpt lat="47.489000" lon="7.816098">
        <ele>512.587375</ele>
        <time>2021-11-18T01:27:39.216Z</time>
      </trkpt>
      <trkpt lat="47.488831" lon="7.816489">
        <ele>507.635014</ele>
        <time>2021-11-18T01:27:41.843Z</time>
      </trkpt>
      <trkpt lat="47.488720" lon="7.816914">
        <ele>502.773381</ele>
        <time>2021-11-18T01:27:44.462Z</time>
      </trkpt>
      <trkpt lat="47.488531" lon="7.818236">
        <ele>496.350952</ele>
        <time>2021-11-18T01:27:52.860Z</time>
      </trkpt>
      <trkpt lat="47.488476" lon="7.818598">
        <ele>495.972080</ele>
        <time>2021-11-18T01:27:54.914Z</time>
      </trkpt>
      <trkpt lat="47.488471" lon="7.818631">
        <ele>495.937547</ele>
        <time>2021-11-18T01:28:00.630Z</time>
      </trkpt>
      <trkpt lat="47.488351" lon="7.819266">
        <ele>495.264258</ele>
        <time>2021-11-18T01:28:05.593Z</time>
      </trkpt>
      <trkpt lat="47.488069" lon="7.819771">
        <ele>494.595302</ele>
        <time>2021-11-18T01:28:10.615Z</time>
      </trkpt>
      <trkpt lat="47.488038" lon="7.819855">
        <ele>494.497569</ele>
        <time>2021-11-18T01:28:14.585Z</time>
      </trkpt>
      <trkpt lat="47.488034" lon="7.819897">
        <ele>494.531549</ele>
        <time>2021-11-18T01:28:14.817Z</time>
      </trkpt>
      <trkpt lat="47.488272" lon="7.820957">
        <ele>496.933676</ele>
        <time>2021-11-18T01:29:10.231Z</time>
      </trkpt>
      <trkpt lat="47.488407" lon="7.821368">
        <ele>497.916438</ele>
        <time>2021-11-18T01:29:22.372Z</time>
      </trkpt>
      <trkpt lat="47.488631" lon="7.821707">
        <ele>498.936088</ele>
        <time>2021-11-18T01:29:26.770Z</time>
      </trkpt>
      <trkpt lat="47.489169" lon="7.822169">
        <ele>497.704622</ele>
        <time>2021-11-18T01:29:32.398Z</time>
      </trkpt>
      <trkpt lat="47.489263" lon="7.822249">
        <ele>496.494100</ele>
        <time>2021-11-18T01:29:33.316Z</time>
      </trkpt>
      <trkpt lat="47.489383" lon="7.822351">
        <ele>494.949235</ele>
        <time>2021-11-18T01:29:34.536Z</time>
      </trkpt>
      <trkpt lat="47.489514" lon="7.822403">
        <ele>493.435123</ele>
        <time>2021-11-18T01:29:35.671Z</time>
      </trkpt>
      <trkpt lat="47.489808" lon="7.822489">
        <ele>490.089556</ele>
        <time>2021-11-18T01:29:38.218Z</time>
      </trkpt>
      <trkpt lat="47.490467" lon="7.822385">
        <ele>482.691103</ele>
        <time>2021-11-18T01:29:43.794Z</time>
      </trkpt>
      <trkpt lat="47.490703" lon="7.822453">
        <ele>479.997491</ele>
        <time>2021-11-18T01:29:45.791Z</time>
      </trkpt>
      <trkpt lat="47.491130" lon="7.822694">
        <ele>474.479514</ele>
        <time>2021-11-18T01:29:49.591Z</time>
      </trkpt>
      <trkpt lat="47.492112" lon="7.823401">
        <ele>461.293868</ele>
        <time>2021-11-18T01:29:58.865Z</time>
      </trkpt>
      <trkpt lat="47.492353" lon="7.823575">
        <ele>458.168641</ele>
        <time>2021-11-18T01:30:01.141Z</time>
      </trkpt>
      <trkpt lat="47.492649" lon="7.823801">
        <ele>455.437788</ele>
        <time>2021-11-18T01:30:04.010Z</time>
      </trkpt>
      <trkpt lat="47.492910" lon="7.823929">
        <ele>453.183401</ele>
        <time>2021-11-18T01:30:06.403Z</time>
      </trkpt>
      <trkpt lat="47.492975" lon="7.823894">
        <ele>452.616285</ele>
        <time>2021-11-18T01:30:07.007Z</time>
      </trkpt>
      <trkpt lat="47.493041" lon="7.823859">
        <ele>452.041457</ele>
        <time>2021-11-18T01:30:07.636Z</time>
      </trkpt>
      <trkpt lat="47.493084" lon="7.823708">
        <ele>451.133667</ele>
        <time>2021-11-18T01:30:08.655Z</time>
      </trkpt>
      <trkpt lat="47.493025" lon="7.823293">
        <ele>448.784250</ele>
        <time>2021-11-18T01:30:11.167Z</time>
      </trkpt>
      <trkpt lat="47.493047" lon="7.823163">
        <ele>448.041812</ele>
        <time>2021-11-18T01:30:11.996Z</time>
      </trkpt>
      <trkpt lat="47.493066" lon="7.823134">
        <ele>447.818029</ele>
        <time>2021-11-18T01:30:12.245Z</time>
      </trkpt>
      <trkpt lat="47.493081" lon="7.823112">
        <ele>447.644881</ele>
        <time>2021-11-18T01:30:12.416Z</time>
      </trkpt>
      <trkpt lat="47.493228" lon="7.823059">
        <ele>446.404370</ele>
        <time>2021-11-18T01:30:13.756Z</time>
      </trkpt>
      <trkpt lat="47.493409" lon="7.823156">
        <ele>444.826043</ele>
        <time>2021-11-18T01:30:15.612Z</time>
      </trkpt>
      <trkpt lat="47.493592" lon="7.823360">
        <ele>443.351550</ele>
        <time>2021-11-18T01:30:17.714Z</time>
      </trkpt>
      <trkpt lat="47.493696" lon="7.823573">
        <ele>442.721807</ele>
        <time>2021-11-18T01:30:19.345Z</time>
      </trkpt>
      <trkpt lat="47.493699" lon="7.823782">
        <ele>442.220859</ele>
        <time>2021-11-18T01:30:20.728Z</time>
      </trkpt>
      <trkpt lat="47.493509" lon="7.824560">
        <ele>440.238464</ele>
        <time>2021-11-18T01:30:26.026Z</time>
      </trkpt>
      <trkpt lat="47.493537" lon="7.824674">
        <ele>439.947791</ele>
        <time>2021-11-18T01:30:26.807Z</time>
      </trkpt>
      <trkpt lat="47.493647" lon="7.824596">
        <ele>439.515199</ele>
        <time>2021-11-18T01:30:28.069Z</time>
      </trkpt>
      <trkpt lat="47.493875" lon="7.824391">
        <ele>438.569049</ele>
        <time>2021-11-18T01:30:31.241Z</time>
      </trkpt>
      <trkpt lat="47.493969" lon="7.824265">
        <ele>438.119262</ele>
        <time>2021-11-18T01:30:32.671Z</time>
      </trkpt>
      <trkpt lat="47.494072" lon="7.824126">
        <ele>437.624902</ele>
        <time>2021-11-18T01:30:35.087Z</time>
      </trkpt>
      <trkpt lat="47.494316" lon="7.823809">
        <ele>437.269462</ele>
        <time>2021-11-18T01:30:39.340Z</time>
      </trkpt>
      <trkpt lat="47.494522" lon="7.823673">
        <ele>437.258616</ele>
        <time>2021-11-18T01:30:41.756Z</time>
      </trkpt>
      <trkpt lat="47.494652" lon="7.823597">
        <ele>437.251894</ele>
        <time>2021-11-18T01:30:44.318Z</time>
      </trkpt>
      <trkpt lat="47.494910" lon="7.823403">
        <ele>437.237979</ele>
        <time>2021-11-18T01:30:47.940Z</time>
      </trkpt>
      <trkpt lat="47.494984" lon="7.823371">
        <ele>437.234272</ele>
        <time>2021-11-18T01:30:51.118Z</time>
      </trkpt>
      <trkpt lat="47.495379" lon="7.823313">
        <ele>437.215185</ele>
        <time>2021-11-18T01:30:57.876Z</time>
      </trkpt>
      <trkpt lat="47.495577" lon="7.823253">
        <ele>437.205466</ele>
        <time>2021-11-18T01:31:00.033Z</time>
      </trkpt>
      <trkpt lat="47.495873" lon="7.823177">
        <ele>437.118092</ele>
        <time>2021-11-18T01:31:04.106Z</time>
      </trkpt>
      <trkpt lat="47.496106" lon="7.823142">
        <ele>436.823033</ele>
        <time>2021-11-18T01:31:11.685Z</time>
      </trkpt>
      <trkpt lat="47.496254" lon="7.823140">
        <ele>436.636563</ele>
        <time>2021-11-18T01:31:13.059Z</time>
      </trkpt>
      <trkpt lat="47.496320" lon="7.823139">
        <ele>436.553407</ele>
        <time>2021-11-18T01:31:16.527Z</time>
      </trkpt>
      <trkpt lat="47.496375" lon="7.823140">
        <ele>436.484108</ele>
        <time>2021-11-18T01:31:19.256Z</time>
      </trkpt>
      <trkpt lat="47.496704" lon="7.823163">
        <ele>436.069146</ele>
        <time>2021-11-18T01:31:23.094Z</time>
      </trkpt>
      <trkpt lat="47.496927" lon="7.823151">
        <ele>435.788008</ele>
        <time>2021-11-18T01:31:25.240Z</time>
      </trkpt>
      <trkpt lat="47.497246" lon="7.823247">
        <ele>435.377884</ele>
        <time>2021-11-18T01:31:28.785Z</time>
      </trkpt>
      <trkpt lat="47.498162" lon="7.823883">
        <ele>431.780321</ele>
        <time>2021-11-18T01:31:39.584Z</time>
      </trkpt>
      <trkpt lat="47.498343" lon="7.824061">
        <ele>430.735379</ele>
        <time>2021-11-18T01:31:41.642Z</time>
      </trkpt>
      <trkpt lat="47.498586" lon="7.824227">
        <ele>429.448457</ele>
        <time>2021-11-18T01:31:44.200Z</time>
      </trkpt>
      <trkpt lat="47.499488" lon="7.824926">
        <ele>423.339125</ele>
        <time>2021-11-18T01:31:53.328Z</time>
      </trkpt>
      <trkpt lat="47.499602" lon="7.824975">
        <ele>422.367046</ele>
        <time>2021-11-18T01:31:54.369Z</time>
      </trkpt>
      <trkpt lat="47.499714" lon="7.825011">
        <ele>421.428531</ele>
        <time>2021-11-18T01:31:55.352Z</time>
      </trkpt>
      <trkpt lat="47.500062" lon="7.825087">
        <ele>418.547998</ele>
        <time>2021-11-18T01:31:58.447Z</time>
      </trkpt>
      <trkpt lat="47.500269" lon="7.825147">
        <ele>416.820735</ele>
        <time>2021-11-18T01:32:00.339Z</time>
      </trkpt>
      <trkpt lat="47.500385" lon="7.825189">
        <ele>415.842836</ele>
        <time>2021-11-18T01:32:01.361Z</time>
      </trkpt>
      <trkpt lat="47.501557" lon="7.825705">
        <ele>407.111107</ele>
        <time>2021-11-18T01:32:12.070Z</time>
      </trkpt>
      <trkpt lat="47.502825" lon="7.825809">
        <ele>399.749094</ele>
        <time>2021-11-18T01:32:23.980Z</time>
      </trkpt>
      <trkpt lat="47.503143" lon="7.825808">
        <ele>399.054488</ele>
        <time>2021-11-18T01:32:27.208Z</time>
      </trkpt>
      <trkpt lat="47.503195" lon="7.825807">
        <ele>398.940896</ele>
        <time>2021-11-18T01:32:27.777Z</time>
      </trkpt>
      <trkpt lat="47.503225" lon="7.825809">
        <ele>398.875301</ele>
        <time>2021-11-18T01:32:28.110Z</time>
      </trkpt>
      <trkpt lat="47.503509" lon="7.825771">
        <ele>398.252434</ele>
        <time>2021-11-18T01:32:31.129Z</time>
      </trkpt>
      <trkpt lat="47.503860" lon="7.825735">
        <ele>397.483910</ele>
        <time>2021-11-18T01:32:35.062Z</time>
      </trkpt>
      <trkpt lat="47.504813" lon="7.825703">
        <ele>396.223454</ele>
        <time>2021-11-18T01:32:47.671Z</time>
      </trkpt>
      <trkpt lat="47.506147" lon="7.825028">
        <ele>396.348671</ele>
        <time>2021-11-18T01:33:10.765Z</time>
      </trkpt>
      <trkpt lat="47.507017" lon="7.824678">
        <ele>395.200098</ele>
        <time>2021-11-18T01:33:24.341Z</time>
      </trkpt>
      <trkpt lat="47.507990" lon="7.824326">
        <ele>393.561826</ele>
        <time>2021-11-18T01:33:35.125Z</time>
      </trkpt>
      <trkpt lat="47.508288" lon="7.824180">
        <ele>391.849049</ele>
        <time>2021-11-18T01:33:38.207Z</time>
      </trkpt>
      <trkpt lat="47.509075" lon="7.823456">
        <ele>386.793183</ele>
        <time>2021-11-18T01:33:46.733Z</time>
      </trkpt>
      <trkpt lat="47.509744" lon="7.823275">
        <ele>383.049690</ele>
        <time>2021-11-18T01:33:52.808Z</time>
      </trkpt>
      <trkpt lat="47.510203" lon="7.823212">
        <ele>380.458870</ele>
        <time>2021-11-18T01:33:57.029Z</time>
      </trkpt>
      <trkpt lat="47.510706" lon="7.823221">
        <ele>377.631611</ele>
        <time>2021-11-18T01:34:01.669Z</time>
      </trkpt>
      <trkpt lat="47.511863" lon="7.823271">
        <ele>372.838585</ele>
        <time>2021-11-18T01:34:12.713Z</time>
      </trkpt>
      <trkpt lat="47.512067" lon="7.823229">
        <ele>372.356798</ele>
        <time>2021-11-18T01:34:14.928Z</time>
      </trkpt>
      <trkpt lat="47.512263" lon="7.823167">
        <ele>371.887968</ele>
        <time>2021-11-18T01:34:17.062Z</time>
      </trkpt>
      <trkpt lat="47.512648" lon="7.822935">
        <ele>370.915640</ele>
        <time>2021-11-18T01:34:21.889Z</time>
      </trkpt>
      <trkpt lat="47.513483" lon="7.822231">
        <ele>369.206574</ele>
        <time>2021-11-18T01:34:34.898Z</time>
      </trkpt>
      <trkpt lat="47.514302" lon="7.821660">
        <ele>368.052241</ele>
        <time>2021-11-18T01:34:46.384Z</time>
      </trkpt>
      <trkpt lat="47.514708" lon="7.821376">
        <ele>367.289989</ele>
        <time>2021-11-18T01:34:51.031Z</time>
      </trkpt>
      <trkpt lat="47.514821" lon="7.821292">
        <ele>366.741173</ele>
        <time>2021-11-18T01:34:52.367Z</time>
      </trkpt>
      <trkpt lat="47.515036" lon="7.821090">
        <ele>365.635952</ele>
        <time>2021-11-18T01:34:54.878Z</time>
      </trkpt>
      <trkpt lat="47.515202" lon="7.820909">
        <ele>364.741146</ele>
        <time>2021-11-18T01:34:56.951Z</time>
      </trkpt>
      <trkpt lat="47.515268" lon="7.820836">
        <ele>364.383570</ele>
        <time>2021-11-18T01:34:57.702Z</time>
      </trkpt>
      <trkpt lat="47.515469" lon="7.820644">
        <ele>363.345337</ele>
        <time>2021-11-18T01:35:00.076Z</time>
      </trkpt>
      <trkpt lat="47.515587" lon="7.820532">
        <ele>362.736964</ele>
        <time>2021-11-18T01:35:01.358Z</time>
      </trkpt>
      <trkpt lat="47.516786" lon="7.819655">
        <ele>357.394932</ele>
        <time>2021-11-18T01:35:13.813Z</time>
      </trkpt>
      <trkpt lat="47.517657" lon="7.818442">
        <ele>353.133031</ele>
        <time>2021-11-18T01:35:26.231Z</time>
      </trkpt>
      <trkpt lat="47.518035" lon="7.818005">
        <ele>352.180984</ele>
        <time>2021-11-18T01:35:31.622Z</time>
      </trkpt>
      <trkpt lat="47.518220" lon="7.817823">
        <ele>351.740048</ele>
        <time>2021-11-18T01:35:34.156Z</time>
      </trkpt>
      <trkpt lat="47.518481" lon="7.817598">
        <ele>351.140491</ele>
        <time>2021-11-18T01:35:37.606Z</time>
      </trkpt>
      <trkpt lat="47.518941" lon="7.817228">
        <ele>350.101258</ele>
        <time>2021-11-18T01:35:43.402Z</time>
      </trkpt>
      <trkpt lat="47.519453" lon="7.816861">
        <ele>348.719175</ele>
        <time>2021-11-18T01:35:49.593Z</time>
      </trkpt>
      <trkpt lat="47.519807" lon="7.816661">
        <ele>347.688520</ele>
        <time>2021-11-18T01:35:53.529Z</time>
      </trkpt>
      <trkpt lat="47.519959" lon="7.816575">
        <ele>347.245898</ele>
        <time>2021-11-18T01:35:55.262Z</time>
      </trkpt>
      <trkpt lat="47.520002" lon="7.816556">
        <ele>347.123834</ele>
        <time>2021-11-18T01:35:55.706Z</time>
      </trkpt>
      <trkpt lat="47.520578" lon="7.816306">
        <ele>345.491091</ele>
        <time>2021-11-18T01:36:01.832Z</time>
      </trkpt>
      <trkpt lat="47.521028" lon="7.816163">
        <ele>344.240019</ele>
        <time>2021-11-18T01:36:06.558Z</time>
      </trkpt>
      <trkpt lat="47.521087" lon="7.816144">
        <ele>344.076053</ele>
        <time>2021-11-18T01:36:07.118Z</time>
      </trkpt>
      <trkpt lat="47.521199" lon="7.816108">
        <ele>343.764822</ele>
        <time>2021-11-18T01:36:08.321Z</time>
      </trkpt>
      <trkpt lat="47.521383" lon="7.816075">
        <ele>343.261498</ele>
        <time>2021-11-18T01:36:10.287Z</time>
      </trkpt>
      <trkpt lat="47.521699" lon="7.816019">
        <ele>342.397242</ele>
        <time>2021-11-18T01:36:13.575Z</time>
      </trkpt>
      <trkpt lat="47.521870" lon="7.815989">
        <ele>341.929626</ele>
        <time>2021-11-18T01:36:15.330Z</time>
      </trkpt>
      <trkpt lat="47.522090" lon="7.815952">
        <ele>341.328351</ele>
        <time>2021-11-18T01:36:17.819Z</time>
      </trkpt>
      <trkpt lat="47.523608" lon="7.815695">
        <ele>337.293029</ele>
        <time>2021-11-18T01:36:33.884Z</time>
      </trkpt>
      <trkpt lat="47.523730" lon="7.815653">
        <ele>336.967237</ele>
        <time>2021-11-18T01:36:35.195Z</time>
      </trkpt>
      <trkpt lat="47.523757" lon="7.815629">
        <ele>336.885328</ele>
        <time>2021-11-18T01:36:35.478Z</time>
      </trkpt>
      <trkpt lat="47.523836" lon="7.814923">
        <ele>335.628358</ele>
        <time>2021-11-18T01:36:40.712Z</time>
      </trkpt>
      <trkpt lat="47.523994" lon="7.814691">
        <ele>335.077859</ele>
        <time>2021-11-18T01:36:42.999Z</time>
      </trkpt>
      <trkpt lat="47.524032" lon="7.814643">
        <ele>334.972435</ele>
        <time>2021-11-18T01:36:43.511Z</time>
      </trkpt>
      <trkpt lat="47.524286" lon="7.814362">
        <ele>334.303217</ele>
        <time>2021-11-18T01:36:46.844Z</time>
      </trkpt>
      <trkpt lat="47.524601" lon="7.814100">
        <ele>333.540637</ele>
        <time>2021-11-18T01:36:50.619Z</time>
      </trkpt>
      <trkpt lat="47.524645" lon="7.814069">
        <ele>333.437789</ele>
        <time>2021-11-18T01:36:51.144Z</time>
      </trkpt>
      <trkpt lat="47.524963" lon="7.813836">
        <ele>332.688907</ele>
        <time>2021-11-18T01:36:55.080Z</time>
      </trkpt>
      <trkpt lat="47.524982" lon="7.813822">
        <ele>332.644113</ele>
        <time>2021-11-18T01:36:55.321Z</time>
      </trkpt>
      <trkpt lat="47.525103" lon="7.813754">
        <ele>332.370940</ele>
        <time>2021-11-18T01:36:56.807Z</time>
      </trkpt>
      <trkpt lat="47.525265" lon="7.813766">
        <ele>332.028572</ele>
        <time>2021-11-18T01:36:58.525Z</time>
      </trkpt>
      <trkpt lat="47.525640" lon="7.813941">
        <ele>331.355849</ele>
        <time>2021-11-18T01:37:03.067Z</time>
      </trkpt>
      <trkpt lat="47.525829" lon="7.814027">
        <ele>331.259569</ele>
        <time>2021-11-18T01:37:05.405Z</time>
      </trkpt>
      <trkpt lat="47.525874" lon="7.814072">
        <ele>331.233128</ele>
        <time>2021-11-18T01:37:06.020Z</time>
      </trkpt>
      <trkpt lat="47.526135" lon="7.814494">
        <ele>331.044959</ele>
        <time>2021-11-18T01:37:10.677Z</time>
      </trkpt>
      <trkpt lat="47.526394" lon="7.814809">
        <ele>330.881759</ele>
        <time>2021-11-18T01:37:14.995Z</time>
      </trkpt>
      <trkpt lat="47.526478" lon="7.814853">
        <ele>330.838372</ele>
        <time>2021-11-18T01:37:16.247Z</time>
      </trkpt>
      <trkpt lat="47.526579" lon="7.814859">
        <ele>330.789150</ele>
        <time>2021-11-18T01:37:17.803Z</time>
      </trkpt>
      <trkpt lat="47.526655" lon="7.814822">
        <ele>330.750194</ele>
        <time>2021-11-18T01:37:18.919Z</time>
      </trkpt>
      <trkpt lat="47.526665" lon="7.814850">
        <ele>330.739778</ele>
        <time>2021-11-18T01:37:19.201Z</time>
      </trkpt>
      <trkpt lat="47.527105" lon="7.815211">
        <ele>330.640245</ele>
        <time>2021-11-18T01:37:27.516Z</time>
      </trkpt>
      <trkpt lat="47.527153" lon="7.815269">
        <ele>330.745896</ele>
        <time>2021-11-18T01:37:28.699Z</time>
      </trkpt>
      <trkpt lat="47.527206" lon="7.815349">
        <ele>330.874958</ele>
        <time>2021-11-18T01:37:30.303Z</time>
      </trkpt>
      <trkpt lat="47.527292" lon="7.815550">
        <ele>331.148979</ele>
        <time>2021-11-18T01:37:33.331Z</time>
      </trkpt>
      <trkpt lat="47.527320" lon="7.815661">
        <ele>331.285432</ele>
        <time>2021-11-18T01:37:35.079Z</time>
      </trkpt>
      <trkpt lat="47.527346" lon="7.815799">
        <ele>331.450419</ele>
        <time>2021-11-18T01:37:37.254Z</time>
      </trkpt>
      <trkpt lat="47.527361" lon="7.815943">
        <ele>331.618206</ele>
        <time>2021-11-18T01:37:39.296Z</time>
      </trkpt>
      <trkpt lat="47.527362" lon="7.815959">
        <ele>331.636710</ele>
        <time>2021-11-18T01:37:39.508Z</time>
      </trkpt>
      <trkpt lat="47.527366" lon="7.816038">
        <ele>331.727939</ele>
        <time>2021-11-18T01:37:40.579Z</time>
      </trkpt>
      <trkpt lat="47.527376" lon="7.816175">
        <ele>331.886623</ele>
        <time>2021-11-18T01:37:42.628Z</time>
      </trkpt>
      <trkpt lat="47.527388" lon="7.816407">
        <ele>332.154570</ele>
        <time>2021-11-18T01:37:46.330Z</time>
      </trkpt>
      <trkpt lat="47.527432" lon="7.817173">
        <ele>333.039856</ele>
        <time>2021-11-18T01:37:58.487Z</time>
      </trkpt>
      <trkpt lat="47.527471" lon="7.817746">
        <ele>333.775065</ele>
        <time>2021-11-18T01:38:07.961Z</time>
      </trkpt>
      <trkpt lat="47.527477" lon="7.817911">
        <ele>334.091695</ele>
        <time>2021-11-18T01:38:10.550Z</time>
      </trkpt>
      <trkpt lat="47.527477" lon="7.818068">
        <ele>334.392537</ele>
        <time>2021-11-18T01:38:12.743Z</time>
      </trkpt>
      <trkpt lat="47.527466" lon="7.818406">
        <ele>335.040963</ele>
        <time>2021-11-18T01:38:18.343Z</time>
      </trkpt>
      <trkpt lat="47.527455" lon="7.818544">
        <ele>335.307234</ele>
        <time>2021-11-18T01:38:20.087Z</time>
      </trkpt>
      <trkpt lat="47.527408" lon="7.818945">
        <ele>336.087118</ele>
        <time>2021-11-18T01:38:26.315Z</time>
      </trkpt>
      <trkpt lat="47.527349" lon="7.819451">
        <ele>337.071064</ele>
        <time>2021-11-18T01:38:34.611Z</time>
      </trkpt>
      <trkpt lat="47.527327" lon="7.819619">
        <ele>337.398983</ele>
        <time>2021-11-18T01:38:37.360Z</time>
      </trkpt>
      <trkpt lat="47.527283" lon="7.819942">
        <ele>338.030385</ele>
        <time>2021-11-18T01:38:44.371Z</time>
      </trkpt>
      <trkpt lat="47.527258" lon="7.820150">
        <ele>338.435220</ele>
        <time>2021-11-18T01:38:48.366Z</time>
      </trkpt>
      <trkpt lat="47.527223" lon="7.820442">
        <ele>339.493735</ele>
        <time>2021-11-18T01:38:55.647Z</time>
      </trkpt>
      <trkpt lat="47.527128" lon="7.821204">
        <ele>343.367509</ele>
        <time>2021-11-18T01:39:14.464Z</time>
      </trkpt>
      <trkpt lat="47.527202" lon="7.821239">
        <ele>343.942636</ele>
        <time>2021-11-18T01:39:18.300Z</time>
      </trkpt>
      <trkpt lat="47.527273" lon="7.821332">
        <ele>344.644397</ele>
        <time>2021-11-18T01:39:22.841Z</time>
      </trkpt>
      <trkpt lat="47.527330" lon="7.821475">
        <ele>345.474545</ele>
        <time>2021-11-18T01:39:28.098Z</time>
      </trkpt>
      <trkpt lat="47.527413" lon="7.821524">
        <ele>346.136067</ele>
        <time>2021-11-18T01:39:32.177Z</time>
      </trkpt>
      <trkpt lat="47.527485" lon="7.821570">
        <ele>346.716613</ele>
        <time>2021-11-18T01:39:36.140Z</time>
      </trkpt>
      <trkpt lat="47.527571" lon="7.821581">
        <ele>347.355691</ele>
        <time>2021-11-18T01:39:40.898Z</time>
      </trkpt>
      <trkpt lat="47.527826" lon="7.821632">
        <ele>349.260742</ele>
        <time>2021-11-18T01:39:54.954Z</time>
      </trkpt>
      <trkpt lat="47.528034" lon="7.821675">
        <ele>350.815618</ele>
        <time>2021-11-18T01:40:07.980Z</time>
      </trkpt>
      <trkpt lat="47.528543" lon="7.821686">
        <ele>356.096823</ele>
        <time>2021-11-18T01:40:40.637Z</time>
      </trkpt>
      <trkpt lat="47.528891" lon="7.821754">
        <ele>360.225363</ele>
        <time>2021-11-18T01:41:04.554Z</time>
      </trkpt>
      <trkpt lat="47.529032" lon="7.821783">
        <ele>361.899676</ele>
        <time>2021-11-18T01:41:13.808Z</time>
      </trkpt>
      <trkpt lat="47.529177" lon="7.821813">
        <ele>363.621682</ele>
        <time>2021-11-18T01:41:22.739Z</time>
      </trkpt>
      <trkpt lat="47.529477" lon="7.821870">
        <ele>367.179106</ele>
        <time>2021-11-18T01:41:41.797Z</time>
      </trkpt>
      <trkpt lat="47.530546" lon="7.822037">
        <ele>380.085441</ele>
        <time>2021-11-18T01:42:51.303Z</time>
      </trkpt>
      <trkpt lat="47.530898" lon="7.822253">
        <ele>384.744258</ele>
        <time>2021-11-18T01:43:15.885Z</time>
      </trkpt>
      <trkpt lat="47.531187" lon="7.822513">
        <ele>388.878804</ele>
        <time>2021-11-18T01:43:39.257Z</time>
      </trkpt>
      <trkpt lat="47.531355" lon="7.822795">
        <ele>391.983611</ele>
        <time>2021-11-18T01:43:55.935Z</time>
      </trkpt>
      <trkpt lat="47.531449" lon="7.823086">
        <ele>394.646811</ele>
        <time>2021-11-18T01:44:09.335Z</time>
      </trkpt>
      <trkpt lat="47.531785" lon="7.824131">
        <ele>401.073422</ele>
        <time>2021-11-18T01:44:52.027Z</time>
      </trkpt>
      <trkpt lat="47.531817" lon="7.824286">
        <ele>401.948364</ele>
        <time>2021-11-18T01:44:59.270Z</time>
      </trkpt>
      <trkpt lat="47.531766" lon="7.824396">
        <ele>402.668671</ele>
        <time>2021-11-18T01:45:03.049Z</time>
      </trkpt>
      <trkpt lat="47.531554" lon="7.824738">
        <ele>405.174881</ele>
        <time>2021-11-18T01:45:16.427Z</time>
      </trkpt>
      <trkpt lat="47.531216" lon="7.825253">
        <ele>409.051874</ele>
        <time>2021-11-18T01:45:31.398Z</time>
      </trkpt>
      <trkpt lat="47.530870" lon="7.825910">
        <ele>411.691898</ele>
        <time>2021-11-18T01:45:52.193Z</time>
      </trkpt>
      <trkpt lat="47.530680" lon="7.826915">
        <ele>414.713438</ele>
        <time>2021-11-18T01:46:11.710Z</time>
      </trkpt>
      <trkpt lat="47.530663" lon="7.827082">
        <ele>415.202394</ele>
        <time>2021-11-18T01:46:13.433Z</time>
      </trkpt>
      <trkpt lat="47.530711" lon="7.827258">
        <ele>415.751940</ele>
        <time>2021-11-18T01:46:19.374Z</time>
      </trkpt>
      <trkpt lat="47.530778" lon="7.827416">
        <ele>416.292108</ele>
        <time>2021-11-18T01:46:23.239Z</time>
      </trkpt>
      <trkpt lat="47.530910" lon="7.827537">
        <ele>416.957749</ele>
        <time>2021-11-18T01:46:27.332Z</time>
      </trkpt>
      <trkpt lat="47.531140" lon="7.827698">
        <ele>418.383745</ele>
        <time>2021-11-18T01:46:36.824Z</time>
      </trkpt>
      <trkpt lat="47.531280" lon="7.827796">
        <ele>419.328310</ele>
        <time>2021-11-18T01:46:42.762Z</time>
      </trkpt>
      <trkpt lat="47.531513" lon="7.827959">
        <ele>420.900160</ele>
        <time>2021-11-18T01:46:51.479Z</time>
      </trkpt>
      <trkpt lat="47.531664" lon="7.828061">
        <ele>421.912521</ele>
        <time>2021-11-18T01:47:00.111Z</time>
      </trkpt>
      <trkpt lat="47.532227" lon="7.828686">
        <ele>426.204367</ele>
        <time>2021-11-18T01:47:28.907Z</time>
      </trkpt>
      <trkpt lat="47.532741" lon="7.829861">
        <ele>431.925039</ele>
        <time>2021-11-18T01:48:06.673Z</time>
      </trkpt>
      <trkpt lat="47.533138" lon="7.830624">
        <ele>435.844084</ele>
        <time>2021-11-18T01:48:30.561Z</time>
      </trkpt>
      <trkpt lat="47.533172" lon="7.830741">
        <ele>436.362306</ele>
        <time>2021-11-18T01:48:34.261Z</time>
      </trkpt>
      <trkpt lat="47.533205" lon="7.830904">
        <ele>437.054627</ele>
        <time>2021-11-18T01:48:38.294Z</time>
      </trkpt>
      <trkpt lat="47.533248" lon="7.831080">
        <ele>437.816104</ele>
        <time>2021-11-18T01:48:42.486Z</time>
      </trkpt>
      <trkpt lat="47.533464" lon="7.831485">
        <ele>440.072916</ele>
        <time>2021-11-18T01:48:56.070Z</time>
      </trkpt>
      <trkpt lat="47.533503" lon="7.831541">
        <ele>440.460660</ele>
        <time>2021-11-18T01:48:58.858Z</time>
      </trkpt>
      <trkpt lat="47.533606" lon="7.831667">
        <ele>441.414260</ele>
        <time>2021-11-18T01:49:04.601Z</time>
      </trkpt>
      <trkpt lat="47.533641" lon="7.831715">
        <ele>441.754755</ele>
        <time>2021-11-18T01:49:06.287Z</time>
      </trkpt>
      <trkpt lat="47.533685" lon="7.831757">
        <ele>442.128418</ele>
        <time>2021-11-18T01:49:08.941Z</time>
      </trkpt>
      <trkpt lat="47.533728" lon="7.831912">
        <ele>442.936043</ele>
        <time>2021-11-18T01:49:14.163Z</time>
      </trkpt>
      <trkpt lat="47.533787" lon="7.832819">
        <ele>447.327559</ele>
        <time>2021-11-18T01:49:44.494Z</time>
      </trkpt>
      <trkpt lat="47.533855" lon="7.833235">
        <ele>449.390387</ele>
        <time>2021-11-18T01:49:56.471Z</time>
      </trkpt>
      <trkpt lat="47.533862" lon="7.833372">
        <ele>450.052544</ele>
        <time>2021-11-18T01:50:03.631Z</time>
      </trkpt>
      <trkpt lat="47.534011" lon="7.833341">
        <ele>451.126598</ele>
        <time>2021-11-18T01:50:10.478Z</time>
      </trkpt>
      <trkpt lat="47.534141" lon="7.833324">
        <ele>451.960159</ele>
        <time>2021-11-18T01:50:14.310Z</time>
      </trkpt>
      <trkpt lat="47.534258" lon="7.833316">
        <ele>452.262764</ele>
        <time>2021-11-18T01:50:20.632Z</time>
      </trkpt>
      <trkpt lat="47.534536" lon="7.833350">
        <ele>452.983453</ele>
        <time>2021-11-18T01:50:28.678Z</time>
      </trkpt>
      <trkpt lat="47.534581" lon="7.833360">
        <ele>453.101016</ele>
        <time>2021-11-18T01:50:31.182Z</time>
      </trkpt>
      <trkpt lat="47.534869" lon="7.833423">
        <ele>453.853168</ele>
        <time>2021-11-18T01:50:38.713Z</time>
      </trkpt>
      <trkpt lat="47.535041" lon="7.833445">
        <ele>454.299203</ele>
        <time>2021-11-18T01:50:45.008Z</time>
      </trkpt>
      <trkpt lat="47.535301" lon="7.833465">
        <ele>454.971847</ele>
        <time>2021-11-18T01:50:51.572Z</time>
      </trkpt>
      <trkpt lat="47.535868" lon="7.833423">
        <ele>456.438586</ele>
        <time>2021-11-18T01:51:00.252Z</time>
      </trkpt>
      <trkpt lat="47.536091" lon="7.833355">
        <ele>455.697153</ele>
        <time>2021-11-18T01:51:02.910Z</time>
      </trkpt>
      <trkpt lat="47.536401" lon="7.833309">
        <ele>454.250112</ele>
        <time>2021-11-18T01:51:05.944Z</time>
      </trkpt>
      <trkpt lat="47.536644" lon="7.833357">
        <ele>453.111476</ele>
        <time>2021-11-18T01:51:08.285Z</time>
      </trkpt>
      <trkpt lat="47.536802" lon="7.833477">
        <ele>452.286779</ele>
        <time>2021-11-18T01:51:09.947Z</time>
      </trkpt>
      <trkpt lat="47.536897" lon="7.833599">
        <ele>451.702795</ele>
        <time>2021-11-18T01:51:11.100Z</time>
      </trkpt>
      <trkpt lat="47.537138" lon="7.834039">
        <ele>449.926144</ele>
        <time>2021-11-18T01:51:14.559Z</time>
      </trkpt>
      <trkpt lat="47.537707" lon="7.834801">
        <ele>445.572734</ele>
        <time>2021-11-18T01:51:21.573Z</time>
      </trkpt>
      <trkpt lat="47.538158" lon="7.835307">
        <ele>441.812210</ele>
        <time>2021-11-18T01:51:26.808Z</time>
      </trkpt>
      <trkpt lat="47.538222" lon="7.835464">
        <ele>440.989245</ele>
        <time>2021-11-18T01:51:27.938Z</time>
      </trkpt>
      <trkpt lat="47.538410" lon="7.837106">
        <ele>432.773289</ele>
        <time>2021-11-18T01:51:37.930Z</time>
      </trkpt>
      <trkpt lat="47.538505" lon="7.837464">
        <ele>430.576990</ele>
        <time>2021-11-18T01:51:40.216Z</time>
      </trkpt>
      <trkpt lat="47.538612" lon="7.837844">
        <ele>428.226160</ele>
        <time>2021-11-18T01:51:42.694Z</time>
      </trkpt>
      <trkpt lat="47.538712" lon="7.838169">
        <ele>426.186877</ele>
        <time>2021-11-18T01:51:44.810Z</time>
      </trkpt>
      <trkpt lat="47.538810" lon="7.838491">
        <ele>424.170183</ele>
        <time>2021-11-18T01:51:46.919Z</time>
      </trkpt>
      <trkpt lat="47.538837" lon="7.838580">
        <ele>423.613076</ele>
        <time>2021-11-18T01:51:47.500Z</time>
      </trkpt>
      <trkpt lat="47.538868" lon="7.838681">
        <ele>422.979601</ele>
        <time>2021-11-18T01:51:48.127Z</time>
      </trkpt>
      <trkpt lat="47.539226" lon="7.839805">
        <ele>414.785337</ele>
        <time>2021-11-18T01:51:55.342Z</time>
      </trkpt>
      <trkpt lat="47.539357" lon="7.840201">
        <ele>411.730174</ele>
        <time>2021-11-18T01:51:57.896Z</time>
      </trkpt>
      <trkpt lat="47.539459" lon="7.840353">
        <ele>410.245374</ele>
        <time>2021-11-18T01:51:59.144Z</time>
      </trkpt>
      <trkpt lat="47.539657" lon="7.840668">
        <ele>407.263549</ele>
        <time>2021-11-18T01:52:01.672Z</time>
      </trkpt>
      <trkpt lat="47.539702" lon="7.840734">
        <ele>406.613673</ele>
        <time>2021-11-18T01:52:02.206Z</time>
      </trkpt>
      <trkpt lat="47.540066" lon="7.841269">
        <ele>401.013316</ele>
        <time>2021-11-18T01:52:06.684Z</time>
      </trkpt>
      <trkpt lat="47.540168" lon="7.841414">
        <ele>399.160639</ele>
        <time>2021-11-18T01:52:07.860Z</time>
      </trkpt>
      <trkpt lat="47.540305" lon="7.841591">
        <ele>396.778305</ele>
        <time>2021-11-18T01:52:09.367Z</time>
      </trkpt>
      <trkpt lat="47.540531" lon="7.841825">
        <ele>393.164774</ele>
        <time>2021-11-18T01:52:11.653Z</time>
      </trkpt>
      <trkpt lat="47.540744" lon="7.841906">
        <ele>390.282871</ele>
        <time>2021-11-18T01:52:13.519Z</time>
      </trkpt>
      <trkpt lat="47.540817" lon="7.841934">
        <ele>389.294648</ele>
        <time>2021-11-18T01:52:14.147Z</time>
      </trkpt>
      <trkpt lat="47.541050" lon="7.841906">
        <ele>386.231124</ele>
        <time>2021-11-18T01:52:16.114Z</time>
      </trkpt>
      <trkpt lat="47.541351" lon="7.841740">
        <ele>382.021984</ele>
        <time>2021-11-18T01:52:18.821Z</time>
      </trkpt>
      <trkpt lat="47.541409" lon="7.841671">
        <ele>381.047118</ele>
        <time>2021-11-18T01:52:19.428Z</time>
      </trkpt>
      <trkpt lat="47.541483" lon="7.841624">
        <ele>379.991961</ele>
        <time>2021-11-18T01:52:20.113Z</time>
      </trkpt>
      <trkpt lat="47.541583" lon="7.841568">
        <ele>378.610269</ele>
        <time>2021-11-18T01:52:20.996Z</time>
      </trkpt>
      <trkpt lat="47.542097" lon="7.841420">
        <ele>372.072184</ele>
        <time>2021-11-18T01:52:25.367Z</time>
      </trkpt>
      <trkpt lat="47.542339" lon="7.841424">
        <ele>369.050306</ele>
        <time>2021-11-18T01:52:27.385Z</time>
      </trkpt>
      <trkpt lat="47.542781" lon="7.841430">
        <ele>363.531119</ele>
        <time>2021-11-18T01:52:31.089Z</time>
      </trkpt>
      <trkpt lat="47.542795" lon="7.841432">
        <ele>363.355500</ele>
        <time>2021-11-18T01:52:31.211Z</time>
      </trkpt>
      <trkpt lat="47.542890" lon="7.841434">
        <ele>362.169179</ele>
        <time>2021-11-18T01:52:32.013Z</time>
      </trkpt>
      <trkpt lat="47.543032" lon="7.841467">
        <ele>360.374437</ele>
        <time>2021-11-18T01:52:33.215Z</time>
      </trkpt>
      <trkpt lat="47.543343" lon="7.841595">
        <ele>356.422079</ele>
        <time>2021-11-18T01:52:36.077Z</time>
      </trkpt>
      <trkpt lat="47.544480" lon="7.842116">
        <ele>347.417716</ele>
        <time>2021-11-18T01:52:46.572Z</time>
      </trkpt>
      <trkpt lat="47.544939" lon="7.842229">
        <ele>343.897414</ele>
        <time>2021-11-18T01:52:50.815Z</time>
      </trkpt>
      <trkpt lat="47.545011" lon="7.842239">
        <ele>343.350291</ele>
        <time>2021-11-18T01:52:51.453Z</time>
      </trkpt>
      <trkpt lat="47.546843" lon="7.842270">
        <ele>334.481383</ele>
        <time>2021-11-18T01:53:08.836Z</time>
      </trkpt>
      <trkpt lat="47.546951" lon="7.842267">
        <ele>334.228766</ele>
        <time>2021-11-18T01:53:09.929Z</time>
      </trkpt>
      <trkpt lat="47.547314" lon="7.842270">
        <ele>333.598708</ele>
        <time>2021-11-18T01:53:15.333Z</time>
      </trkpt>
      <trkpt lat="47.547448" lon="7.842262">
        <ele>333.365939</ele>
        <time>2021-11-18T01:53:17.387Z</time>
      </trkpt>
      <trkpt lat="47.547354" lon="7.842839">
        <ele>332.670549</ele>
        <time>2021-11-18T01:53:23.715Z</time>
      </trkpt>
      <trkpt lat="47.547313" lon="7.843735">
        <ele>331.618435</ele>
        <time>2021-11-18T01:53:34.396Z</time>
      </trkpt>
      <trkpt lat="47.547295" lon="7.844722">
        <ele>331.797981</ele>
        <time>2021-11-18T01:53:48.813Z</time>
      </trkpt>
      <trkpt lat="47.547274" lon="7.845536">
        <ele>332.447187</ele>
        <time>2021-11-18T01:54:02.265Z</time>
      </trkpt>
      <trkpt lat="47.547124" lon="7.848795">
        <ele>336.232231</ele>
        <time>2021-11-18T01:55:04.419Z</time>
      </trkpt>
      <trkpt lat="47.547143" lon="7.849985">
        <ele>337.630899</ele>
        <time>2021-11-18T01:55:27.271Z</time>
      </trkpt>
      <trkpt lat="47.547141" lon="7.850355">
        <ele>338.002572</ele>
        <time>2021-11-18T01:55:34.371Z</time>
      </trkpt>
      <trkpt lat="47.546945" lon="7.851719">
        <ele>339.403400</ele>
        <time>2021-11-18T01:55:58.903Z</time>
      </trkpt>
      <trkpt lat="47.546582" lon="7.856413">
        <ele>340.664086</ele>
        <time>2021-11-18T01:57:07.215Z</time>
      </trkpt>
      <trkpt lat="47.546537" lon="7.857497">
        <ele>340.858824</ele>
        <time>2021-11-18T01:57:22.523Z</time>
      </trkpt>
      <trkpt lat="47.546487" lon="7.859119">
        <ele>341.213762</ele>
        <time>2021-11-18T01:57:45.971Z</time>
      </trkpt>
      <trkpt lat="47.546526" lon="7.861665">
        <ele>341.288025</ele>
        <time>2021-11-18T01:58:23.145Z</time>
      </trkpt>
      <trkpt lat="47.546592" lon="7.863006">
        <ele>340.790823</ele>
        <time>2021-11-18T01:58:39.612Z</time>
      </trkpt>
      <trkpt lat="47.546877" lon="7.864345">
        <ele>339.211354</ele>
        <time>2021-11-18T01:58:54.781Z</time>
      </trkpt>
      <trkpt lat="47.546885" lon="7.864500">
        <ele>339.036473</ele>
        <time>2021-11-18T01:58:56.461Z</time>
      </trkpt>
      <trkpt lat="47.546894" lon="7.864837">
        <ele>338.657058</ele>
        <time>2021-11-18T01:58:59.940Z</time>
      </trkpt>
      <trkpt lat="47.546889" lon="7.865225">
        <ele>338.220199</ele>
        <time>2021-11-18T01:59:04.061Z</time>
      </trkpt>
      <trkpt lat="47.546819" lon="7.865489">
        <ele>337.890493</ele>
        <time>2021-11-18T01:59:07.139Z</time>
      </trkpt>
      <trkpt lat="47.546510" lon="7.865766">
        <ele>337.268520</ele>
        <time>2021-11-18T01:59:12.833Z</time>
      </trkpt>
      <trkpt lat="47.546327" lon="7.865959">
        <ele>336.881671</ele>
        <time>2021-11-18T01:59:16.164Z</time>
      </trkpt>
      <trkpt lat="47.546096" lon="7.866147">
        <ele>336.427784</ele>
        <time>2021-11-18T01:59:20.231Z</time>
      </trkpt>
      <trkpt lat="47.545240" lon="7.866887">
        <ele>335.285854</ele>
        <time>2021-11-18T01:59:36.904Z</time>
      </trkpt>
      <trkpt lat="47.545160" lon="7.866985">
        <ele>335.352998</ele>
        <time>2021-11-18T01:59:38.860Z</time>
      </trkpt>
      <trkpt lat="47.545003" lon="7.867278">
        <ele>335.516329</ele>
        <time>2021-11-18T01:59:44.528Z</time>
      </trkpt>
      <trkpt lat="47.544568" lon="7.867693">
        <ele>335.850988</ele>
        <time>2021-11-18T01:59:57.319Z</time>
      </trkpt>
      <trkpt lat="47.544469" lon="7.867776">
        <ele>335.924565</ele>
        <time>2021-11-18T02:00:00.181Z</time>
      </trkpt>
      <trkpt lat="47.544410" lon="7.867825">
        <ele>335.968315</ele>
        <time>2021-11-18T02:00:02.269Z</time>
      </trkpt>
      <trkpt lat="47.544246" lon="7.867967">
        <ele>336.091182</ele>
        <time>2021-11-18T02:00:06.953Z</time>
      </trkpt>
      <trkpt lat="47.544214" lon="7.867988">
        <ele>336.113820</ele>
        <time>2021-11-18T02:00:07.801Z</time>
      </trkpt>
      <trkpt lat="47.543801" lon="7.868269">
        <ele>336.530735</ele>
        <time>2021-11-18T02:00:19.404Z</time>
      </trkpt>
      <trkpt lat="47.543657" lon="7.868359">
        <ele>336.742053</ele>
        <time>2021-11-18T02:00:23.753Z</time>
      </trkpt>
      <trkpt lat="47.543201" lon="7.868657">
        <ele>337.415929</ele>
        <time>2021-11-18T02:00:33.954Z</time>
      </trkpt>
      <trkpt lat="47.543105" lon="7.868711">
        <ele>337.554771</ele>
        <time>2021-11-18T02:00:36.538Z</time>
      </trkpt>
      <trkpt lat="47.543049" lon="7.868759">
        <ele>337.642249</ele>
        <time>2021-11-18T02:00:37.915Z</time>
      </trkpt>
      <trkpt lat="47.542722" lon="7.869201">
        <ele>338.240768</ele>
        <time>2021-11-18T02:00:47.747Z</time>
      </trkpt>
      <trkpt lat="47.542696" lon="7.869257">
        <ele>338.302802</ele>
        <time>2021-11-18T02:00:48.577Z</time>
      </trkpt>
      <trkpt lat="47.542657" lon="7.869354">
        <ele>338.405849</ele>
        <time>2021-11-18T02:00:50.012Z</time>
      </trkpt>
      <trkpt lat="47.542372" lon="7.869746">
        <ele>338.726931</ele>
        <time>2021-11-18T02:00:56.869Z</time>
      </trkpt>
      <trkpt lat="47.542329" lon="7.869820">
        <ele>338.726931</ele>
        <time>2021-11-18T02:00:58.052Z</time>
      </trkpt>
      <trkpt lat="47.542348" lon="7.869983">
        <ele>338.726931</ele>
        <time>2021-11-18T02:00:59.526Z</time>
      </trkpt>
      <trkpt lat="47.542317" lon="7.870012">
        <ele>338.726931</ele>
        <time>2021-11-18T02:01:00.184Z</time>
      </trkpt>
      <trkpt lat="47.542181" lon="7.870131">
        <ele>338.726931</ele>
        <time>2021-11-18T02:01:02.619Z</time>
      </trkpt>
      <trkpt lat="47.542118" lon="7.870135">
        <ele>338.726931</ele>
        <time>2021-11-18T02:01:03.622Z</time>
      </trkpt>
      <trkpt lat="47.542014" lon="7.870126">
        <ele>338.726931</ele>
        <time>2021-11-18T02:01:04.925Z</time>
      </trkpt>
      <trkpt lat="47.541910" lon="7.870106">
        <ele>338.726931</ele>
        <time>2021-11-18T02:01:06.454Z</time>
      </trkpt>
      <trkpt lat="47.541606" lon="7.870424">
        <ele>338.726931</ele>
        <time>2021-11-18T02:01:11.506Z</time>
      </trkpt>
      <trkpt lat="47.541521" lon="7.870517">
        <ele>338.726931</ele>
        <time>2021-11-18T02:01:12.933Z</time>
      </trkpt>
      <trkpt lat="47.541550" lon="7.870601">
        <ele>338.726931</ele>
        <time>2021-11-18T02:01:13.794Z</time>
      </trkpt>
      <trkpt lat="47.541576" lon="7.870664">
        <ele>338.726931</ele>
        <time>2021-11-18T02:01:14.465Z</time>
      </trkpt>
      <trkpt lat="47.541576" lon="7.870664">
        <ele>338.726931</ele>
        <time>2021-11-18T02:01:14.468Z</time>
      </trkpt>
    </trkseg>
  </trk>
</gpx>